[[{"header":{"parameterUnit":"m.s-1","parameterCategory":1,"la1":31.0,"la2":29.5877,"lo1":-88.7671,"lo2":-86.6584,"dy":0.0162,"dx":0.0185,"nx":115,"ny":88,"refTime":"2026-04-05T00:00:00:Z","depth":0,"parameterNumber":2,"parameterNumberName":"U-component_of_WINDS"},"data":[0.0,0.0,0.0,0.0,0.0,0.0,0.0,0.0,0.0,0.0,0.0,0.0,0.0,0.0,0.0,0.0,0.0,0.0,0.0,0.0,0.0,0.0,0.0,0.0,0.0,0.0,0.0,0.0,0.0,0.0,0.0,0.0,0.0,0.0,0.0,0.0,0.0,0.0,0.0,0.0,0.0,0.0,0.0,0.0,0.0,0.0,0.0,0.0,0.0,0.0,0.0,0.0,0.0,0.0,0.0,0.0,0.0,0.0,0.0,0.0,0.0,0.0,0.0,0.0,0.0,0.0,0.0,0.0,0.0,0.0,0.0,0.0,0.0,0.0,0.0,0.0,0.0,0.0,0.0,0.0,0.0,0.0,0.0,0.0,0.0,0.0,0.0,0.0,0.0,0.0,0.0,0.0,0.0,0.0,0.0,0.0,0.0,0.0,0.0,0.0,0.0,0.0,0.0,0.0,0.0,0.0,0.0,0.0,0.0,0.0,0.0,0.0,0.0,0.0,0.0,0.0,0.0,0.0,0.0,0.0,0.0,0.0,0.0,0.0,0.0,0.0,0.0,0.0,0.0,0.0,0.0,0.0,0.0,0.0,0.0,0.0,0.0,0.0,0.0,0.0,0.0,0.0,0.0,0.0,0.0,0.0,0.0,0.0,0.0,0.0,0.0,0.0,0.0,0.0,0.0,0.0,0.0,0.0,0.0,0.0,0.0,0.0,0.0,0.0,0.0,0.0,0.0,0.0,0.0,0.0,0.0,0.0,0.0,0.0,0.0,0.0,0.0,0.0,0.0,0.0,0.0,0.0,0.0,0.0,0.0,0.0,0.0,0.0,0.0,0.0,0.0,0.0,0.0,0.0,0.0,0.0,0.0,0.0,0.0,0.0,0.0,0.0,0.0,0.0,0.0,0.0,0.0,0.0,0.0,0.0,0.0,0.0,0.0,0.0,0.0,0.0,0.0,0.0,0.0,0.0,0.0,0.0,0.0,0.0,0.0,0.0,0.0,0.0,0.0,0.0,0.0,0.0,0.0,0.0,0.0,0.0,0.0,0.0,0.0,0.0,0.0,0.0,0.0,0.0,0.0,0.0,0.0,0.0,0.0,0.0,0.0,0.0,0.0,0.0,0.0,0.0,0.0,0.0,0.0,0.0,0.0,0.0,0.0,0.0,0.0,0.0,0.0,0.0,0.0,0.0,0.0,0.0,0.0,0.0,0.0,0.0,0.0,0.0,0.0,0.0,0.0,0.0,0.0,0.0,0.0,0.0,0.0,0.0,0.0,0.0,0.0,0.0,0.0,0.0,0.0,0.0,0.0,0.0,0.0,0.0,0.0,0.0,0.0,0.0,0.0,0.0,0.0,0.0,0.0,0.0,0.0,0.0,0.0,0.0,0.0,0.0,0.0,0.0,0.0,0.0,0.0,0.0,0.0,0.0,0.0,0.0,0.0,0.0,0.0,0.0,0.0,0.0,0.0,0.0,0.0,0.0,0.0,0.0,0.0,0.0,0.0,0.0,0.0,0.0,0.0,0.0,0.0,0.0,0.0,0.0,0.0,0.0,0.0,0.0,0.0,0.0,0.0,0.0,0.0,0.0,0.0,0.0,0.0,0.0,0.0,0.0,0.0,0.0,0.0,0.0,0.0,0.0,0.0,0.0,0.0,0.0,0.0,0.0,0.0,0.0,0.0,0.0,0.0,0.0,0.0,0.0,0.0,0.0,0.0,0.0,0.0,0.0,0.0,0.0,0.0,0.0,0.0,0.0,0.0,0.0,0.0,0.0,0.0,0.0,0.0,0.0,0.0,0.0,0.0,0.0,0.0,0.0,0.0,0.0,0.0,0.0,0.0,0.0,0.0,0.0,0.0,0.0,0.0,0.0,0.0,0.0,0.0,0.0,0.0,0.0,0.0,0.0,0.0,0.0,0.0,0.0,0.0,0.0,0.0,0.0,0.0,0.0,0.0,0.0,0.0,0.0,0.0,0.0,0.0,0.0,0.0,0.0,0.0,0.0,0.0,0.0,0.0,0.0,0.0,0.0,0.0,0.0,0.0,0.0,0.0,0.0,0.0,0.0,0.0,0.0,0.0,0.0,0.0,0.0,0.0,0.0,0.0,0.0,0.0,0.0,0.0,0.0,0.0,0.0,0.0,0.0,0.0,0.0,0.0,0.0,0.0,0.0,0.0,0.0,0.0,0.0,0.0,0.0,0.0,0.0,0.0,0.0,0.0,0.0,0.0,0.0,0.0,0.0,0.0,0.0,0.0,0.0,0.0,0.0,0.0,0.0,0.0,0.0,0.0,0.0,0.0,0.0,0.0,0.0,0.0,0.0,0.0,0.0,0.0,0.0,0.0,0.0,0.0,0.0,0.0,0.0,0.0,0.0,0.0,0.0,0.0,0.0,0.0,0.0,0.0,0.0,0.0,0.0,0.0,0.0,0.0,0.0,0.0,0.0,0.0,0.0,0.0,0.0,0.0,0.0,0.0,0.0,0.0,0.0,0.0,0.0,0.0,0.0,0.0,0.0,0.0,0.0,0.0,0.0,0.0,0.0,0.0,0.0,0.0,0.0,0.0,0.0,0.0,0.0,0.0,0.0,0.0,0.0,0.0,0.0,0.0,0.0,0.0,0.0,0.0,0.0,0.0,0.0,0.0,0.0,0.0,0.0,0.0,0.0,0.0,0.0,0.0,0.0,0.0,0.0,0.0,0.0,0.0,0.0,0.0,0.0,0.0,0.0,0.0,0.0,0.0,0.0,0.0,0.0,0.0,0.0,0.0,0.0,0.0,0.0,0.0,0.0,0.0,0.0,0.0,0.0,0.0,0.0,0.0,0.0,0.0,0.0,0.0,0.0,0.0,0.0,0.0,0.0,0.0,0.0,0.0,0.0,0.0,0.0,0.0,0.0,0.0,0.0,0.0,0.0,0.0,0.0,0.0,0.0,0.0,0.0,0.0,0.0,0.0,0.0,0.0,0.0,0.0,0.0,0.0,0.0,0.0,0.0,0.0,0.0,0.0,0.0,0.0,0.0,0.0,0.0,0.0,0.0,0.0,0.0,0.0,0.0,0.0,0.0,0.0,0.0,0.0,0.0,0.0,0.0,0.0,0.0,0.0,0.0,0.0,0.0,0.0,0.0,0.0,0.0,0.0,0.0,0.0,0.0,0.0,0.0,0.0,0.0,0.0,0.0,0.0,0.0,0.0,0.0,0.0,0.0,0.0,0.0,0.0,0.0,0.0,0.0,0.0,0.0,0.0,0.0,0.0,0.0,0.0,0.0,0.0,0.0,0.0,0.0,0.0,0.0,0.0,0.0,0.0,0.0,0.0,0.0,0.0,0.0,0.0,0.0,0.0,0.0,0.0,0.0,0.0,0.0,0.0,0.0,0.0,0.0,0.0,0.0,0.0,0.0,0.0,0.0,0.0,0.0,0.0,0.0,0.0,0.0,0.0,0.0,0.0,0.0,0.0,0.0,0.0,0.0,0.0,0.0,0.0,0.0,0.0,0.0,0.0,0.0,0.0,0.0,0.0,0.0,0.0,0.0,0.0,0.0,0.0,0.0,0.0,0.0,0.0,0.0,0.0,0.0,0.0,0.0,0.0,0.0,0.0,0.0,0.0,0.0,0.0,0.0,0.0,0.0,0.0,0.0,0.0,0.0,0.0,0.0,0.0,0.0,0.0,0.0,0.0,0.0,0.0,0.0,0.0,0.0,0.0,0.0,0.0,0.0,0.0,0.0,0.0,0.0,0.0,0.0,0.0,0.0,0.0,0.0,0.0,0.0,0.0,0.0,0.0,0.0,0.0,0.0,0.0,0.0,0.0,0.0,0.0,0.0,0.0,0.0,0.0,0.0,0.0,0.0,0.0,0.0,0.0,0.0,0.0,0.0,0.0,0.0,0.0,0.0,0.0,0.0,0.0,0.0,0.0,0.0,0.0,0.0,0.0,0.0,0.0,0.0,0.0,0.0,0.0,0.0,0.0,0.0,0.0,0.0,0.0,0.0,0.0,0.0,0.0,0.0,0.0,0.0,0.0,0.0,0.0,0.0,0.0,0.0,0.0,0.0,0.0,0.0,0.0,0.0,0.0,0.0,0.0,0.0,0.0,0.0,0.0,0.0,0.0,0.0,0.0,0.0,0.0,0.0,0.0,0.0,0.0,0.0,0.0,0.0,0.0,0.0,0.0,0.0,0.0,0.0,0.0,0.0,0.0,0.0,0.0,0.0,0.0,0.0,0.0,0.0,0.0,0.0,0.0,0.0,0.0,0.0,0.0,0.0,1.3404,0.0,0.0,0.0,0.0,0.0,0.0,0.0,0.0,0.0,0.0,0.0,0.0,0.0,0.0,0.0,0.0,0.0,0.0,0.0,0.0,0.0,0.0,0.0,0.0,0.0,0.0,0.0,0.0,0.0,0.0,0.0,0.0,0.0,0.0,0.0,0.0,0.0,0.0,0.0,0.0,0.0,0.0,0.0,0.0,0.0,0.0,0.0,0.0,0.0,0.0,0.0,0.0,0.0,0.0,0.0,0.0,0.0,0.0,0.0,0.0,0.0,0.0,0.0,0.0,0.0,0.0,0.0,0.0,0.0,0.0,0.0,0.0,0.0,0.0,0.0,0.0,0.0,0.0,0.0,0.0,0.0,0.0,0.0,0.0,0.0,0.0,0.0,0.0,0.0,0.0,0.0,0.0,0.0,0.0,0.0,0.0,0.0,0.0,0.0,0.0,0.0,0.0,0.0,0.0,0.0,0.0,0.0,0.0,0.0,0.0,1.5219,1.5078,1.4673,1.4395,1.4307,0.0,0.0,0.0,0.0,0.0,0.0,0.0,0.0,0.0,0.0,0.0,0.0,0.0,0.0,0.0,0.0,0.0,0.0,0.0,0.0,0.0,0.0,0.0,0.0,0.0,0.0,0.0,0.0,0.0,0.0,0.0,0.0,0.0,0.0,0.0,0.0,0.0,0.0,0.0,0.0,0.0,0.0,0.0,0.0,0.0,0.0,0.0,0.0,0.0,0.0,0.0,0.0,0.0,0.0,0.0,0.0,0.0,0.0,0.0,0.0,0.0,0.0,0.0,0.0,0.0,0.0,0.0,0.0,0.0,0.0,0.0,0.0,0.0,0.0,0.0,0.0,0.0,0.0,0.0,0.0,0.0,0.0,0.0,0.0,0.0,0.0,0.0,0.0,0.0,0.0,0.0,0.0,0.0,0.0,0.0,0.0,0.0,0.0,0.0,0.0,0.0,0.0,0.0,0.0,0.0,0.0,0.0,0.0,0.0,0.0,0.0,0.0,1.5387,1.5003,1.4803,0.0,0.0,0.0,0.0,0.0,0.0,0.0,0.0,0.0,0.0,0.0,0.0,0.0,0.0,0.0,0.0,0.0,0.0,0.0,0.0,0.0,0.0,0.0,0.0,0.0,0.0,0.0,0.0,0.0,0.0,0.0,0.0,0.0,0.0,0.0,0.0,0.0,0.0,0.0,0.0,0.0,0.0,0.0,0.0,0.0,0.0,0.0,0.0,0.0,0.0,0.0,0.0,0.0,0.0,0.0,0.0,0.0,0.0,0.0,0.0,0.0,0.0,0.0,0.0,0.0,0.0,0.0,0.0,0.0,0.0,0.0,0.0,0.0,0.0,0.0,0.0,0.0,0.0,0.0,0.0,0.0,0.0,0.0,0.0,0.0,0.0,0.0,0.0,0.0,0.0,0.0,0.0,0.0,0.0,0.0,0.0,0.0,0.0,0.0,0.0,0.0,0.0,0.0,0.0,0.0,0.0,0.0,0.0,0.0,0.0,1.5952,1.6244,1.5682,0.0,1.4296,0.0,0.0,0.0,0.0,0.0,0.0,0.0,0.0,0.0,0.0,0.0,0.0,0.0,0.0,0.0,0.0,0.0,0.0,0.0,0.0,0.0,0.0,0.0,0.0,0.0,0.0,0.0,0.0,0.0,0.0,0.0,0.0,0.0,0.0,0.0,0.0,0.0,0.0,0.0,0.0,0.0,0.0,0.0,0.0,0.0,0.0,0.0,0.0,0.0,0.0,0.0,0.0,0.0,0.0,0.0,0.0,0.0,0.0,0.0,0.0,0.0,0.0,0.0,0.0,0.0,0.0,0.0,0.0,0.0,0.0,0.0,0.0,0.0,0.0,0.0,0.0,0.0,0.0,0.0,0.0,0.0,0.0,0.0,0.0,0.0,0.0,0.0,0.0,0.0,0.0,0.0,0.0,0.0,0.0,0.0,0.0,0.0,0.0,0.0,0.0,0.0,0.0,0.0,0.0,0.0,0.0,0.0,0.0,0.0,0.0,0.0,1.6805,1.6046,1.5172,0.0,0.0,0.0,0.0,0.0,0.0,0.0,0.0,0.0,0.0,0.0,0.0,0.0,0.0,0.0,0.0,0.0,0.0,0.0,0.0,0.0,0.0,0.0,0.0,0.0,0.0,0.0,0.0,0.0,0.0,0.0,0.0,0.0,0.0,0.0,0.0,0.0,0.0,0.0,0.0,0.0,0.0,0.0,0.0,0.0,0.0,0.0,0.0,0.0,0.0,0.0,0.0,0.0,0.0,0.0,0.0,0.0,0.0,0.0,0.0,0.0,0.0,0.0,0.0,0.0,0.0,0.0,0.0,0.0,0.0,0.0,0.0,0.0,0.0,0.0,0.0,0.0,0.0,0.0,0.0,0.0,0.0,0.0,0.0,0.0,0.0,0.0,0.0,0.0,0.0,0.0,0.0,0.0,0.0,0.0,0.0,0.0,0.0,0.0,0.0,0.0,0.0,0.0,0.0,0.0,0.0,0.0,0.0,0.0,0.0,1.6152,0.0,1.6727,1.6086,1.5244,1.4242,0.0,0.0,0.0,0.0,0.0,0.0,0.0,0.0,0.0,0.0,0.0,0.0,0.0,0.0,0.0,0.0,0.0,0.0,0.0,0.0,0.0,0.0,0.0,0.0,0.0,0.0,0.0,0.0,0.0,0.0,0.0,0.0,0.0,0.0,0.0,0.0,0.0,0.0,0.0,0.0,0.0,0.0,0.0,0.0,0.0,0.0,0.0,0.0,0.0,0.0,0.0,0.0,0.0,0.0,0.0,0.0,0.0,0.0,0.0,0.0,0.0,0.0,0.0,0.0,0.0,0.0,0.0,0.0,0.0,0.0,0.0,0.0,0.0,0.0,0.0,0.0,0.0,0.0,0.0,0.0,0.0,0.0,0.0,0.0,0.0,0.0,0.0,0.0,0.0,0.0,0.0,0.0,0.0,0.0,0.0,0.0,0.0,0.0,0.0,0.0,0.0,0.0,0.0,0.0,0.0,0.0,0.0,0.0,0.0,1.5835,1.5848,1.5875,1.5555,1.5124,0.0,0.0,0.0,0.0,0.0,0.0,0.0,0.0,0.0,0.0,0.0,0.0,0.0,0.0,0.0,0.0,0.0,0.0,0.0,0.0,0.0,0.0,0.0,0.0,0.0,0.0,0.0,0.0,0.0,0.0,0.0,0.0,0.0,0.0,0.0,0.0,0.0,0.0,0.0,0.0,0.0,0.0,0.0,0.0,0.0,0.0,0.0,0.0,0.0,0.0,0.0,0.0,0.0,0.0,0.0,0.0,0.0,0.0,0.0,0.0,0.0,0.0,0.0,0.0,0.0,0.0,0.0,0.0,0.0,0.0,0.0,0.0,0.0,0.0,0.0,0.0,0.0,0.0,0.0,0.0,0.0,0.0,0.0,0.0,0.0,0.0,0.0,0.0,0.0,0.0,0.0,0.0,0.0,0.0,0.0,0.0,0.0,0.0,0.0,0.0,0.0,0.0,0.0,0.0,0.0,0.0,0.0,0.0,0.0,1.5808,1.6019,1.5939,1.5565,1.5444,1.4914,0.0,0.0,0.0,0.0,0.0,0.0,0.0,0.0,0.0,0.0,0.0,0.0,0.0,0.0,0.0,0.0,0.0,0.0,0.0,0.0,0.0,0.0,0.0,0.0,0.0,0.0,0.0,0.0,0.0,0.0,0.0,0.0,0.0,0.0,0.0,0.0,0.0,0.0,0.0,0.0,0.0,0.0,0.0,0.0,0.0,0.0,0.0,0.0,0.0,0.0,0.0,0.0,0.0,0.0,0.0,0.0,0.0,0.0,0.0,0.0,0.0,0.0,0.0,0.0,0.0,0.0,0.0,0.0,0.0,0.0,0.0,0.0,0.0,0.0,0.0,0.0,0.0,0.0,0.0,0.0,0.0,0.0,0.0,0.0,0.0,0.0,0.0,0.0,0.0,0.0,0.0,0.0,0.0,0.0,0.0,0.0,0.0,0.0,0.0,0.0,0.0,0.0,0.0,0.0,0.0,0.0,0.0,0.0,0.0,1.5941,0.0,1.6203,0.0,1.5498,1.4937,0.0,0.0,0.0,0.0,0.0,0.0,0.0,0.0,0.0,0.0,0.0,0.0,0.0,0.0,0.0,0.0,0.0,0.0,0.0,0.0,0.0,0.0,0.0,0.0,0.0,0.0,0.0,0.0,0.0,0.0,0.0,0.0,0.0,0.0,0.0,0.0,0.0,0.0,0.0,0.0,0.0,0.0,0.0,0.0,0.0,0.0,0.0,0.0,0.0,0.0,0.0,0.0,0.0,0.0,0.0,0.0,0.0,0.0,0.0,0.0,0.0,0.0,0.0,0.0,0.0,0.0,0.0,0.0,0.0,0.0,0.0,0.0,0.0,0.0,0.0,0.0,0.0,0.0,0.0,0.0,0.0,0.0,0.0,0.0,0.0,0.0,0.0,0.0,0.0,0.0,0.0,0.0,0.0,0.0,0.0,0.0,0.0,0.0,0.0,0.0,0.0,0.0,0.0,0.0,0.0,0.0,0.0,0.0,1.5968,1.6297,1.658,1.6593,1.6297,1.5725,1.5137,0.0,0.0,0.0,0.0,0.0,0.0,0.0,0.0,0.0,0.0,0.0,0.0,0.0,0.0,0.0,0.0,0.0,0.0,0.0,0.0,0.0,0.0,0.0,0.0,0.0,0.0,0.0,0.0,0.0,0.0,0.0,0.0,0.0,0.0,0.0,0.0,0.0,0.0,0.0,0.0,0.0,0.0,0.0,0.0,0.0,0.0,0.0,0.0,0.0,0.0,0.0,0.0,0.0,0.0,0.0,0.0,0.0,0.0,0.0,0.0,0.0,0.0,0.0,0.0,0.0,0.0,0.0,0.0,0.0,0.0,0.0,0.0,0.0,0.0,0.0,0.0,0.0,0.0,0.0,0.0,0.0,0.0,0.0,0.0,0.0,0.0,0.0,0.0,0.0,0.0,0.0,0.0,0.0,0.0,0.0,0.0,0.0,0.0,0.0,0.0,0.0,0.0,0.0,0.0,0.0,0.0,0.0,0.0,0.0,1.6593,1.7248,1.7275,1.6593,1.6217,1.5538,0.0,0.0,0.0,0.0,0.0,0.0,0.0,0.0,0.0,0.0,0.0,0.0,0.0,0.0,0.0,0.0,0.0,0.0,0.0,0.0,0.0,0.0,0.0,0.0,0.0,0.0,0.0,0.0,0.0,0.0,0.0,0.0,0.0,0.0,0.0,0.0,0.0,0.0,0.0,0.0,0.0,0.0,0.0,0.0,0.0,0.0,0.0,0.0,0.0,0.0,0.0,0.0,0.0,0.0,0.0,0.0,0.0,0.0,0.0,0.0,0.0,0.0,0.0,0.0,0.0,0.0,0.0,0.0,0.0,0.0,0.0,0.0,0.0,0.0,0.0,0.0,0.0,0.0,0.0,0.0,0.0,0.0,0.0,0.0,0.0,0.0,0.0,0.0,0.0,0.0,0.0,0.0,0.0,0.0,0.0,0.0,0.0,0.0,0.0,0.0,0.0,0.0,0.0,0.0,0.0,0.0,0.0,0.0,0.0,1.8677,1.8998,1.8716,1.7849,1.7368,1.6565,1.5378,0.0,0.0,0.0,0.0,0.0,0.0,0.0,0.0,0.0,0.0,0.0,0.0,0.0,0.0,0.0,0.0,0.0,0.0,0.0,0.0,0.0,0.0,0.0,0.0,0.0,0.0,0.0,0.0,0.0,0.0,0.0,0.0,0.0,0.0,0.0,0.0,0.0,0.0,0.0,0.0,0.0,0.0,0.0,0.0,0.0,0.0,0.0,0.0,0.0,0.0,0.0,0.0,0.0,0.0,0.0,0.0,0.0,0.0,0.0,0.0,0.0,0.0,0.0,0.0,0.0,0.0,0.0,0.0,0.0,0.0,0.0,0.0,0.0,0.0,0.0,0.0,0.0,0.0,0.0,0.0,0.0,0.0,0.0,0.0,0.0,0.0,0.0,0.0,0.0,0.0,0.0,0.0,0.0,0.0,0.0,0.0,0.0,0.0,0.0,0.0,0.0,0.0,0.0,0.0,0.0,0.0,0.0,0.0,2.2117,2.1683,2.1002,1.9987,1.9132,1.8076,0.0,0.0,0.0,0.0,0.0,0.0,0.0,0.0,0.0,0.0,0.0,0.0,0.0,0.0,0.0,0.0,0.0,0.0,0.0,0.0,0.0,0.0,0.0,0.0,0.0,0.0,0.0,0.0,0.0,0.0,0.0,0.0,0.0,0.0,0.0,0.0,0.0,0.0,0.0,0.0,0.0,0.0,0.0,0.0,0.0,0.0,0.0,0.0,0.0,0.0,0.0,0.0,0.0,0.0,0.0,0.0,0.0,0.0,0.0,0.0,0.0,0.0,0.0,0.0,0.0,0.0,0.0,0.0,0.0,0.0,0.0,0.0,0.0,0.0,0.0,0.0,0.0,0.0,0.0,0.0,0.0,0.0,0.0,0.0,0.0,0.0,0.0,0.0,0.0,0.0,0.0,0.0,0.0,0.0,0.0,0.0,0.0,0.0,0.0,0.0,0.0,0.0,0.0,0.0,0.0,0.0,0.0,0.0,0.0,2.3567,2.4943,2.4539,2.2184,2.1248,1.9923,0.0,0.0,0.0,0.0,0.0,0.0,0.0,0.0,0.0,0.0,0.0,0.0,0.0,0.0,0.0,0.0,0.0,0.0,0.0,0.0,0.0,0.0,0.0,0.0,0.0,0.0,0.0,0.0,0.0,0.0,0.0,0.0,0.0,0.0,0.0,0.0,0.0,0.0,0.0,0.0,0.0,0.0,0.0,0.0,0.0,0.0,0.0,0.0,0.0,0.0,0.0,0.0,0.0,0.0,0.0,0.0,0.0,0.0,0.0,0.0,0.0,0.0,0.0,0.0,0.0,0.0,0.0,0.0,0.0,0.0,0.0,0.0,0.0,0.0,0.0,0.0,0.0,0.0,0.0,0.0,0.0,0.0,0.0,0.0,0.0,0.0,0.0,0.0,0.0,0.0,0.0,0.0,0.0,0.0,0.0,0.0,0.0,0.0,0.0,0.0,0.0,0.0,0.0,0.0,0.0,0.0,0.0,0.0,2.2913,2.509,2.7175,2.7242,2.5168,2.3429,2.1555,0.0,0.0,0.0,0.0,0.0,0.0,0.0,0.0,0.0,0.0,0.0,0.0,0.0,0.0,0.0,0.0,0.0,0.0,0.0,0.0,0.0,0.0,0.0,0.0,0.0,0.0,0.0,0.0,0.0,0.0,0.0,0.0,0.0,0.0,0.0,0.0,0.0,0.0,0.0,0.0,0.0,0.0,0.0,0.0,0.0,0.0,0.0,0.0,0.0,0.0,0.0,0.0,0.0,0.0,0.0,0.0,0.0,0.0,0.0,0.0,0.0,0.0,0.0,0.0,0.0,0.0,0.0,0.0,0.0,0.0,0.0,0.0,0.0,0.0,0.0,0.0,0.0,0.0,0.0,0.0,0.0,0.0,0.0,0.0,0.0,0.0,0.0,0.0,0.0,0.0,0.0,0.0,0.0,0.0,0.0,0.0,0.0,0.0,0.0,0.0,0.0,0.0,0.0,0.0,0.0,0.0,0.0,0.0,2.4136,2.6453,2.8551,2.9236,2.8286,2.5569,2.3094,0.0,0.0,0.0,0.0,0.0,0.0,0.0,0.0,0.0,0.0,0.0,0.0,0.0,0.0,0.0,0.0,0.0,0.0,0.0,0.0,0.0,0.0,0.0,0.0,0.0,0.0,0.0,0.0,0.0,0.0,0.0,0.0,0.0,0.0,0.0,0.0,0.0,0.0,0.0,0.0,0.0,0.0,0.0,0.0,0.0,0.0,0.0,0.0,0.0,0.0,0.0,0.0,0.0,0.0,0.0,0.0,0.0,0.0,0.0,0.0,0.0,0.0,0.0,0.0,0.0,0.0,0.0,0.0,0.0,0.0,0.0,0.0,0.0,0.0,0.0,0.0,0.0,0.0,0.0,0.0,0.0,0.0,0.0,0.0,0.0,0.0,0.0,0.0,0.0,0.0,0.0,0.0,0.0,0.0,0.0,0.0,0.0,0.0,0.0,0.0,0.0,0.0,0.0,0.0,0.0,0.0,0.0,0.0,2.479,2.6921,2.9282,3.01,2.9262,2.7014,2.4793,0.0,0.0,0.0,0.0,0.0,0.0,0.0,0.0,0.0,0.0,0.0,0.0,0.0,0.0,0.0,0.0,0.0,0.0,0.0,0.0,0.0,0.0,0.0,0.0,0.0,0.0,0.0,0.0,0.0,0.0,0.0,0.0,0.0,0.0,0.0,0.0,0.0,0.0,0.0,0.0,0.0,0.0,0.0,0.0,0.0,0.0,0.0,0.0,1.8036,0.0,0.0,0.0,0.0,0.0,0.0,0.0,0.0,0.0,0.0,0.0,0.0,0.0,0.0,0.0,0.0,0.0,0.0,0.0,0.0,0.0,0.0,0.0,0.0,0.0,0.0,0.0,0.0,0.0,0.0,0.0,0.0,0.0,0.0,0.0,0.0,0.0,0.0,0.0,0.0,0.0,0.0,0.0,0.0,0.0,0.0,0.0,0.0,0.0,0.0,0.0,0.0,0.0,0.0,0.0,0.0,0.0,0.0,0.0,2.483,2.7169,2.9688,3.0648,2.9931,2.843,2.6333,0.0,0.0,0.0,0.0,0.0,0.0,0.0,0.0,0.0,0.0,0.0,0.0,0.0,0.0,0.0,0.0,0.0,0.0,0.0,0.0,0.0,0.0,0.0,0.0,0.0,0.0,0.0,0.0,0.0,0.0,0.0,0.0,0.0,0.0,0.0,0.0,0.0,0.0,0.0,0.0,0.0,0.0,0.0,0.0,0.0,0.0,0.0,0.0,0.0,0.0,0.0,0.0,0.0,0.0,0.0,0.0,0.0,0.0,0.0,0.0,0.0,0.0,0.0,0.0,0.0,0.0,0.0,0.0,0.0,0.0,0.0,0.0,0.0,0.0,0.0,0.0,0.0,0.0,0.0,0.0,0.0,0.0,0.0,0.0,0.0,0.0,0.0,0.0,0.0,0.0,0.0,0.0,0.0,0.0,0.0,0.0,0.0,0.0,0.0,0.0,0.0,0.0,0.0,0.0,0.0,0.0,0.0,2.1951,2.4449,2.6884,2.9477,3.0517,2.9944,2.8965,2.7071,2.4077,0.0,0.0,0.0,0.0,0.0,0.0,0.0,0.0,0.0,0.0,0.0,0.0,0.0,0.0,0.0,0.0,0.0,0.0,0.0,0.0,0.0,0.0,0.0,0.0,0.0,0.0,0.0,0.0,0.0,0.0,0.0,0.0,0.0,0.0,0.0,0.0,0.0,0.0,1.738,1.841,0.0,0.0,0.0,0.0,0.0,0.0,0.0,0.0,1.8891,0.0,0.0,0.0,0.0,0.0,0.0,0.0,0.0,0.0,0.0,0.0,0.0,0.0,0.0,0.0,0.0,0.0,0.0,0.0,0.0,0.0,0.0,0.0,0.0,0.0,0.0,0.0,0.0,0.0,0.0,0.0,0.0,0.0,0.0,0.0,0.0,0.0,0.0,0.0,0.0,0.0,0.0,0.0,0.0,0.0,0.0,0.0,0.0,0.0,0.0,0.0,0.0,0.0,0.0,0.0,0.0,1.8016,2.1179,2.3587,2.523,2.7687,2.8634,2.7907,2.6721,2.5108,2.3116,0.0,0.0,0.0,0.0,0.0,0.0,0.0,0.0,0.0,0.0,0.0,0.0,0.0,0.0,0.0,0.0,0.0,0.0,0.0,0.0,0.0,0.0,0.0,0.0,0.0,0.0,0.0,0.0,0.0,0.0,0.0,0.0,0.0,0.0,0.0,0.0,0.0,0.0,0.0,1.9397,1.997,0.0,0.0,0.0,0.0,0.0,0.0,0.0,0.0,1.9,0.0,0.0,0.0,0.0,0.0,0.0,0.0,0.0,0.0,0.0,0.0,0.0,0.0,0.0,0.0,0.0,0.0,0.0,0.0,0.0,0.0,0.0,0.0,0.0,0.0,0.0,0.0,0.0,0.0,0.0,0.0,0.0,0.0,0.0,0.0,0.0,0.0,0.0,0.0,0.0,0.0,0.0,0.0,0.0,0.0,0.0,0.0,0.0,0.0,0.0,0.0,0.0,0.0,0.0,0.0,1.7096,1.9706,2.1644,2.296,2.5089,2.5835,2.4865,2.3836,2.2435,0.0,0.0,0.0,0.0,0.0,0.0,0.0,0.0,0.0,0.0,0.0,0.0,0.0,0.0,0.0,0.0,0.0,0.0,0.0,0.0,0.0,0.0,0.0,0.0,0.0,0.0,0.0,0.0,0.0,0.0,0.0,0.0,0.0,0.0,0.0,0.0,0.0,0.0,0.0,0.0,2.0597,2.1277,2.1162,0.0,0.0,0.0,0.0,0.0,0.0,2.0454,1.9867,0.0,0.0,0.0,0.0,0.0,0.0,0.0,0.0,0.0,0.0,0.0,0.0,0.0,0.0,0.0,0.0,0.0,0.0,0.0,0.0,0.0,0.0,0.0,0.0,0.0,0.0,0.0,0.0,0.0,0.0,0.0,0.0,0.0,0.0,0.0,0.0,0.0,0.0,0.0,0.0,0.0,0.0,0.0,0.0,0.0,0.0,0.0,0.0,0.0,0.0,0.0,0.0,0.0,0.0,0.0,1.6098,1.8209,1.9768,2.0805,2.2552,2.3001,2.2019,2.1028,1.9812,0.0,0.0,0.0,0.0,0.0,0.0,0.0,0.0,0.0,0.0,0.0,0.0,0.0,0.0,0.0,0.0,0.0,0.0,0.0,0.0,0.0,0.0,0.0,0.0,0.0,0.0,0.0,0.0,0.0,0.0,0.0,0.0,0.0,0.0,0.0,0.0,0.0,0.0,0.0,0.0,0.0,2.2505,2.2365,2.1897,0.0,0.0,0.0,0.0,2.171,2.1683,0.0,0.0,0.0,0.0,0.0,0.0,0.0,0.0,0.0,0.0,0.0,0.0,0.0,0.0,0.0,0.0,0.0,0.0,0.0,0.0,0.0,0.0,0.0,0.0,0.0,0.0,0.0,0.0,0.0,0.0,0.0,0.0,0.0,0.0,0.0,0.0,0.0,0.0,0.0,0.0,0.0,0.0,0.0,0.0,0.0,0.0,0.0,0.0,0.0,0.0,0.0,0.0,0.0,0.0,0.0,0.0,1.4927,1.7305,1.8822,1.9454,2.0686,2.0987,2.0205,1.8954,1.78,0.0,0.0,0.0,0.0,0.0,0.0,0.0,0.0,0.0,0.0,0.0,0.0,0.0,0.0,0.0,0.0,0.0,0.0,0.0,0.0,0.0,0.0,0.0,0.0,0.0,0.0,0.0,0.0,0.0,0.0,0.0,0.0,0.0,0.0,0.0,0.0,0.0,0.0,0.0,0.0,0.0,2.33,2.3562,2.3287,2.3166,0.0,0.0,2.3233,2.3768,2.3634,0.0,0.0,0.0,0.0,0.0,0.0,0.0,0.0,0.0,0.0,0.0,0.0,0.0,0.0,0.0,0.0,0.0,0.0,0.0,0.0,0.0,0.0,0.0,0.0,0.0,0.0,0.0,0.0,0.0,0.0,0.0,0.0,0.0,0.0,0.0,0.0,0.0,0.0,0.0,0.0,0.0,0.0,0.0,0.0,0.0,0.0,0.0,0.0,0.0,0.0,0.0,0.0,0.0,0.0,0.0,1.2905,1.4373,1.6226,1.7343,1.7681,1.8242,1.813,1.7224,1.6246,1.5295,0.0,0.0,0.0,0.0,0.0,0.0,0.0,0.0,0.0,0.0,0.0,0.0,0.0,0.0,0.0,0.0,0.0,0.0,0.0,0.0,0.0,0.0,0.0,0.0,0.0,0.0,0.0,0.0,0.0,0.0,0.0,0.0,0.0,0.0,0.0,0.0,0.0,0.0,0.0,0.0,0.0,0.0,2.4967,2.4941,0.0,0.0,0.0,2.4943,2.5384,0.0,0.0,0.0,0.0,0.0,0.0,0.0,0.0,0.0,0.0,0.0,0.0,0.0,0.0,0.0,0.0,0.0,0.0,0.0,0.0,0.0,0.0,0.0,0.0,0.0,0.0,0.0,0.0,0.0,0.0,0.0,0.0,0.0,0.0,0.0,0.0,0.0,0.0,0.0,0.0,0.0,0.0,0.0,0.0,0.0,0.0,0.0,0.0,0.0,0.0,0.0,0.0,0.0,0.0,0.0,0.0,0.0,1.4116,1.5676,1.653,1.6639,1.6696,1.6381,1.5486,1.4751,0.0,0.0,0.0,0.0,0.0,0.0,0.0,0.0,0.0,0.0,0.0,0.0,0.0,0.0,0.0,0.0,0.0,0.0,0.0,0.0,0.0,0.0,0.0,0.0,0.0,0.0,0.0,1.532,0.0,0.0,0.0,0.0,0.0,0.0,0.0,0.0,0.0,0.0,0.0,0.0,0.0,0.0,2.5478,2.6319,2.6693,2.6854,0.0,0.0,2.6961,2.7134,2.7468,2.7108,0.0,0.0,0.0,0.0,0.0,0.0,0.0,0.0,0.0,0.0,0.0,0.0,0.0,0.0,0.0,0.0,0.0,0.0,0.0,0.0,0.0,0.0,0.0,0.0,0.0,0.0,0.0,0.0,0.0,0.0,0.0,0.0,0.0,0.0,0.0,0.0,0.0,0.0,0.0,0.0,0.0,0.0,0.0,0.0,0.0,0.0,0.0,0.0,0.0,0.0,0.0,0.0,0.0,0.0,0.0,1.4285,1.6035,1.6937,1.6951,1.6958,1.6734,1.6239,1.5418,1.4448,0.0,0.0,0.0,0.0,0.0,0.0,0.0,0.0,0.0,0.0,0.0,0.0,0.0,0.0,0.0,0.0,0.0,0.0,0.0,0.0,0.0,0.0,0.0,0.0,0.0,0.0,0.0,0.0,0.0,0.0,0.0,0.0,0.0,0.0,0.0,0.0,0.0,0.0,0.0,0.0,0.0,2.6854,2.7495,2.8537,2.9152,0.0,0.0,2.9303,2.9272,2.9072,2.8323,2.656,0.0,0.0,0.0,0.0,0.0,0.0,0.0,0.0,0.0,0.0,0.0,0.0,0.0,0.0,0.0,0.0,0.0,0.0,0.0,0.0,0.0,0.0,0.0,0.0,0.0,0.0,0.0,0.0,0.0,0.0,0.0,0.0,0.0,0.0,0.0,0.0,0.0,0.0,0.0,0.0,0.0,0.0,0.0,0.0,0.0,0.0,0.0,0.0,0.0,0.0,0.0,0.0,0.0,1.3044,1.4518,1.6246,1.7154,1.7249,1.7344,1.7081,1.654,1.6069,1.5166,0.0,0.0,0.0,0.0,0.0,0.0,0.0,0.0,0.0,0.0,0.0,0.0,0.0,0.0,0.0,0.0,0.0,0.0,0.0,0.0,0.0,0.0,0.0,0.0,0.0,0.0,0.0,0.0,1.7436,1.7476,1.7448,0.0,0.0,0.0,0.0,0.0,0.0,0.0,0.0,0.0,0.0,2.847,2.9232,3.0341,0.0,0.0,3.1062,3.1229,3.0635,3.0314,2.9459,2.7509,2.5197,0.0,0.0,0.0,0.0,0.0,0.0,0.0,0.0,0.0,0.0,0.0,0.0,0.0,0.0,0.0,0.0,0.0,0.0,0.0,0.0,0.0,0.0,0.0,0.0,0.0,0.0,0.0,0.0,0.0,0.0,0.0,0.0,0.0,0.0,0.0,0.0,0.0,0.0,0.0,0.0,0.0,0.0,0.0,0.0,0.0,0.0,0.0,0.0,0.0,0.0,0.0,0.0,1.3166,1.4748,1.6469,1.7331,1.7433,1.7636,1.7446,1.6904,1.6598,1.5757,0.0,0.0,0.0,0.0,0.0,0.0,0.0,0.0,0.0,0.0,0.0,0.0,0.0,0.0,0.0,0.0,0.0,0.0,0.0,0.0,0.0,0.0,0.0,0.0,0.0,0.0,0.0,0.0,1.8463,1.829,1.7903,0.0,0.0,0.0,0.0,0.0,0.0,0.0,0.0,0.0,0.0,2.9646,3.0667,3.1791,3.2425,3.2225,3.2532,3.2505,3.1623,3.1036,3.0092,2.8257,0.0,0.0,0.0,0.0,0.0,0.0,0.0,0.0,0.0,0.0,0.0,0.0,0.0,0.0,0.0,0.0,0.0,0.0,0.0,0.0,0.0,0.0,0.0,0.0,0.0,0.0,0.0,0.9242,0.0,0.0,0.8995,0.0,0.0,0.0,0.0,0.0,0.0,0.0,0.0,0.0,0.0,0.0,0.0,0.0,0.0,0.0,0.0,0.0,0.0,0.0,0.0,0.0,0.0,1.3315,1.5003,1.6682,1.7588,1.7595,1.7785,1.7704,1.7202,1.6904,1.606,1.4701,0.0,0.0,0.0,0.0,0.0,0.0,0.0,0.0,0.0,0.0,0.0,0.0,0.0,0.0,0.0,0.0,0.0,0.0,0.0,0.0,0.0,0.0,0.0,0.0,0.0,0.0,1.9679,1.9492,1.9078,0.0,0.0,0.0,0.0,0.0,0.0,0.0,0.0,0.0,0.0,2.8404,3.0327,3.1524,3.2639,3.3374,3.3374,3.3387,3.3093,3.2198,3.1116,3.0012,0.0,0.0,0.0,0.0,0.0,0.0,0.0,0.0,0.0,0.0,0.0,0.0,0.0,0.0,0.0,0.0,0.0,0.0,0.0,0.0,0.0,0.0,0.0,0.0,0.0,0.0,0.0,1.0724,1.0512,0.0,0.0,0.0,0.0,0.0,0.0,0.0,0.0,0.0,0.0,0.0,1.3912,1.3865,0.0,0.0,0.0,0.0,0.0,0.0,0.0,0.0,0.0,0.0,0.0,0.0,1.3656,1.5255,1.7032,1.7941,1.7948,1.8186,1.8097,1.765,1.7446,1.6385,1.4509,0.0,0.0,0.0,0.0,0.0,0.0,0.0,0.0,0.0,0.0,0.0,0.0,0.0,0.0,0.0,0.0,0.0,0.0,0.0,0.0,0.0,0.0,0.0,0.0,0.0,2.008,0.0,0.0,0.0,0.0,0.0,0.0,0.0,0.0,0.0,0.0,0.0,2.5531,2.7589,2.9553,3.1142,3.2166,3.3477,3.4242,0.0,0.0,0.0,0.0,0.0,0.0,0.0,0.0,0.0,0.0,0.0,0.0,0.0,0.0,2.8179,2.6814,2.6479,2.6412,2.6412,0.0,0.0,0.0,0.0,0.0,0.0,0.0,0.0,0.0,0.0,0.0,0.0,0.0,0.0,1.2298,0.0,1.1599,0.0,0.0,0.0,0.0,0.0,0.0,0.0,0.0,1.4916,1.5479,1.5627,1.5729,1.5852,0.0,1.5642,1.4611,0.0,0.0,0.0,0.0,0.0,0.0,0.0,0.0,1.3919,1.5554,1.7229,1.8118,1.8179,1.8409,1.8342,1.7955,1.7602,1.6581,1.497,1.381,1.2603,0.0,0.0,0.0,0.0,0.0,0.0,0.0,0.0,0.0,0.0,0.0,0.0,0.0,0.0,0.0,0.0,0.0,0.0,0.0,0.0,0.0,0.0,0.0,2.1203,0.0,0.0,0.0,0.0,0.0,0.0,0.0,0.0,0.0,2.4205,2.5837,2.7642,2.9299,3.0862,3.2198,3.3236,0.0,0.0,0.0,0.0,0.0,0.0,0.0,3.0975,3.0354,2.9985,2.9918,3.0488,3.1156,3.1797,3.2358,0.0,0.0,3.0574,3.0092,2.998,3.0025,3.0025,2.9958,2.9726,3.0167,3.0675,0.0,0.0,0.0,0.0,0.0,0.0,0.0,0.0,1.4268,1.3994,0.0,1.3051,0.0,0.0,0.0,0.0,0.0,1.2996,0.0,0.0,1.6585,1.7304,1.7453,1.7717,1.7799,1.7615,1.7426,1.6944,1.5995,1.3756,0.0,0.0,0.0,0.0,0.0,0.0,1.4238,1.5901,1.7351,1.8179,1.8328,1.847,1.8403,1.8104,1.7405,1.6748,1.613,1.512,1.4021,1.2854,1.238,0.0,0.0,0.0,0.0,0.0,0.0,0.0,0.0,0.0,0.0,0.0,0.0,0.0,0.0,0.0,0.0,0.0,0.0,0.0,0.0,2.2732,0.0,0.0,0.0,0.0,0.0,0.0,0.0,0.0,0.0,0.0,2.6774,2.811,2.9628,3.1056,0.0,0.0,0.0,0.0,3.5765,3.6032,3.5845,3.5311,3.4496,3.34,3.2701,3.2714,0.0,0.0,3.4269,3.4696,3.4936,3.4949,3.5364,3.5364,3.4242,3.3654,3.3414,3.339,3.3387,3.3467,3.3497,3.3788,3.4322,1.649,0.0,0.0,0.0,0.0,1.5479,1.5947,1.6347,1.6096,1.5823,1.56,1.495,0.0,0.0,0.0,0.0,0.0,0.0,1.5425,1.6503,1.7521,1.807,1.8219,1.8409,1.8423,1.821,1.8023,1.7656,1.7161,1.5967,1.4428,1.2642,0.0,0.0,0.0,0.0,1.4848,1.6178,1.765,1.8423,1.8413,1.862,1.8606,1.8409,1.7887,1.748,1.7149,1.6293,1.5391,1.4509,1.3548,0.0,0.0,0.0,0.0,0.0,0.0,0.0,0.0,0.0,0.0,0.0,0.0,0.0,0.0,0.0,0.0,0.0,0.0,0.0,2.2751,2.3387,2.3331,0.0,0.0,0.0,0.0,0.0,0.0,0.0,0.0,0.0,3.1009,3.139,3.1851,0.0,0.0,3.4215,3.4963,3.5752,3.6286,3.638,3.6487,0.0,3.5672,3.511,3.4817,3.5083,3.5752,3.6633,3.7552,3.7662,3.7649,3.7836,3.7863,3.7716,3.7368,3.6206,3.5391,3.5311,3.5311,3.5378,3.5591,3.5939,3.634,1.8531,1.6997,1.6775,1.6768,1.6924,1.7453,1.7968,1.8416,1.8186,1.794,1.7799,1.7005,1.6266,1.5594,1.4997,0.0,0.0,0.0,1.668,1.7541,1.8375,1.881,1.8898,1.9101,1.9094,1.8877,1.8647,1.8382,1.8084,1.7514,1.6435,1.4841,0.0,0.0,1.3806,1.4656,1.5574,1.6659,1.7894,1.8501,1.862,1.8715,1.8721,1.862,1.8301,1.8063,1.7859,1.7168,1.6429,1.5737,1.4631,1.3505,0.0,0.0,0.0,0.0,0.0,0.0,0.0,0.0,0.0,0.0,0.0,1.5393,1.5649,0.0,0.0,0.0,1.9102,2.0864,2.2507,2.366,0.0,0.0,0.0,0.0,0.0,0.0,0.0,2.8967,3.1426,3.332,3.4242,3.4574,3.4549,3.4322,3.4858,3.5525,3.5992,0.0,3.7208,3.7195,3.7448,3.7475,3.7021,3.6687,3.6633,3.7061,3.7782,3.8531,3.9127,3.9185,3.9145,3.9252,3.9185,3.9065,3.9078,3.817,3.7382,3.7181,3.7221,3.7355,3.7472,3.7796,3.8103,2.0058,1.9732,1.8911,1.8681,1.8905,1.9332,1.9786,2.0376,2.0227,2.0085,1.9881,1.9027,1.8244,1.7609,1.67,0.0,1.6872,1.7351,1.786,1.8457,1.9096,1.9488,1.9495,1.9773,1.9752,1.9461,1.9298,1.9074,1.8847,1.8491,1.8063,1.7467,1.5574,1.4787,1.5173,1.5724,1.6432,1.7243,1.8104,1.862,1.882,1.882,1.882,1.882,1.8626,1.8484,1.8348,1.7744,1.7229,1.6653,1.5655,1.4624,1.3593,0.0,0.0,0.0,0.0,0.0,0.0,0.0,0.0,0.0,0.0,0.0,0.0,0.0,0.0,0.0,1.8368,0.0,2.1788,2.362,0.0,0.0,0.0,2.3059,2.452,2.5867,2.7694,3.0366,0.0,0.0,3.6347,3.7144,3.7227,3.591,3.6524,3.7248,3.7515,3.8093,3.8455,3.8397,3.8664,3.8758,3.8535,3.8223,3.8223,3.8718,3.902,3.9359,3.9626,3.968,3.9666,3.968,3.9666,3.9666,3.9666,3.9586,3.9506,3.8958,3.894,3.9087,3.9087,3.9332,3.9506,2.119,2.1001,2.0726,2.0343,1.9813,2.0139,2.0553,2.098,2.0845,2.0702,2.0512,1.9847,1.9101,1.8244,1.7948,1.7968,1.8294,1.8518,1.8877,1.9359,1.9752,1.9942,1.9949,2.0132,2.0064,1.9766,1.9501,1.9278,1.9088,1.8803,1.8525,1.8247,1.7656,1.7012,1.6317,1.6693,1.7201,1.7752,1.8362,1.8728,1.882,1.882,1.882,1.882,1.8786,1.8694,1.8654,1.8301,1.7989,1.7711,1.672,1.573,1.4801,1.3629,0.0,0.0,0.0,0.0,0.0,0.0,0.0,0.0,0.0,1.4447,1.5039,0.0,1.6132,0.0,1.7955,1.9552,2.1115,2.3399,0.0,0.0,2.3483,2.3877,2.4564,2.5814,2.7558,2.9891,3.2432,3.4426,3.5484,3.6372,3.6949,3.6878,3.8039,3.8998,3.9078,3.9372,3.9613,3.9553,3.9813,4.0027,3.9907,3.9893,3.9853,4.004,4.0107,4.0187,4.0254,4.0267,4.0267,4.0267,4.0267,4.0267,4.0254,4.0267,4.0308,4.0321,3.992,3.9559,3.9714,3.9834,4.0,2.1713,2.1638,2.1638,2.1387,2.1001,2.1095,2.1353,2.1699,2.1557,2.1408,2.1231,2.0634,2.0058,1.9529,1.9305,1.9305,1.9461,1.9474,1.9624,1.9861,2.0031,2.0098,2.0105,2.0187,2.0071,1.9773,1.9474,1.9284,1.9189,1.8963,1.8782,1.8823,1.8749,1.8423,1.7867,1.7806,1.7941,1.8317,1.8779,1.9017,1.8952,1.8898,1.8888,1.882,1.8694,1.8599,1.847,1.824,1.805,1.788,1.7019,1.6205,1.5554,1.4377,1.3105,0.0,0.0,0.0,0.0,0.0,0.0,0.0,0.0,0.0,0.0,0.0,1.5647,1.5969,1.6864,1.8129,1.9782,2.2169,2.3421,2.2977,2.3241,2.3589,2.3982,2.4928,2.6295,2.8243,3.0543,3.2464,3.3707,3.5214,3.622,3.638,3.725,3.8044,3.8581,3.899,3.9246,3.956,4.01,4.0481,4.0481,4.0481,4.0481,4.0481,4.0481,4.0481,4.0481,4.0481,4.0481,4.0481,4.0481,4.0481,4.0481,4.0481,4.0575,4.0762,4.0535,4.0334,4.0501,4.0554,4.0682,2.195,2.1916,2.1937,2.2032,2.216,2.2025,2.2113,2.2261,2.2194,2.2032,2.1821,2.1292,2.0953,2.0756,2.0478,2.0286,2.0322,2.0173,2.0112,2.0132,2.0153,2.0166,2.0187,2.0207,2.0051,1.9739,1.9434,1.9264,1.9223,1.8972,1.8986,1.925,1.9298,1.9318,1.9298,1.8925,1.8762,1.8823,1.9067,1.9203,1.9196,1.9067,1.8918,1.8827,1.8593,1.8362,1.807,1.7901,1.7751,1.7548,1.6885,1.6354,1.5969,1.4964,1.3892,0.0,1.2535,0.0,0.0,0.0,0.0,0.0,0.0,0.0,0.0,1.4843,1.5174,1.5601,1.5956,1.6816,1.8468,2.0666,2.2041,2.2275,2.2521,2.2769,2.309,2.3631,2.4606,2.6093,2.8184,3.0127,3.1519,3.3651,3.504,3.4794,3.4894,3.538,3.643,3.7229,3.7971,3.8743,3.9824,4.0481,4.0481,4.0481,4.0481,4.0481,4.0481,4.0481,4.0481,4.0481,4.0481,4.0481,4.0521,4.0535,4.0535,4.0575,4.0695,4.1002,4.1029,4.1056,4.1154,4.1194,4.1274,2.2283,2.2079,2.2201,2.2337,2.2466,2.2439,2.2391,2.2337,2.231,2.2079,2.1699,2.1462,2.1136,2.0834,2.058,2.0438,2.0322,2.0166,2.0166,2.0288,2.034,2.0526,2.0648,2.0777,2.0614,2.02,1.9895,1.9624,1.9386,1.9332,1.9393,1.9576,1.9813,1.9929,1.9929,0.0,0.0,0.0,1.9176,1.9203,1.9196,1.9067,1.8918,1.882,1.8498,0.0,1.7914,1.765,1.7487,1.7446,1.6926,0.0,0.0,0.0,0.0,0.0,0.0,0.0,0.0,0.0,0.0,0.0,1.6069,1.6191,1.5832,1.6194,1.6503,1.6829,1.7127,1.773,1.8832,2.0611,2.1603,2.1361,2.1875,2.2234,2.2153,2.2678,2.3507,2.4595,2.6061,2.7516,2.9062,3.1184,3.2318,3.1776,3.2204,3.2422,3.2088,3.4329,3.6357,3.7615,3.9214,4.0421,4.0481,4.0421,4.0238,4.0481,4.0481,4.0421,4.036,4.0421,4.0481,4.0421,4.0668,4.0815,4.0829,4.1016,4.1229,4.1563,4.1603,4.1563,4.1314,4.1274,4.1274,2.0324,2.0214,2.0212,2.0349,0.0,2.0404,2.0367,2.0376,2.1847,2.2235,2.1869,2.157,2.1231,2.0865,2.0492,2.0207,1.999,1.9759,1.978,2.001,2.0227,2.0444,2.0661,2.0892,2.0804,2.0424,2.0051,1.9793,1.9651,1.9501,1.9542,1.9827,1.999,2.0098,2.0098,2.0098,1.9949,1.9651,1.9644,1.9644,1.9637,1.9434,1.9269,1.8979,1.862,0.0,0.0,0.0,0.0,0.0,0.0,0.0,0.0,0.0,0.0,1.4882,1.4841,1.4774,1.4704,1.5384,1.6137,1.6809,1.7609,1.7826,1.7229,1.7399,1.765,1.7941,1.8179,1.8578,1.9296,2.0264,2.0731,2.0601,2.1067,2.1276,2.1247,2.1593,2.2123,2.2573,2.3177,2.4127,2.563,2.7587,2.8664,2.8504,2.8673,2.8807,2.8744,3.1319,3.4278,3.6588,3.7776,3.8509,3.8521,3.8509,3.8509,3.8509,3.8509,3.8509,3.8509,3.8813,3.9131,3.9448,3.9975,4.0466,4.0861,4.1136,4.1368,4.171,4.179,4.1804,4.175,4.1777,4.1764,1.7005,1.6985,1.7005,1.701,1.701,1.701,1.7147,1.7618,0.0,0.0,0.0,2.1652,2.138,2.1041,2.0505,2.0098,1.98,1.9501,1.9522,1.9827,2.0126,2.0404,2.0668,2.0973,2.0946,2.0614,2.022,2.001,1.9949,1.9705,1.9712,1.9949,2.0105,2.018,2.018,2.018,2.018,2.0173,2.0126,2.0098,2.0092,1.9813,1.9529,1.925,1.8782,1.8217,1.7697,1.7622,1.7534,1.7412,1.7344,1.7283,1.7297,1.6958,1.6592,1.6303,1.6354,1.6395,1.6357,1.6917,1.75,1.7968,1.8708,1.8952,1.8511,1.8504,1.8626,1.8956,1.9061,1.9298,1.9725,1.9888,1.9976,2.0132,2.0363,2.0505,2.058,2.0797,2.1055,2.098,2.1072,2.1367,2.2823,2.4549,2.5478,2.5538,2.5695,2.5464,2.5867,2.8609,3.1857,3.4536,3.5152,3.5348,3.541,3.5348,3.5421,3.5348,3.5348,3.5421,3.5533,3.6097,3.6894,3.7812,3.8812,3.9904,4.077,4.1296,4.1563,4.1817,4.1871,4.1924,4.2151,4.2218,4.2191,1.248,1.2357,1.2495,1.2521,1.2521,1.2521,1.3207,1.4638,1.871,2.0784,2.1217,2.1772,2.1781,2.1294,2.1021,2.0709,2.0404,2.0112,2.0139,2.0431,2.0729,2.096,2.1129,2.1435,2.1353,2.0946,2.0736,2.0519,2.0282,2.022,2.0227,2.0275,2.0347,2.0415,2.0478,2.0415,2.0415,2.0471,2.0234,2.0098,2.0092,1.9875,1.9576,1.9326,1.8785,1.8375,1.8043,1.7792,1.7588,1.7561,1.7541,1.7636,1.7758,1.7765,1.7697,1.765,1.7724,1.786,1.7962,1.8314,1.8762,1.9318,1.9671,1.9556,1.9128,1.9196,1.9345,1.9522,1.9664,1.9827,1.9854,2.0003,2.0159,2.0282,2.0336,2.0458,2.0709,2.0783,2.0872,2.0994,2.0987,2.1233,2.2118,2.354,2.4243,2.3884,2.3997,2.4181,2.4309,2.6267,2.8798,3.0771,3.1329,3.1329,3.1464,3.1329,3.1464,3.134,3.1464,3.1526,3.1526,3.2527,3.3886,3.5608,3.726,3.9071,4.0774,4.1737,4.1941,4.2061,4.2124,4.2165,4.2218,4.2218,4.2218,0.9072,0.9053,0.9077,0.9088,0.9088,0.9088,0.9923,1.1446,1.4658,1.7552,2.0053,2.1426,2.1909,2.1543,2.117,2.0831,2.0526,2.0234,2.0261,2.0489,2.0858,2.1116,2.134,2.1564,2.1564,2.1353,2.1123,2.0906,2.0702,2.0607,2.0526,2.0388,2.0449,2.0539,2.0539,2.0539,2.0539,2.0539,2.0347,2.0343,2.0336,2.0132,1.9949,1.9793,1.9284,1.8877,1.8586,1.8369,1.8213,1.8075,1.8206,1.828,1.8405,1.8412,1.8405,1.8412,1.8498,1.8606,1.8681,1.904,1.944,1.9861,2.0037,2.0037,1.9772,1.982,1.9914,2.0126,2.0268,2.0397,2.0478,2.0546,2.0614,2.0682,2.0689,2.075,2.0865,2.0899,2.0953,2.1082,2.1048,2.1192,2.1611,2.2267,2.2623,2.2345,2.2442,2.229,2.1979,2.2926,2.4866,2.7673,2.8361,2.8424,2.8361,2.8361,2.8361,2.8361,2.8361,2.8361,2.8486,2.9484,3.1102,3.3055,3.5185,3.7513,3.9771,4.1064,4.1632,4.2155,4.2218,4.2218,4.2218,4.2218,4.2218,0.539,0.539,0.539,0.539,0.5463,0.539,0.6246,0.7733,1.0018,1.3082,1.6667,1.9752,2.109,2.1,2.0831,2.0657,2.052,2.0455,2.0546,2.0811,2.1075,2.1326,2.1536,2.1665,2.1699,2.1645,2.1394,2.119,2.1048,2.0892,2.0729,2.0496,2.0539,2.0539,2.0539,2.0539,2.0539,2.0539,2.0539,2.0539,2.0469,2.034,2.0275,2.0139,1.9746,1.942,1.9203,1.9106,1.8911,1.8803,1.8898,1.9038,1.9072,1.9013,1.9027,1.9067,1.9176,1.9244,1.9264,1.9624,1.9956,2.018,2.0376,2.0485,2.0485,2.0449,2.0539,2.06,2.0716,2.0858,2.0939,2.098,2.1001,2.1001,2.1001,2.1001,2.1041,2.1048,2.1102,2.1218,2.1163,2.1197,2.1287,2.134,2.1351,2.1338,2.1136,2.0892,2.0614,2.0539,2.1984,2.4063,2.5189,2.5126,2.5189,2.5189,2.5126,2.5252,2.5189,2.5063,2.5315,2.6258,2.788,2.9845,3.2362,3.5159,3.7974,3.978,4.0949,4.1838,4.2218,4.2218,4.2218,4.2298,4.2285,0.0,0.0657,0.0,0.0657,0.0,0.0,0.1676,0.3275,0.5348,0.7246,0.9751,1.5543,1.8527,1.9125,1.9559,2.0007,2.0603,2.1056,2.1401,2.1557,2.1726,2.1815,2.1835,2.1855,2.1794,2.1672,2.1496,2.1274,2.1177,2.1041,2.0831,2.051,2.0539,2.0489,2.0546,2.0483,2.0546,2.0483,2.0539,2.0539,2.0469,2.0404,2.0322,2.0309,1.9997,1.982,1.9841,1.9657,1.963,1.9623,1.9556,1.9691,1.98,1.9766,1.9827,1.9942,1.9976,1.9997,2.001,2.0282,2.0395,2.0455,2.0763,2.0912,2.0926,2.1041,2.1007,2.0851,2.0899,2.1001,2.1001,2.1014,2.1021,2.1041,2.1014,2.1048,2.1157,2.119,2.1252,2.1401,2.136,2.1341,2.1355,2.1348,2.1247,2.1109,2.1048,2.0892,2.0607,2.0539,2.0539,2.1167,2.1167,2.1294,2.1421,2.1104,2.1611,2.1421,2.1231,2.1548,2.2048,2.2744,2.3874,2.6653,2.8898,3.2204,3.5548,3.8089,3.9831,4.1204,4.1775,4.2155,4.2245,4.2392,4.2445,0.0,0.0,0.0,0.0,0.0,0.0,0.0657,0.1823,0.3561,0.4915,0.6246,0.9834,1.297,1.565,1.7183,1.8519,1.9723,2.1242,2.2004,2.2065,2.2127,2.2154,2.2147,2.2059,2.1943,2.1794,2.1645,2.1448,2.1224,2.1068,2.0933,2.0824,2.0817,2.0811,2.0817,2.0811,2.0817,2.0811,2.0811,2.0811,2.0783,2.051,2.0499,2.0553,2.0302,2.0187,2.0234,2.0051,1.9922,1.9922,1.9922,1.9949,2.0003,2.0003,2.0031,2.0098,2.0098,2.018,2.0286,2.0478,2.0621,2.0797,2.0926,2.1001,2.1007,2.1129,2.115,2.1075,2.117,2.1258,2.1252,2.1177,2.1157,2.1211,2.1109,2.1062,2.1197,2.1143,2.1143,2.1279,2.1306,2.1346,2.1348,2.1375,2.1313,2.1075,2.1001,2.0885,2.0607,2.0539,2.0539,2.0539,2.0539,2.0539,2.0539,2.0539,2.0539,2.0539,2.0539,2.0539,2.0666,2.1301,2.2562,2.4118,2.6571,2.959,3.3301,3.5412,3.7275,3.913,4.0696,4.1141,4.1534,4.2071,4.2261,0.0,0.0,0.0,0.0,0.0,0.0,0.0365,0.0948,0.2042,0.2833,0.3392,0.4522,0.697,1.0474,1.3843,1.6333,1.795,2.0041,2.1224,2.1362,2.1576,2.1784,2.1971,2.2044,2.2052,2.193,2.1753,2.1509,2.1231,2.1116,2.1041,2.1007,2.1001,2.1001,2.1001,2.1001,2.1001,2.1001,2.1001,2.1001,2.0973,2.0783,2.0722,2.0804,2.0627,2.056,2.0591,2.0465,2.0349,2.0349,2.0349,2.0349,2.0349,2.0349,2.0349,2.0349,2.0349,2.0438,2.0591,2.0679,2.0885,2.1095,2.1184,2.1224,2.1211,2.1279,2.1313,2.1279,2.1307,2.1362,2.1355,2.134,2.1333,2.1408,2.1231,2.117,2.1258,2.1177,2.1177,2.1258,2.1306,2.1313,2.1348,2.1362,2.134,2.1123,2.1062,2.098,2.0743,2.0675,2.0675,2.0661,2.0641,2.0587,2.0553,2.0539,2.0539,2.0539,2.0539,2.0539,2.0539,2.1047,2.1365,2.264,2.474,2.6846,2.9567,3.1859,3.4216,3.6314,3.8063,3.945,4.0353,4.1331,4.1988,0.0,0.0,0.0,0.0,0.0,0.0,0.0,0.0,0.0,0.0,0.0,0.0,0.1294,0.3495,0.957,1.3212,1.4818,1.6919,1.8377,1.8996,1.9833,2.0526,2.128,2.1838,2.2106,2.2059,2.1828,2.155,2.1258,2.1224,2.1129,2.1028,2.1055,2.1028,2.1048,2.1055,2.1014,2.1055,2.1041,2.1021,2.1014,2.0994,2.0987,2.1007,2.0973,2.0946,2.0967,2.096,2.0939,2.0953,2.0919,2.0933,2.0946,2.0939,2.0919,2.0933,2.0939,2.0946,2.0994,2.1204,2.1307,2.1375,2.1625,2.176,2.1591,2.1591,2.1543,2.1441,2.1362,2.1375,2.1375,2.1401,2.1401,2.1368,2.1355,2.1394,2.1348,2.1321,2.1348,2.1348,2.1341,2.1348,2.1368,2.1375,2.136,2.1238,2.1197,2.1129,2.0987,2.0953,2.0946,2.0919,2.0838,2.0716,2.058,2.0476,2.0539,2.0539,2.0539,2.0539,2.0539,2.0539,2.0666,2.1012,2.262,2.423,2.5943,2.8041,3.0531,3.2901,3.5435,3.7044,3.8391,4.0734,4.1493,0.0,0.0,0.0,0.0,0.0,0.0,0.0,0.0,0.0,0.0,0.0,0.0,0.0577,0.1726,0.5056,0.7915,1.034,1.258,1.423,1.5509,1.7165,1.8563,1.989,2.1448,2.2201,2.2099,2.2004,2.1848,2.1665,2.1638,2.1618,2.1577,2.1564,2.1564,2.155,2.1475,2.1428,2.1421,2.134,2.1285,2.1272,2.1279,2.1326,2.1408,2.115,2.1041,2.1129,2.1048,2.1001,2.1001,2.1001,2.1001,2.1001,2.1001,2.1001,2.1001,2.1001,2.1041,2.1143,2.126,2.1489,2.1591,2.1767,2.1828,2.1706,2.1665,2.1604,2.1482,2.1375,2.1375,2.1355,2.1353,2.1333,2.1341,2.136,2.1346,2.1348,2.1375,2.1375,2.1375,2.1375,2.1375,2.1375,2.1375,2.1307,2.1245,2.1211,2.1157,2.1048,2.1001,2.1021,2.1001,2.0953,2.0865,2.0709,2.0594,2.0483,2.0476,2.0539,2.0539,2.0539,2.0539,2.0603,2.0744,2.1612,2.2571,2.4501,2.5922,2.815,2.9984,3.2486,3.421,3.6179,3.7688,3.8947,0.0,0.0,0.0,0.0,0.0,0.0,0.0,0.0,0.0,0.0,0.0,0.0,0.029,0.0869,0.1874,0.3292,0.553,0.8336,1.0544,1.2094,1.4239,1.6124,1.7736,1.9833,2.0965,2.1151,2.1579,2.1759,2.1896,2.1882,2.1882,2.1876,2.1882,2.1882,2.1862,2.1787,2.172,2.1658,2.1564,2.1489,2.1382,2.1375,2.1516,2.1604,2.1374,2.1285,2.1421,2.1333,2.1285,2.1285,2.1285,2.1285,2.1285,2.1285,2.1285,2.1285,2.1292,2.1326,2.1428,2.157,2.1706,2.1808,2.1943,2.1957,2.1774,2.174,2.1645,2.1429,2.1375,2.1375,2.1355,2.1346,2.1267,2.1341,2.128,2.1326,2.1421,2.1368,2.1375,2.1375,2.1375,2.1375,2.1375,2.1375,2.1328,2.1292,2.1285,2.1238,2.117,2.1143,2.1143,2.1136,2.1109,2.1041,2.0912,2.0783,2.0607,2.0566,2.0539,2.0539,2.0539,2.0539,2.0553,2.063,2.1053,2.1811,2.2834,2.4174,2.5712,2.736,2.8864,3.0486,3.236,3.4186,3.5375,0.0,0.0,0.0,0.0,0.0,0.0,0.0,0.0,0.0,0.0,0.0,0.0,0.0,0.0,0.0,0.0,0.1358,0.4754,0.7258,0.8889,1.1054,1.2864,1.4396,1.6571,1.8238,1.9105,2.0326,2.1295,2.193,2.1937,2.193,2.1903,2.193,2.1943,2.1896,2.1896,2.1821,2.1733,2.1686,2.1604,2.1402,2.1475,2.1557,2.1686,2.1732,2.1726,2.1862,2.1848,2.1808,2.1821,2.1828,2.1869,2.1808,2.1808,2.1842,2.1808,2.1842,2.1855,2.1862,2.1977,2.2038,2.2079,2.2228,2.2174,2.1943,2.1882,2.1774,2.155,2.1402,2.1389,2.1475,2.1389,2.1441,2.1368,2.1348,2.1355,2.1368,2.1375,2.1375,2.1375,2.1375,2.1375,2.1375,2.1375,2.1355,2.1348,2.1341,2.1401,2.1307,2.136,2.1348,2.1321,2.1299,2.119,2.1089,2.0973,2.077,2.06,2.056,2.0539,2.0539,2.0539,2.058,2.06,2.0689,2.1384,2.1398,2.2603,2.2818,2.4259,2.5525,2.7192,2.89,3.0693,3.1794,0.0,0.0,0.0,0.0,0.0,0.0,0.0,0.0,0.0,0.0,0.0,0.0,0.0,0.0,0.0,0.0,0.0,0.1569,0.2904,0.4563,0.6676,0.8563,1.0147,1.2274,1.4719,1.724,1.895,2.0514,2.1851,2.2119,2.2201,2.2194,2.2188,2.2194,2.2181,2.2099,2.2011,2.1971,2.1869,2.1787,2.1747,2.174,2.1815,2.195,2.1971,2.2045,2.2174,2.1998,2.1889,2.1889,2.1882,2.1882,2.1882,2.1882,2.1882,2.1882,2.1882,2.1882,2.1903,2.2025,2.212,2.214,2.2255,2.2235,2.2079,2.2032,2.1943,2.1753,2.1665,2.1631,2.1706,2.1652,2.1564,2.1455,2.1375,2.1389,2.1395,2.1382,2.1375,2.1375,2.1375,2.1375,2.1375,2.1375,2.1375,2.1375,2.1375,2.1375,2.1375,2.1375,2.1368,2.1362,2.1367,2.1319,2.1211,2.1109,2.0953,2.0756,2.0661,2.056,2.0483,2.058,2.0614,2.0682,2.0763,2.0811,2.0824,2.1038,2.1452,2.2183,2.4013,2.5282,2.6212,2.7243,2.8295,0.0,0.0,0.0,0.0,0.0,0.0,0.0,0.0,0.0,0.0,0.0,0.0,0.0,0.0,0.0,0.0,0.0,0.0,0.05,0.1626,0.3742,0.5422,0.6862,0.9191,1.1924,1.4878,1.6898,1.9065,2.1438,2.1784,2.1991,2.2268,2.2344,2.2337,2.2268,2.2249,2.2174,2.2106,2.2018,2.1943,2.1889,2.1882,2.1957,2.2086,2.2113,2.2188,2.2241,2.2147,2.2052,2.2052,2.2052,2.2052,2.2052,2.2059,2.2052,2.2052,2.2052,2.2059,2.2059,2.2154,2.2194,2.2215,2.2289,2.2269,2.2147,2.2113,2.2045,2.1896,2.1753,2.1733,2.1828,2.1753,2.1652,2.1618,2.1611,2.1604,2.1597,2.1557,2.153,2.1523,2.1416,2.1382,2.1375,2.1375,2.1375,2.1375,2.1375,2.1375,2.1375,2.1375,2.1375,2.1375,2.1355,2.1301,2.1313,2.1224,2.1129,2.0953,2.079,2.0655,2.0503,2.0641,2.0689,2.0811,2.0906,2.0912,2.0919,2.0939,2.1298,2.2132,2.2733,2.3043,2.3689,2.3904,2.4829,0.0,0.0,0.0,0.0,0.0,0.0,0.0,0.0,0.0,0.0,0.0,0.0,0.0,0.0,0.0,0.0,0.0,0.0,0.0,0.0,0.2133,0.3537,0.4439,0.6823,0.9273,1.1707,1.4082,1.6875,1.9755,2.0639,2.1514,2.2226,2.2357,2.2344,2.2268,2.2337,2.2262,2.216,2.2127,2.2059,2.1943,2.193,2.2004,2.2154,2.2174,2.2242,2.2378,2.2378,2.235,2.2268,2.2303,2.2296,2.2323,2.2337,2.231,2.2296,2.233,2.231,2.2323,2.2303,2.2316,2.2316,2.2323,2.2214,2.2167,2.2147,2.2106,2.1971,2.1821,2.1787,2.1882,2.1815,2.1794,2.1882,2.1855,2.1842,2.1862,2.1753,2.1679,2.1638,2.1543,2.1382,2.1382,2.1375,2.1375,2.1375,2.1375,2.1375,2.1375,2.1375,2.1375,2.1375,2.1375,2.1355,2.1294,2.1333,2.1238,2.1102,2.0946,2.0831,2.0709,2.077,2.0845,2.0953,2.1041,2.1041,2.1062,2.1102,2.1109,2.1556,2.1535,2.1113,2.1383,2.2054,2.2598,0.0,0.0,0.0,0.0,0.0,0.0,0.0,0.0,0.0,0.0,0.0,0.0,0.0,0.0,0.0,0.0,0.0,0.0,0.0,0.0,0.0503,0.0933,0.1432,0.3135,0.5255,0.7658,1.0482,1.375,1.7622,1.8953,2.053,2.2493,2.2177,2.2205,2.2344,2.2268,2.2254,2.2283,2.2276,2.2262,2.2221,2.2208,2.2296,2.2418,2.2494,2.2506,2.2642,2.2669,2.2547,2.2357,2.2344,2.2344,2.2357,2.2364,2.2371,2.2364,2.2288,2.235,2.235,2.2288,2.2281,2.2344,2.2357,2.2254,2.222,2.2283,2.2255,2.2194,2.2086,2.2045,2.2147,2.2072,2.2072,2.216,2.2038,2.1909,2.1896,2.1848,2.1794,2.1692,2.1645,2.157,2.1482,2.1389,2.1382,2.1375,2.1375,2.1375,2.1375,2.1375,2.1375,2.1375,2.1375,2.1375,2.1355,2.1341,2.134,2.1224,2.1123,2.1068,2.0994,2.1001,2.1068,2.1157,2.1224,2.1245,2.1292,2.1274,2.1319,2.1258,2.1272,2.1245,2.1177,2.158,2.1751,0.0,0.0,0.0,0.0,0.0,0.0,0.0,0.0,0.0,0.0,0.0,0.0,0.0,0.0,0.0,0.0,0.0,0.0,0.0,0.0,0.0,0.0,0.0,0.1292,0.2787,0.4784,0.7423,1.0975,1.465,1.6486,1.8416,2.0212,2.0878,2.1086,2.13,2.1708,2.1991,2.2199,2.2344,2.2344,2.2344,2.2344,2.2411,2.259,2.263,2.2698,2.2757,2.2778,2.269,2.2561,2.2527,2.2527,2.2527,2.2527,2.2527,2.2527,2.2527,2.2527,2.2527,2.252,2.2493,2.2445,2.2425,2.2391,2.235,2.2344,2.2344,2.2316,2.2194,2.2201,2.222,2.2255,2.2255,2.2289,2.2174,2.2072,2.2072,2.2025,2.195,2.1869,2.1794,2.1706,2.1557,2.1536,2.1496,2.1389,2.1375,2.1375,2.1375,2.1375,2.1375,2.1375,2.1375,2.1375,2.1375,2.1355,2.1348,2.1313,2.1272,2.1224,2.119,2.1177,2.1224,2.1285,2.1314,2.1375,2.1375,2.1375,2.1341,2.1321,2.1368,2.1348,2.1326,2.1245,2.1363,0.0,0.0,0.0,0.0,0.0,0.0,0.0,0.0,0.0,0.0,0.0,0.0,0.0,0.0,0.0,0.0,0.0,0.0,0.0,0.0,0.0,0.0,0.0,0.0649,0.1652,0.3085,0.5299,0.8158,1.1076,1.3071,1.5007,1.6762,1.786,1.8909,1.9633,2.0525,2.1408,2.2279,2.2439,2.2439,2.2439,2.2445,2.252,2.2642,2.2773,2.2751,2.2832,2.2852,2.2839,2.2832,2.2805,2.2751,2.2757,2.2771,2.2764,2.2751,2.2737,2.2737,2.2764,2.273,2.271,2.2601,2.263,2.2576,2.2405,2.2364,2.2344,2.2344,2.2215,2.2228,2.2303,2.2261,2.2261,2.2268,2.2323,2.2337,2.2316,2.2221,2.2133,2.2106,2.1977,2.1855,2.174,2.1665,2.1618,2.153,2.1489,2.1375,2.1375,2.1375,2.1375,2.1375,2.1375,2.1375,2.1375,2.1368,2.1368,2.1335,2.1321,2.1353,2.1285,2.1279,2.1326,2.1314,2.1355,2.1375,2.1375,2.1375,2.1375,2.1375,2.1375,2.1375,2.1348,2.134,2.1349,0.0,0.0,0.0,0.0,0.0,0.0,0.0,0.0,0.0,0.0,0.0,0.0,0.0,0.0,0.0,0.0,0.0,0.0,0.0,0.0,0.0,0.0,0.0,0.0,0.0,0.0,0.2468,0.4712,0.7153,0.9053,1.0534,1.273,1.4349,1.5735,1.7633,1.918,2.0767,2.2332,2.2676,2.2662,2.2656,2.2662,2.273,2.2879,2.2988,2.3069,2.311,2.3124,2.3124,2.3076,2.2927,2.2818,2.2812,2.2805,2.2812,2.2812,2.2798,2.2791,2.2784,2.2805,2.2771,2.2737,2.2635,2.261,2.2513,2.2391,2.235,2.2268,2.2241,2.2227,2.233,2.2344,2.2344,2.2344,2.2344,2.2344,2.2337,2.231,2.2235,2.2147,2.2086,2.2004,2.1862,2.1747,2.1686,2.1618,2.1543,2.1389,2.1375,2.1375,2.1375,2.1375,2.1375,2.1375,2.1375,2.1375,2.1375,2.1375,2.1375,2.1368,2.1374,2.1353,2.1321,2.1341,2.1362,2.1375,2.1375,2.1375,2.1375,2.1375,2.1375,2.1375,2.1355,2.138,2.1319,0.0,0.0,0.0,0.0,0.0,0.0,0.0,0.0,0.0,0.0,0.0,0.0,0.0,0.0,0.0,0.0,0.0,0.0,0.0,0.0,0.0,0.0,0.0,0.0,0.0,0.0,0.124,0.2914,0.4579,0.586,0.7418,0.9282,1.1018,1.3457,1.5877,1.7809,2.0213,2.2271,2.2778,2.2778,2.2778,2.2784,2.2859,2.3008,2.3144,2.3219,2.3212,2.3212,2.3219,2.3185,2.3069,2.2981,2.2988,2.2981,2.2988,2.2988,2.2988,2.2988,2.2988,2.2981,2.2968,2.2886,2.2744,2.2705,2.2547,2.2425,2.235,2.2344,2.2337,2.2344,2.2344,2.2344,2.2344,2.2344,2.2344,2.2344,2.2344,2.2337,2.2316,2.2235,2.2221,2.2133,2.2018,2.1896,2.1767,2.1706,2.1631,2.155,2.1375,2.1375,2.1375,2.1375,2.1375,2.1375,2.1375,2.1375,2.1375,2.1375,2.1375,2.1375,2.1348,2.1348,2.1362,2.1375,2.1375,2.1375,2.1375,2.1375,2.1375,2.1375,2.1375,2.1375,2.1362,2.1341,2.1333,0.0,0.0,0.0,0.0,0.0,0.0,0.0,0.0,0.0,0.0,0.0,0.0,0.0,0.0,0.0,0.0,0.0,0.0,0.0,0.0,0.0,0.0,0.0,0.0,0.0,0.0,0.0657,0.1823,0.2766,0.3554,0.4342,0.5993,0.8194,1.0894,1.3941,1.6792,1.9534,2.2397,2.2893,2.2886,2.2886,2.2886,2.2954,2.3056,2.3158,2.3219,2.3219,2.3219,2.3219,2.3219,2.3219,2.3219,2.3219,2.3219,2.3219,2.3205,2.3185,2.3171,2.3164,2.3178,2.3144,2.3035,2.29,2.2771,2.2649,2.2506,2.2411,2.2378,2.2371,2.2357,2.2371,2.235,2.2357,2.2371,2.2364,2.2344,2.2344,2.2344,2.2261,2.2261,2.2227,2.2235,2.2167,2.2072,2.193,2.1801,2.1726,2.1645,2.1536,2.1382,2.1382,2.1375,2.1375,2.1375,2.1375,2.1375,2.1375,2.1375,2.1375,2.1375,2.1375,2.1375,2.1375,2.1375,2.1375,2.1375,2.1375,2.1375,2.1375,2.1375,2.1375,2.1375,2.1375,2.1375,2.136,0.0,0.0,0.0,0.0,0.0,0.0,0.0,0.0,0.0,0.0,0.0,0.0,0.0,0.0,0.0,0.0,0.0,0.0,0.0,0.0,0.0,0.0,0.0,0.0,0.0,0.0,0.0,0.0,0.0,0.0729,0.0,0.0,0.443,0.7896,1.1929,1.5197,1.8716,2.2226,2.2882,2.2954,2.3103,2.311,2.3117,2.3164,2.3205,2.3219,2.3219,2.3219,2.3219,2.3219,2.3219,2.3219,2.3219,2.3219,2.3219,2.3219,2.3219,2.3219,2.3219,2.3219,2.3212,2.3158,2.3035,2.2968,2.2859,2.2676,2.2506,2.2459,2.2411,2.2391,2.2506,2.2439,2.2418,2.2452,2.2425,2.235,2.2344,2.2344,2.2344,2.2344,2.2268,2.2261,2.2262,2.2194,2.2079,2.1943,2.1848,2.176,2.1665,2.155,2.1469,2.1389,2.1375,2.1375,2.1375,2.1375,2.1375,2.1375,2.1375,2.1375,2.1375,2.1375,2.1375,2.1375,2.1375,2.1375,2.1375,2.1375,2.1375,2.1375,2.1375,2.1375,2.1375,2.1375,2.1375,0.0,0.0,0.0,0.0,0.0,0.0,0.0,0.0,0.0,0.0,0.0,0.0,0.0,0.0,0.0,0.0,0.0,0.0,0.0,0.0,0.0,0.0,0.0,0.0,0.0,0.0,0.0,0.0,0.0,0.0,0.0,0.0,0.2771,0.6188,1.0173,1.3582,1.7505,2.0977,2.2356,2.2794,2.3147,2.3219,2.3219,2.3219,2.3219,2.3219,2.3219,2.3219,2.3219,2.3219,2.3219,2.3219,2.3219,2.3219,2.3219,2.3219,2.3219,2.3219,2.3219,2.3219,2.3219,2.3205,2.309,2.3015,2.2934,2.2744,2.2547,2.2459,2.25,2.2472,2.254,2.254,2.2567,2.2534,2.2479,2.2411,2.2364,2.2344,2.2344,2.2344,2.2268,2.2268,2.2261,2.2193,2.2194,2.2093,2.1977,2.1882,2.1794,2.1672,2.1557,2.1543,2.153,2.1422,2.1416,2.1409,2.1382,2.1375,2.1375,2.1375,2.1375,2.1375,2.1375,2.1375,2.1375,2.1375,2.1375,2.1375,2.1375,2.1375,2.1375,2.1375,2.1375,2.1375,2.1375,0.0,0.0,0.0,0.0,0.0,0.0,0.0,0.0,0.0,0.0,0.0,0.0,0.0,0.0,0.0,0.0,0.0,0.0,0.0,0.0,0.0,0.0,0.0,0.0,0.0,0.0,0.0,0.0,0.0,0.0,0.0,0.0,0.2261,0.4954,0.8509,1.163,1.5756,1.902,2.1199,2.2069,2.2931,2.3219,2.3219,2.3219,2.3219,2.3219,2.3219,2.3219,2.3219,2.3219,2.3219,2.3219,2.3219,2.3219,2.3219,2.3219,2.3219,2.3219,2.3219,2.3219,2.3219,2.3212,2.3124,2.3069,2.2988,2.2812,2.2547,2.2411,2.2418,2.2534,2.2601,2.2642,2.2649,2.2628,2.2547,2.2472,2.2378,2.2344,2.2344,2.2344,2.2344,2.2268,2.2268,2.2261,2.2262,2.2201,2.2093,2.2018,2.1923,2.1801,2.1706,2.1686,2.1645,2.157,2.1543,2.153,2.1489,2.1382,2.1375,2.1375,2.1375,2.1375,2.1375,2.1375,2.1375,2.1375,2.1375,2.1375,2.1375,2.1375,2.1375,2.1375,2.1375,2.1375,2.1375,0.0,0.0,0.0,0.0,0.0,0.0,0.0,0.0,0.0,0.0,0.0,0.0,0.0,0.0,0.0,0.0,0.0,0.0,0.0,0.0,0.0,0.0,0.0,0.0,0.0,0.0,0.0,0.0,0.0,0.0,0.0,0.0,0.1677,0.3788,0.64,0.9381,1.3224,1.7196,1.9314,2.1127,2.2788,2.3147,2.3219,2.3219,2.3219,2.3219,2.3219,2.3219,2.3219,2.3219,2.3219,2.3219,2.3219,2.3219,2.3219,2.3219,2.3219,2.3219,2.3219,2.3219,2.3219,2.3219,2.3185,2.3191,2.3063,2.2886,2.2622,2.2364,2.2378,2.2486,2.2608,2.254,2.2561,2.2567,2.2534,2.2432,2.2274,2.2344,2.2344,2.2344,2.2344,2.2344,2.2268,2.2337,2.2323,2.2269,2.2215,2.214,2.2059,2.1943,2.1821,2.1787,2.1767,2.1699,2.1631,2.1618,2.1564,2.1422,2.1389,2.1375,2.1375,2.1375,2.1375,2.1375,2.1375,2.1375,2.1375,2.1375,2.1375,2.1375,2.1375,2.1375,2.1375,2.1375,2.1375,0.0,0.0,0.0,0.0,0.0,0.0,0.0,0.0,0.0,0.0,0.0,0.0,0.0,0.0,0.0,0.0,0.0,0.0,0.0,0.0,0.0,0.0,0.0,0.0,0.0,0.0,0.0,0.0,0.0,0.0,0.0,0.0,0.1167,0.2552,0.444,0.7133,1.069,1.4672,1.8226,2.0983,2.2284,2.2931,2.3219,2.3219,2.3219,2.3219,2.3219,2.3219,2.3219,2.3219,2.3219,2.3219,2.3219,2.3219,2.3219,2.3219,2.3219,2.3219,2.3219,2.3219,2.3219,2.3219,2.3205,2.3144,2.3002,2.2866,2.2669,2.2371,2.2418,2.2527,2.2649,2.2615,2.2608,2.2595,2.2527,2.2445,2.2371,2.2274,2.2344,2.2344,2.2344,2.2344,2.2344,2.2344,2.2337,2.2316,2.2289,2.2255,2.2188,2.2099,2.1977,2.1862,2.1855,2.1835,2.1767,2.172,2.1665,2.1584,2.1482,2.1469,2.1375,2.1375,2.1389,2.1382,2.1375,2.1375,2.1375,2.1375,2.1375,2.1375,2.1375,2.1375,2.1375,2.1375,2.1375,0.0,0.0,0.0,0.0,0.0,0.0,0.0,0.0,0.0,0.0,0.0,0.0,0.0,0.0,0.0,0.0,0.0,0.0,0.0,0.0,0.0,0.0,0.0,0.0,0.0,0.0,0.0,0.0,0.0,0.0,0.0,0.0,0.0,0.1459,0.277,0.4881,0.786,1.2431,1.7278,2.0107,2.1415,2.2644,2.3075,2.3219,2.3219,2.3219,2.3219,2.3219,2.3219,2.3219,2.3219,2.3219,2.3219,2.3219,2.3219,2.3219,2.3219,2.3219,2.3219,2.3219,2.3219,2.3219,2.3205,2.313,2.2927,2.2832,2.2751,2.2506,2.2486,2.263,2.2678,2.2662,2.2628,2.2581,2.254,2.2466,2.2411,2.2384,2.235,2.2344,2.2344,2.2344,2.2344,2.2344,2.2344,2.2344,2.2344,2.2344,2.2289,2.2215,2.2154,2.2038,2.2045,2.2018,2.193,2.1855,2.1787,2.1699,2.1597,2.153,2.1536,2.1516,2.1509,2.1422,2.1389,2.1375,2.1375,2.1375,2.1375,2.1375,2.1375,2.1375,2.1375,2.1375,2.1375,0.0,0.0,0.0,0.0,0.0,0.0,0.0,0.0,0.0,0.0,0.0,0.0,0.0,0.0,0.0,0.0,0.0,0.0,0.0,0.0,0.0,0.0,0.0,0.0,0.0,0.0,0.0,0.0,0.0,0.0,0.0,0.0,0.0,0.0,0.1021,0.2843,0.6046,1.0618,1.539,1.851,2.0257,2.1918,2.3147,2.3219,2.3219,2.3219,2.3219,2.3219,2.3219,2.3219,2.3219,2.3219,2.3219,2.3219,2.3219,2.3219,2.3219,2.3219,2.3219,2.3219,2.3219,2.3219,2.3205,2.3151,2.2974,2.2981,2.2893,2.2723,2.2635,2.2692,2.2622,2.2588,2.2608,2.2595,2.2574,2.2527,2.2466,2.2411,2.2384,2.235,2.2344,2.2344,2.2344,2.2344,2.2344,2.2344,2.2344,2.2344,2.2344,2.2289,2.2303,2.2262,2.2276,2.2228,2.2113,2.2032,2.1943,2.1869,2.1781,2.1713,2.1672,2.1638,2.157,2.1516,2.1482,2.1389,2.1389,2.1489,2.1496,2.1389,2.1375,2.1375,2.1375,2.1375,2.1375,0.0,0.0,0.0,0.0,0.0,0.0,0.0,0.0,0.0,0.0,0.0,0.0,0.0,0.0,0.0,0.0,0.0,0.0,0.0,0.0,0.0,0.0,0.0,0.0,0.0,0.0,0.0,0.0,0.0,0.0,0.0,0.0,0.0,0.0,0.0,0.1896,0.5172,0.8948,1.3441,1.6845,1.9242,2.1703,2.3219,2.3219,2.3219,2.3219,2.3219,2.3219,2.3219,2.3219,2.3219,2.3219,2.3219,2.3219,2.3219,2.3219,2.3219,2.3219,2.3219,2.3219,2.3219,2.3219,2.3212,2.3164,2.3042,2.3015,2.2934,2.2812,2.2737,2.273,2.2601,2.2622,2.2662,2.2642,2.2692,2.2588,2.2561,2.252,2.2452,2.2445,2.2384,2.2344,2.2344,2.2344,2.2344,2.2344,2.2344,2.2344,2.2344,2.2344,2.2344,2.2344,2.2344,2.2344,2.2235,2.216,2.2093,2.2032,2.1957,2.1889,2.1821,2.1692,2.1631,2.1564,2.1536,2.1536,2.1557,2.1577,2.1564,2.153,2.1416,2.1375,2.1375,2.1402,2.1422,0.0,0.0,0.0,0.0,0.0,0.0,0.0,0.0,0.0,0.0,0.0,0.0,0.0,0.0,0.0,0.0,0.0,0.0,0.0,0.0,0.0,0.0,0.0,0.0,0.0,0.0,0.0,0.0,0.0,0.0,0.0,0.0,0.0,0.0,0.0,0.0,0.0,0.7497,1.1554,1.5322,1.7866,2.1265,2.3147,2.3219,2.3219,2.3219,2.3219,2.3219,2.3219,2.3219,2.3219,2.3219,2.3219,2.3219,2.3219,2.3219,2.3219,2.3219,2.3219,2.3219,2.3219,2.3219,2.3219,2.3164,2.3103,2.3069,2.3035,2.2961,2.2893,2.2805,2.2683,2.2737,2.2778,2.2771,2.273,2.2703,2.2717,2.2683,2.2601,2.254,2.2479,2.2418,2.2391,2.2391,2.2281,2.2274,2.2344,2.2344,2.2344,2.2344,2.2344,2.2344,2.2344,2.2344,2.233,2.2262,2.2208,2.2201,2.2127,2.2045,2.1957,2.1835,2.1747,2.1726,2.1692,2.1658,2.1679,2.1726,2.1679,2.1618,2.1591,2.1591,2.1625,2.1665,2.1638,0.0,0.0,0.0,0.0,0.0,0.0,0.0,0.0,0.0,0.0,0.0,0.0,0.0,0.0,0.0,0.0,0.0,0.0,0.0,0.0,0.0,0.0,0.0,0.0,0.0,0.0,0.0,0.0,0.0,0.0,0.0,0.0,0.0,0.0,0.0,0.0,0.0,0.5028,0.9518,1.3071,1.6416,2.0257,2.2141,2.2644,2.2716,2.2716,2.2931,2.3147,2.3147,2.3219,2.3219,2.3219,2.3219,2.3219,2.3219,2.3219,2.3219,2.3219,2.3219,2.3219,2.3219,2.3219,2.3219,2.3198,2.3205,2.3198,2.3185,2.3097,2.3063,2.3002,2.294,2.2893,2.2913,2.2893,2.2852,2.2846,2.2859,2.2839,2.2751,2.2656,2.2595,2.261,2.2493,2.2445,2.2378,2.2281,2.2274,2.2344,2.2357,2.2378,2.2391,2.2344,2.2344,2.2344,2.2344,2.2344,2.2316,2.2254,2.2283,2.2188,2.212,2.2032,2.1957,2.1903,2.1835,2.1781,2.1828,2.1889,2.1876,2.1882,2.1821,2.1815,2.1848,2.1835,2.1781,0.0,0.0,0.0,0.0,0.0,0.0,0.0,0.0,0.0,0.0,0.0,0.0,0.0,0.0,0.0,0.0,0.0,0.0,0.0,0.0,0.0,0.0,0.0,0.0,0.0,0.0,0.0,0.0,0.0,0.0,0.0,0.0,0.0,0.0,0.0,0.0,0.0,0.4155,0.7858,1.1409,1.4105,1.7799,2.0335,2.0767,2.1271,2.1846,2.2428,2.2716,2.3147,2.3219,2.3219,2.3219,2.3219,2.3219,2.3219,2.3219,2.3219,2.3219,2.3219,2.3219,2.3219,2.3219,2.3219,2.3219,2.3219,2.3219,2.3219,2.3219,2.3171,2.3097,2.3008,2.3076,2.309,2.3022,2.2995,2.3008,2.3008,2.2968,2.29,2.2784,2.271,2.2698,2.2644,2.2534,2.2472,2.2493,2.2506,2.2432,2.2411,2.2452,2.2472,2.2378,2.2344,2.2344,2.2344,2.2344,2.2344,2.233,2.233,2.2303,2.2242,2.2181,2.212,2.2038,2.1964,2.1909,2.1991,2.2065,2.2154,2.2167,2.2059,2.1964,2.1943,2.1909,2.1855,0.0,0.0,0.0,0.0,0.0,0.0,0.0,0.0,0.0,0.0,0.0,0.0,0.0,0.0,0.0,0.0,0.0,0.0,0.0,0.0,0.0,0.0,0.0,0.0,0.0,0.0,0.0,0.0,0.0,0.0,0.0,0.0,0.0,0.0,0.0,0.0,0.1021,0.3499,0.6477,0.8942,1.1488,1.4169,1.6556,1.7716,1.8876,2.0101,2.1265,2.2284,2.3147,2.3147,2.3147,2.3147,2.3147,2.3219,2.3219,2.3219,2.3219,2.3219,2.3219,2.3219,2.3219,2.3219,2.3219,2.3219,2.3219,2.3219,2.3219,2.3219,2.3219,2.3171,2.3117,2.3205,2.3178,2.311,2.311,2.3124,2.3117,2.3069,2.3056,2.294,2.2846,2.2757,2.2662,2.2615,2.2574,2.2628,2.2753,2.2595,2.2506,2.254,2.2561,2.2472,2.2384,2.2302,2.2357,2.2344,2.2344,2.2344,2.235,2.2364,2.2254,2.2187,2.2215,2.2188,2.214,2.2127,2.2181,2.2249,2.2276,2.2262,2.2194,2.2113,2.2045,2.2018,2.1998,0.0,0.0,0.0,0.0,0.0,0.0,0.0,0.0,0.0,0.0,0.0,0.0,0.0,0.0,0.0,0.0,0.0,0.0,0.0,0.0,0.0,0.0,0.0,0.0,0.0,0.0,0.0,0.0,0.0,0.0,0.0,0.0,0.0,0.0,0.0,0.0,0.0,0.2697,0.4587,0.6695,0.8657,1.0463,1.2492,1.4089,1.5824,1.7711,1.9308,2.1049,2.2212,2.2716,2.2859,2.3003,2.3082,2.3225,2.3219,2.3219,2.3219,2.3219,2.3219,2.3219,2.3219,2.3219,2.3219,2.3219,2.3219,2.3219,2.3219,2.3219,2.3219,2.3219,2.3219,2.3219,2.3212,2.3198,2.3198,2.3205,2.3205,2.3191,2.3191,2.3117,2.3022,2.2927,2.2818,2.2751,2.271,2.2778,2.2832,2.2859,2.2771,2.2669,2.2669,2.2595,2.25,2.2411,2.2398,2.2445,2.2418,2.2439,2.2405,2.2398,2.2364,2.2261,2.2289,2.2276,2.2316,2.2323,2.2296,2.2296,2.2323,2.2296,2.2193,2.2249,2.2188,2.2221,2.2228,0.0,0.0,0.0,0.0,0.0,0.0,0.0,0.0,0.0,0.0,0.0,0.0,0.0,0.0,0.0,0.0,0.0,0.0,0.0,0.0,0.0,0.0,0.0,0.0,0.0,0.0,0.0,0.0,0.0,0.0,0.0,0.0,0.0,0.0,0.0,0.0,0.0,0.1604,0.3279,0.4443,0.5607,0.7276,0.8945,1.0614,1.2641,1.4599,1.6344,1.852,1.9752,2.0623,2.1271,2.1703,2.2435,2.2859,2.3219,2.3219,2.3219,2.3219,2.3219,2.3219,2.3219,2.3219,2.3219,2.3219,2.3219,2.3219,2.3219,2.3219,2.3219,2.3219,2.3219,2.3219,2.3219,2.3219,2.3219,2.3219,2.3219,2.3219,2.3219,2.3198,2.3103,2.3049,2.294,2.2866,2.2839,2.292,2.2981,2.3022,2.3002,2.2886,2.2798,2.2723,2.2649,2.2561,2.2608,2.2656,2.2588,2.2534,2.2486,2.2439,2.2384,2.2357,2.2344,2.2344,2.2344,2.2344,2.2337,2.2344,2.2344,2.2344,2.2316,2.233,2.2344,2.2344,2.2344,0.0,0.0,0.0,0.0,0.0,0.0,0.0,0.0,0.0,0.0,0.0,0.0,0.0,0.0,0.0,0.0,0.0,0.0,0.0,0.0,0.0,0.0,0.0,0.0,0.0,0.0,0.0,0.0,0.0,0.0,0.0,0.0,0.0,0.0,0.0,0.0,0.0,0.0802,0.1604,0.0,0.0,0.0,0.5026,0.6844,0.902,1.0832,1.2503,1.4676,1.6267,1.7572,1.851,2.0107,2.1193,2.2278,2.3147,2.3219,2.3219,2.3219,2.3219,2.3219,2.3219,2.3219,2.3219,2.3219,2.3219,2.3219,2.3219,2.3219,2.3219,2.3219,2.3219,2.3219,2.3219,2.3219,2.3219,2.3219,2.3219,2.3219,2.3219,2.3212,2.3171,2.3124,2.3056,2.2981,2.2968,2.3056,2.3103,2.3124,2.3103,2.3015,2.294,2.2879,2.2805,2.273,2.2791,2.2818,2.2737,2.2649,2.2561,2.25,2.2432,2.2384,2.2371,2.2357,2.2344,2.2357,2.2391,2.235,2.2344,2.235,2.235,2.2344,2.2344,2.2344,2.2344,0.0,0.0,0.0,0.0,0.0,0.0,0.0,0.0,0.0,0.0,0.0,0.0,0.0,0.0,0.0,0.0,0.0,0.0,0.0,0.0,0.0,0.0,0.0,0.0,0.0,0.0,0.0,0.0,0.0,0.0,0.0,0.0,0.0,0.0,0.0,0.0,0.0,0.0,0.0,0.0,0.0,0.0,0.073,0.2624,0.466,0.6618,0.8216,1.0028,1.1978,1.3723,1.5679,1.7633,1.9885,2.1265,2.2212,2.2572,2.2284,2.2572,2.2644,2.2788,2.3075,2.3147,2.3219,2.3219,2.3219,2.3219,2.3219,2.3219,2.3219,2.3219,2.3219,2.3219,2.3219,2.3219,2.3219,2.3219,2.3219,2.3219,2.3219,2.3212,2.3205,2.3164,2.3164,2.309,2.3076,2.3178,2.3198,2.3205,2.3178,2.311,2.3069,2.3015,2.2974,2.292,2.2913,2.292,2.2866,2.2778,2.269,2.2615,2.2581,2.2493,2.2391,2.2445,2.25,2.2452,2.2445,2.2425,2.2411,2.2391,2.2384,2.235,2.2344,2.2344,2.2344,0.0,0.0,0.0,0.0,0.0,0.0,0.0,0.0,0.0,0.0,0.0,0.0,0.0,0.0,0.0,0.0,0.0,0.0,0.0,0.0,0.0,0.0,0.0,0.0,0.0,0.0,0.0,0.0,0.0,0.0,0.0,0.0,0.0,0.0,0.0,0.0,0.0,0.0,0.0,0.0,0.0,0.0,0.0584,0.1677,0.3279,0.4297,0.5753,0.6988,0.8802,1.0472,1.2648,1.5476,1.867,1.9325,1.9614,1.9758,2.0112,2.0617,2.1415,2.1918,2.25,2.3003,2.3219,2.3219,2.3219,2.3219,2.3219,2.3219,2.3219,2.3219,2.3219,2.3219,2.3219,2.3219,2.3219,2.3219,2.3219,2.3219,2.3219,2.3219,2.3219,2.3219,2.3219,2.3219,2.3219,2.3219,2.3212,2.3219,2.3212,2.3178,2.3164,2.313,2.3158,2.3117,2.3083,2.3049,2.3002,2.2961,2.2886,2.2812,2.2737,2.2649,2.2574,2.2649,2.269,2.2622,2.2567,2.2554,2.2534,2.2479,2.2425,2.2391,2.2364,2.2357,2.235,0.0,0.0,0.0,0.0,0.0,0.0,0.0,0.0,0.0,0.0,0.0,0.0,0.0,0.0,0.0,0.0,0.0,0.0,0.0,0.0,0.0,0.0,0.0,0.0,0.0,0.0,0.0,0.0,0.0,0.0,0.0,0.0,0.0,0.0,0.0,0.0,0.0,0.0,0.0,0.0,0.0,0.0,0.0,0.1021,0.0,0.0,0.2552,0.3572,0.4591,0.6626,0.902,1.1916,1.4378,1.5246,1.539,1.5756,1.6479,1.786,1.9092,2.0323,2.1559,2.2356,2.3075,2.3075,2.3219,2.3219,2.3219,2.3219,2.3219,2.3219,2.3219,2.3219,2.3219,2.3219,2.3219,2.3219,2.3219,2.3219,2.3219,2.3219,2.3219,2.3219,2.3219,2.3219,2.3219,2.3219,2.3219,2.3219,2.3219,2.3219,2.3219,2.3219,2.3219,2.3219,2.3171,2.3158,2.3151,2.311,2.3056,2.2927,2.2805,2.2784,2.2771,2.2805,2.2805,2.2757,2.271,2.2703,2.2685,2.2534,2.2479,2.2425,2.2405,2.2411,2.2445,0.0,0.0,0.0,0.0,0.0,0.0,0.0,0.0,0.0,0.0,0.0,0.0,0.0,0.0,0.0,0.0,0.0,0.0,0.0,0.0,0.0,0.0,0.0,0.0,0.0,0.0,0.0,0.0,0.0,0.0,0.0,0.0,0.0,0.0,0.0,0.0,0.0,0.0,0.0,0.0,0.0,0.0,0.0,0.0,0.0,0.0,0.0,0.0,0.0,0.2988,0.5897,0.8655,1.0463,1.1402,1.133,1.1695,1.2786,1.4523,1.6406,1.8077,2.0035,2.1631,2.2356,2.25,2.235,2.235,2.235,2.2422,2.2422,2.3003,2.3003,2.3075,2.3075,2.3147,2.3147,2.3219,2.3219,2.3219,2.3219,2.3219,2.3219,2.3219,2.3219,2.3219,2.3219,2.3219,2.3219,2.3219,2.3219,2.3219,2.3219,2.3219,2.3219,2.3219,2.3219,2.3212,2.3205,2.3191,2.3117,2.2988,2.2907,2.2934,2.2934,2.2893,2.2886,2.29,2.2873,2.2852,2.2751,2.2649,2.2601,2.2567,2.2547,2.2554,2.2601,0.0,0.0,0.0,0.0,0.0,0.0,0.0,0.0,0.0,0.0,0.0,0.0,0.0,0.0,0.0,0.0,0.0,0.0,0.0,0.0,0.0,0.0,0.0,0.0,0.0,0.0,0.0,0.0,0.0,0.0,0.0,0.0,0.0,0.0,0.0,0.0,0.0,0.0,0.0,0.0,0.0,0.0,0.0,0.0,0.0,0.0,0.0,0.0,0.0,0.1896,0.3717,0.5826,0.6913,0.7565,0.7565,0.7856,0.8948,1.0977,1.293,1.4672,1.6628,1.8731,1.9092,1.917,1.9098,1.9098,1.917,1.953,2.0107,2.1912,2.2278,2.2644,2.2788,2.3003,2.3075,2.3147,2.3219,2.3219,2.3219,2.3219,2.3219,2.3219,2.3219,2.3219,2.3219,2.3219,2.3219,2.3219,2.3219,2.3219,2.3219,2.3219,2.3219,2.3219,2.3219,2.3219,2.3212,2.3205,2.3191,2.3103,2.3076,2.3144,2.313,2.3049,2.3076,2.311,2.3076,2.3002,2.2947,2.2852,2.2778,2.273,2.2696,2.2703,2.2751]},{"header":{"parameterUnit":"m.s-1","parameterCategory":1,"la1":31.0,"la2":29.5877,"lo1":-88.7671,"lo2":-86.6584,"dy":0.0162,"dx":0.0185,"nx":115,"ny":88,"refTime":"2026-04-05T00:00:00:Z","depth":0,"parameterNumber":3,"parameterNumberName":"V-component_of_WINDS"},"data":[0.0,0.0,0.0,0.0,0.0,0.0,0.0,0.0,0.0,0.0,0.0,0.0,0.0,0.0,0.0,0.0,0.0,0.0,0.0,0.0,0.0,0.0,0.0,0.0,0.0,0.0,0.0,0.0,0.0,0.0,0.0,0.0,0.0,0.0,0.0,0.0,0.0,0.0,0.0,0.0,0.0,0.0,0.0,0.0,0.0,0.0,0.0,0.0,0.0,0.0,0.0,0.0,0.0,0.0,0.0,0.0,0.0,0.0,0.0,0.0,0.0,0.0,0.0,0.0,0.0,0.0,0.0,0.0,0.0,0.0,0.0,0.0,0.0,0.0,0.0,0.0,0.0,0.0,0.0,0.0,0.0,0.0,0.0,0.0,0.0,0.0,0.0,0.0,0.0,0.0,0.0,0.0,0.0,0.0,0.0,0.0,0.0,0.0,0.0,0.0,0.0,0.0,0.0,0.0,0.0,0.0,0.0,0.0,0.0,0.0,0.0,0.0,0.0,0.0,0.0,0.0,0.0,0.0,0.0,0.0,0.0,0.0,0.0,0.0,0.0,0.0,0.0,0.0,0.0,0.0,0.0,0.0,0.0,0.0,0.0,0.0,0.0,0.0,0.0,0.0,0.0,0.0,0.0,0.0,0.0,0.0,0.0,0.0,0.0,0.0,0.0,0.0,0.0,0.0,0.0,0.0,0.0,0.0,0.0,0.0,0.0,0.0,0.0,0.0,0.0,0.0,0.0,0.0,0.0,0.0,0.0,0.0,0.0,0.0,0.0,0.0,0.0,0.0,0.0,0.0,0.0,0.0,0.0,0.0,0.0,0.0,0.0,0.0,0.0,0.0,0.0,0.0,0.0,0.0,0.0,0.0,0.0,0.0,0.0,0.0,0.0,0.0,0.0,0.0,0.0,0.0,0.0,0.0,0.0,0.0,0.0,0.0,0.0,0.0,0.0,0.0,0.0,0.0,0.0,0.0,0.0,0.0,0.0,0.0,0.0,0.0,0.0,0.0,0.0,0.0,0.0,0.0,0.0,0.0,0.0,0.0,0.0,0.0,0.0,0.0,0.0,0.0,0.0,0.0,0.0,0.0,0.0,0.0,0.0,0.0,0.0,0.0,0.0,0.0,0.0,0.0,0.0,0.0,0.0,0.0,0.0,0.0,0.0,0.0,0.0,0.0,0.0,0.0,0.0,0.0,0.0,0.0,0.0,0.0,0.0,0.0,0.0,0.0,0.0,0.0,0.0,0.0,0.0,0.0,0.0,0.0,0.0,0.0,0.0,0.0,0.0,0.0,0.0,0.0,0.0,0.0,0.0,0.0,0.0,0.0,0.0,0.0,0.0,0.0,0.0,0.0,0.0,0.0,0.0,0.0,0.0,0.0,0.0,0.0,0.0,0.0,0.0,0.0,0.0,0.0,0.0,0.0,0.0,0.0,0.0,0.0,0.0,0.0,0.0,0.0,0.0,0.0,0.0,0.0,0.0,0.0,0.0,0.0,0.0,0.0,0.0,0.0,0.0,0.0,0.0,0.0,0.0,0.0,0.0,0.0,0.0,0.0,0.0,0.0,0.0,0.0,0.0,0.0,0.0,0.0,0.0,0.0,0.0,0.0,0.0,0.0,0.0,0.0,0.0,0.0,0.0,0.0,0.0,0.0,0.0,0.0,0.0,0.0,0.0,0.0,0.0,0.0,0.0,0.0,0.0,0.0,0.0,0.0,0.0,0.0,0.0,0.0,0.0,0.0,0.0,0.0,0.0,0.0,0.0,0.0,0.0,0.0,0.0,0.0,0.0,0.0,0.0,0.0,0.0,0.0,0.0,0.0,0.0,0.0,0.0,0.0,0.0,0.0,0.0,0.0,0.0,0.0,0.0,0.0,0.0,0.0,0.0,0.0,0.0,0.0,0.0,0.0,0.0,0.0,0.0,0.0,0.0,0.0,0.0,0.0,0.0,0.0,0.0,0.0,0.0,0.0,0.0,0.0,0.0,0.0,0.0,0.0,0.0,0.0,0.0,0.0,0.0,0.0,0.0,0.0,0.0,0.0,0.0,0.0,0.0,0.0,0.0,0.0,0.0,0.0,0.0,0.0,0.0,0.0,0.0,0.0,0.0,0.0,0.0,0.0,0.0,0.0,0.0,0.0,0.0,0.0,0.0,0.0,0.0,0.0,0.0,0.0,0.0,0.0,0.0,0.0,0.0,0.0,0.0,0.0,0.0,0.0,0.0,0.0,0.0,0.0,0.0,0.0,0.0,0.0,0.0,0.0,0.0,0.0,0.0,0.0,0.0,0.0,0.0,0.0,0.0,0.0,0.0,0.0,0.0,0.0,0.0,0.0,0.0,0.0,0.0,0.0,0.0,0.0,0.0,0.0,0.0,0.0,0.0,0.0,0.0,0.0,0.0,0.0,0.0,0.0,0.0,0.0,0.0,0.0,0.0,0.0,0.0,0.0,0.0,0.0,0.0,0.0,0.0,0.0,0.0,0.0,0.0,0.0,0.0,0.0,0.0,0.0,0.0,0.0,0.0,0.0,0.0,0.0,0.0,0.0,0.0,0.0,0.0,0.0,0.0,0.0,0.0,0.0,0.0,0.0,0.0,0.0,0.0,0.0,0.0,0.0,0.0,0.0,0.0,0.0,0.0,0.0,0.0,0.0,0.0,0.0,0.0,0.0,0.0,0.0,0.0,0.0,0.0,0.0,0.0,0.0,0.0,0.0,0.0,0.0,0.0,0.0,0.0,0.0,0.0,0.0,0.0,0.0,0.0,0.0,0.0,0.0,0.0,0.0,0.0,0.0,0.0,0.0,0.0,0.0,0.0,0.0,0.0,0.0,0.0,0.0,0.0,0.0,0.0,0.0,0.0,0.0,0.0,0.0,0.0,0.0,0.0,0.0,0.0,0.0,0.0,0.0,0.0,0.0,0.0,0.0,0.0,0.0,0.0,0.0,0.0,0.0,0.0,0.0,0.0,0.0,0.0,0.0,0.0,0.0,0.0,0.0,0.0,0.0,0.0,0.0,0.0,0.0,0.0,0.0,0.0,0.0,0.0,0.0,0.0,0.0,0.0,0.0,0.0,0.0,0.0,0.0,0.0,0.0,0.0,0.0,0.0,0.0,0.0,0.0,0.0,0.0,0.0,0.0,0.0,0.0,0.0,0.0,0.0,0.0,0.0,0.0,0.0,0.0,0.0,0.0,0.0,0.0,0.0,0.0,0.0,0.0,0.0,0.0,0.0,0.0,0.0,0.0,0.0,0.0,0.0,0.0,0.0,0.0,0.0,0.0,0.0,0.0,0.0,0.0,0.0,0.0,0.0,0.0,0.0,0.0,0.0,0.0,0.0,0.0,0.0,0.0,0.0,0.0,0.0,0.0,0.0,0.0,0.0,0.0,0.0,0.0,0.0,0.0,0.0,0.0,0.0,0.0,0.0,0.0,0.0,0.0,0.0,0.0,0.0,0.0,0.0,0.0,0.0,0.0,0.0,0.0,0.0,0.0,0.0,0.0,0.0,0.0,0.0,0.0,0.0,0.0,0.0,0.0,0.0,0.0,0.0,0.0,0.0,0.0,0.0,0.0,0.0,0.0,0.0,0.0,0.0,0.0,0.0,0.0,0.0,0.0,0.0,0.0,0.0,0.0,0.0,0.0,0.0,0.0,0.0,0.0,0.0,0.0,0.0,0.0,0.0,0.0,0.0,0.0,0.0,0.0,0.0,0.0,0.0,0.0,0.0,0.0,0.0,0.0,0.0,0.0,0.0,0.0,0.0,0.0,0.0,0.0,0.0,0.0,0.0,0.0,0.0,0.0,0.0,0.0,0.0,0.0,0.0,0.0,0.0,0.0,0.0,0.0,0.0,0.0,0.0,0.0,0.0,0.0,0.0,0.0,0.0,0.0,0.0,0.0,0.0,0.0,0.0,0.0,0.0,0.0,0.0,0.0,0.0,0.0,0.0,0.0,0.0,0.0,0.0,0.0,0.0,0.0,0.0,0.0,0.0,0.0,0.0,0.0,0.0,0.0,0.0,0.0,0.0,0.0,0.0,0.0,0.0,0.0,0.0,0.0,0.0,0.0,0.0,0.0,0.0,0.0,0.0,0.0,0.0,0.0,0.0,0.0,0.0,0.0,0.0,0.0,0.0,0.0,0.0,0.0,0.0,0.0,0.0,0.0,0.0,0.0,0.0,0.0,0.0,0.0,0.0,0.0,0.0,0.0,0.0,0.0,0.0,0.0,0.0,0.0,0.0,0.0,0.0,0.0,0.0,0.0,0.0,0.0,4.0207,0.0,0.0,0.0,0.0,0.0,0.0,0.0,0.0,0.0,0.0,0.0,0.0,0.0,0.0,0.0,0.0,0.0,0.0,0.0,0.0,0.0,0.0,0.0,0.0,0.0,0.0,0.0,0.0,0.0,0.0,0.0,0.0,0.0,0.0,0.0,0.0,0.0,0.0,0.0,0.0,0.0,0.0,0.0,0.0,0.0,0.0,0.0,0.0,0.0,0.0,0.0,0.0,0.0,0.0,0.0,0.0,0.0,0.0,0.0,0.0,0.0,0.0,0.0,0.0,0.0,0.0,0.0,0.0,0.0,0.0,0.0,0.0,0.0,0.0,0.0,0.0,0.0,0.0,0.0,0.0,0.0,0.0,0.0,0.0,0.0,0.0,0.0,0.0,0.0,0.0,0.0,0.0,0.0,0.0,0.0,0.0,0.0,0.0,0.0,0.0,0.0,0.0,0.0,0.0,0.0,0.0,0.0,0.0,0.0,0.0,4.3053,4.3103,4.1506,4.0651,4.0683,0.0,0.0,0.0,0.0,0.0,0.0,0.0,0.0,0.0,0.0,0.0,0.0,0.0,0.0,0.0,0.0,0.0,0.0,0.0,0.0,0.0,0.0,0.0,0.0,0.0,0.0,0.0,0.0,0.0,0.0,0.0,0.0,0.0,0.0,0.0,0.0,0.0,0.0,0.0,0.0,0.0,0.0,0.0,0.0,0.0,0.0,0.0,0.0,0.0,0.0,0.0,0.0,0.0,0.0,0.0,0.0,0.0,0.0,0.0,0.0,0.0,0.0,0.0,0.0,0.0,0.0,0.0,0.0,0.0,0.0,0.0,0.0,0.0,0.0,0.0,0.0,0.0,0.0,0.0,0.0,0.0,0.0,0.0,0.0,0.0,0.0,0.0,0.0,0.0,0.0,0.0,0.0,0.0,0.0,0.0,0.0,0.0,0.0,0.0,0.0,0.0,0.0,0.0,0.0,0.0,0.0,0.0,0.0,0.0,0.0,0.0,0.0,4.2204,4.1222,4.0879,0.0,0.0,0.0,0.0,0.0,0.0,0.0,0.0,0.0,0.0,0.0,0.0,0.0,0.0,0.0,0.0,0.0,0.0,0.0,0.0,0.0,0.0,0.0,0.0,0.0,0.0,0.0,0.0,0.0,0.0,0.0,0.0,0.0,0.0,0.0,0.0,0.0,0.0,0.0,0.0,0.0,0.0,0.0,0.0,0.0,0.0,0.0,0.0,0.0,0.0,0.0,0.0,0.0,0.0,0.0,0.0,0.0,0.0,0.0,0.0,0.0,0.0,0.0,0.0,0.0,0.0,0.0,0.0,0.0,0.0,0.0,0.0,0.0,0.0,0.0,0.0,0.0,0.0,0.0,0.0,0.0,0.0,0.0,0.0,0.0,0.0,0.0,0.0,0.0,0.0,0.0,0.0,0.0,0.0,0.0,0.0,0.0,0.0,0.0,0.0,0.0,0.0,0.0,0.0,0.0,0.0,0.0,0.0,0.0,0.0,4.3828,4.4553,4.3012,0.0,4.0231,0.0,0.0,0.0,0.0,0.0,0.0,0.0,0.0,0.0,0.0,0.0,0.0,0.0,0.0,0.0,0.0,0.0,0.0,0.0,0.0,0.0,0.0,0.0,0.0,0.0,0.0,0.0,0.0,0.0,0.0,0.0,0.0,0.0,0.0,0.0,0.0,0.0,0.0,0.0,0.0,0.0,0.0,0.0,0.0,0.0,0.0,0.0,0.0,0.0,0.0,0.0,0.0,0.0,0.0,0.0,0.0,0.0,0.0,0.0,0.0,0.0,0.0,0.0,0.0,0.0,0.0,0.0,0.0,0.0,0.0,0.0,0.0,0.0,0.0,0.0,0.0,0.0,0.0,0.0,0.0,0.0,0.0,0.0,0.0,0.0,0.0,0.0,0.0,0.0,0.0,0.0,0.0,0.0,0.0,0.0,0.0,0.0,0.0,0.0,0.0,0.0,0.0,0.0,0.0,0.0,0.0,0.0,0.0,0.0,0.0,0.0,4.6094,4.4085,4.1825,0.0,0.0,0.0,0.0,0.0,0.0,0.0,0.0,0.0,0.0,0.0,0.0,0.0,0.0,0.0,0.0,0.0,0.0,0.0,0.0,0.0,0.0,0.0,0.0,0.0,0.0,0.0,0.0,0.0,0.0,0.0,0.0,0.0,0.0,0.0,0.0,0.0,0.0,0.0,0.0,0.0,0.0,0.0,0.0,0.0,0.0,0.0,0.0,0.0,0.0,0.0,0.0,0.0,0.0,0.0,0.0,0.0,0.0,0.0,0.0,0.0,0.0,0.0,0.0,0.0,0.0,0.0,0.0,0.0,0.0,0.0,0.0,0.0,0.0,0.0,0.0,0.0,0.0,0.0,0.0,0.0,0.0,0.0,0.0,0.0,0.0,0.0,0.0,0.0,0.0,0.0,0.0,0.0,0.0,0.0,0.0,0.0,0.0,0.0,0.0,0.0,0.0,0.0,0.0,0.0,0.0,0.0,0.0,0.0,0.0,4.4378,0.0,4.5957,4.4195,4.1882,3.9129,0.0,0.0,0.0,0.0,0.0,0.0,0.0,0.0,0.0,0.0,0.0,0.0,0.0,0.0,0.0,0.0,0.0,0.0,0.0,0.0,0.0,0.0,0.0,0.0,0.0,0.0,0.0,0.0,0.0,0.0,0.0,0.0,0.0,0.0,0.0,0.0,0.0,0.0,0.0,0.0,0.0,0.0,0.0,0.0,0.0,0.0,0.0,0.0,0.0,0.0,0.0,0.0,0.0,0.0,0.0,0.0,0.0,0.0,0.0,0.0,0.0,0.0,0.0,0.0,0.0,0.0,0.0,0.0,0.0,0.0,0.0,0.0,0.0,0.0,0.0,0.0,0.0,0.0,0.0,0.0,0.0,0.0,0.0,0.0,0.0,0.0,0.0,0.0,0.0,0.0,0.0,0.0,0.0,0.0,0.0,0.0,0.0,0.0,0.0,0.0,0.0,0.0,0.0,0.0,0.0,0.0,0.0,0.0,0.0,4.3579,4.3616,4.369,4.2808,4.1552,0.0,0.0,0.0,0.0,0.0,0.0,0.0,0.0,0.0,0.0,0.0,0.0,0.0,0.0,0.0,0.0,0.0,0.0,0.0,0.0,0.0,0.0,0.0,0.0,0.0,0.0,0.0,0.0,0.0,0.0,0.0,0.0,0.0,0.0,0.0,0.0,0.0,0.0,0.0,0.0,0.0,0.0,0.0,0.0,0.0,0.0,0.0,0.0,0.0,0.0,0.0,0.0,0.0,0.0,0.0,0.0,0.0,0.0,0.0,0.0,0.0,0.0,0.0,0.0,0.0,0.0,0.0,0.0,0.0,0.0,0.0,0.0,0.0,0.0,0.0,0.0,0.0,0.0,0.0,0.0,0.0,0.0,0.0,0.0,0.0,0.0,0.0,0.0,0.0,0.0,0.0,0.0,0.0,0.0,0.0,0.0,0.0,0.0,0.0,0.0,0.0,0.0,0.0,0.0,0.0,0.0,0.0,0.0,0.0,4.3506,4.4011,4.3791,4.2763,4.2433,4.1046,0.0,0.0,0.0,0.0,0.0,0.0,0.0,0.0,0.0,0.0,0.0,0.0,0.0,0.0,0.0,0.0,0.0,0.0,0.0,0.0,0.0,0.0,0.0,0.0,0.0,0.0,0.0,0.0,0.0,0.0,0.0,0.0,0.0,0.0,0.0,0.0,0.0,0.0,0.0,0.0,0.0,0.0,0.0,0.0,0.0,0.0,0.0,0.0,0.0,0.0,0.0,0.0,0.0,0.0,0.0,0.0,0.0,0.0,0.0,0.0,0.0,0.0,0.0,0.0,0.0,0.0,0.0,0.0,0.0,0.0,0.0,0.0,0.0,0.0,0.0,0.0,0.0,0.0,0.0,0.0,0.0,0.0,0.0,0.0,0.0,0.0,0.0,0.0,0.0,0.0,0.0,0.0,0.0,0.0,0.0,0.0,0.0,0.0,0.0,0.0,0.0,0.0,0.0,0.0,0.0,0.0,0.0,0.0,0.0,4.3873,0.0,4.4443,0.0,4.258,4.1038,0.0,0.0,0.0,0.0,0.0,0.0,0.0,0.0,0.0,0.0,0.0,0.0,0.0,0.0,0.0,0.0,0.0,0.0,0.0,0.0,0.0,0.0,0.0,0.0,0.0,0.0,0.0,0.0,0.0,0.0,0.0,0.0,0.0,0.0,0.0,0.0,0.0,0.0,0.0,0.0,0.0,0.0,0.0,0.0,0.0,0.0,0.0,0.0,0.0,0.0,0.0,0.0,0.0,0.0,0.0,0.0,0.0,0.0,0.0,0.0,0.0,0.0,0.0,0.0,0.0,0.0,0.0,0.0,0.0,0.0,0.0,0.0,0.0,0.0,0.0,0.0,0.0,0.0,0.0,0.0,0.0,0.0,0.0,0.0,0.0,0.0,0.0,0.0,0.0,0.0,0.0,0.0,0.0,0.0,0.0,0.0,0.0,0.0,0.0,0.0,0.0,0.0,0.0,0.0,0.0,0.0,0.0,0.0,4.3947,4.47,4.5553,4.559,4.47,4.3204,4.1589,0.0,0.0,0.0,0.0,0.0,0.0,0.0,0.0,0.0,0.0,0.0,0.0,0.0,0.0,0.0,0.0,0.0,0.0,0.0,0.0,0.0,0.0,0.0,0.0,0.0,0.0,0.0,0.0,0.0,0.0,0.0,0.0,0.0,0.0,0.0,0.0,0.0,0.0,0.0,0.0,0.0,0.0,0.0,0.0,0.0,0.0,0.0,0.0,0.0,0.0,0.0,0.0,0.0,0.0,0.0,0.0,0.0,0.0,0.0,0.0,0.0,0.0,0.0,0.0,0.0,0.0,0.0,0.0,0.0,0.0,0.0,0.0,0.0,0.0,0.0,0.0,0.0,0.0,0.0,0.0,0.0,0.0,0.0,0.0,0.0,0.0,0.0,0.0,0.0,0.0,0.0,0.0,0.0,0.0,0.0,0.0,0.0,0.0,0.0,0.0,0.0,0.0,0.0,0.0,0.0,0.0,0.0,0.0,0.0,4.559,4.7388,4.7462,4.559,4.448,4.269,0.0,0.0,0.0,0.0,0.0,0.0,0.0,0.0,0.0,0.0,0.0,0.0,0.0,0.0,0.0,0.0,0.0,0.0,0.0,0.0,0.0,0.0,0.0,0.0,0.0,0.0,0.0,0.0,0.0,0.0,0.0,0.0,0.0,0.0,0.0,0.0,0.0,0.0,0.0,0.0,0.0,0.0,0.0,0.0,0.0,0.0,0.0,0.0,0.0,0.0,0.0,0.0,0.0,0.0,0.0,0.0,0.0,0.0,0.0,0.0,0.0,0.0,0.0,0.0,0.0,0.0,0.0,0.0,0.0,0.0,0.0,0.0,0.0,0.0,0.0,0.0,0.0,0.0,0.0,0.0,0.0,0.0,0.0,0.0,0.0,0.0,0.0,0.0,0.0,0.0,0.0,0.0,0.0,0.0,0.0,0.0,0.0,0.0,0.0,0.0,0.0,0.0,0.0,0.0,0.0,0.0,0.0,0.0,0.0,5.1316,5.2197,5.151,4.9123,4.7719,4.5434,4.2249,0.0,0.0,0.0,0.0,0.0,0.0,0.0,0.0,0.0,0.0,0.0,0.0,0.0,0.0,0.0,0.0,0.0,0.0,0.0,0.0,0.0,0.0,0.0,0.0,0.0,0.0,0.0,0.0,0.0,0.0,0.0,0.0,0.0,0.0,0.0,0.0,0.0,0.0,0.0,0.0,0.0,0.0,0.0,0.0,0.0,0.0,0.0,0.0,0.0,0.0,0.0,0.0,0.0,0.0,0.0,0.0,0.0,0.0,0.0,0.0,0.0,0.0,0.0,0.0,0.0,0.0,0.0,0.0,0.0,0.0,0.0,0.0,0.0,0.0,0.0,0.0,0.0,0.0,0.0,0.0,0.0,0.0,0.0,0.0,0.0,0.0,0.0,0.0,0.0,0.0,0.0,0.0,0.0,0.0,0.0,0.0,0.0,0.0,0.0,0.0,0.0,0.0,0.0,0.0,0.0,0.0,0.0,0.0,6.0664,5.9575,5.7703,5.4913,5.2564,4.9664,0.0,0.0,0.0,0.0,0.0,0.0,0.0,0.0,0.0,0.0,0.0,0.0,0.0,0.0,0.0,0.0,0.0,0.0,0.0,0.0,0.0,0.0,0.0,0.0,0.0,0.0,0.0,0.0,0.0,0.0,0.0,0.0,0.0,0.0,0.0,0.0,0.0,0.0,0.0,0.0,0.0,0.0,0.0,0.0,0.0,0.0,0.0,0.0,0.0,0.0,0.0,0.0,0.0,0.0,0.0,0.0,0.0,0.0,0.0,0.0,0.0,0.0,0.0,0.0,0.0,0.0,0.0,0.0,0.0,0.0,0.0,0.0,0.0,0.0,0.0,0.0,0.0,0.0,0.0,0.0,0.0,0.0,0.0,0.0,0.0,0.0,0.0,0.0,0.0,0.0,0.0,0.0,0.0,0.0,0.0,0.0,0.0,0.0,0.0,0.0,0.0,0.0,0.0,0.0,0.0,0.0,0.0,0.0,0.0,6.4751,6.8531,6.7307,6.0848,5.8279,5.4645,0.0,0.0,0.0,0.0,0.0,0.0,0.0,0.0,0.0,0.0,0.0,0.0,0.0,0.0,0.0,0.0,0.0,0.0,0.0,0.0,0.0,0.0,0.0,0.0,0.0,0.0,0.0,0.0,0.0,0.0,0.0,0.0,0.0,0.0,0.0,0.0,0.0,0.0,0.0,0.0,0.0,0.0,0.0,0.0,0.0,0.0,0.0,0.0,0.0,0.0,0.0,0.0,0.0,0.0,0.0,0.0,0.0,0.0,0.0,0.0,0.0,0.0,0.0,0.0,0.0,0.0,0.0,0.0,0.0,0.0,0.0,0.0,0.0,0.0,0.0,0.0,0.0,0.0,0.0,0.0,0.0,0.0,0.0,0.0,0.0,0.0,0.0,0.0,0.0,0.0,0.0,0.0,0.0,0.0,0.0,0.0,0.0,0.0,0.0,0.0,0.0,0.0,0.0,0.0,0.0,0.0,0.0,0.0,6.2952,6.8935,7.4536,7.472,6.9032,6.4261,5.9123,0.0,0.0,0.0,0.0,0.0,0.0,0.0,0.0,0.0,0.0,0.0,0.0,0.0,0.0,0.0,0.0,0.0,0.0,0.0,0.0,0.0,0.0,0.0,0.0,0.0,0.0,0.0,0.0,0.0,0.0,0.0,0.0,0.0,0.0,0.0,0.0,0.0,0.0,0.0,0.0,0.0,0.0,0.0,0.0,0.0,0.0,0.0,0.0,0.0,0.0,0.0,0.0,0.0,0.0,0.0,0.0,0.0,0.0,0.0,0.0,0.0,0.0,0.0,0.0,0.0,0.0,0.0,0.0,0.0,0.0,0.0,0.0,0.0,0.0,0.0,0.0,0.0,0.0,0.0,0.0,0.0,0.0,0.0,0.0,0.0,0.0,0.0,0.0,0.0,0.0,0.0,0.0,0.0,0.0,0.0,0.0,0.0,0.0,0.0,0.0,0.0,0.0,0.0,0.0,0.0,0.0,0.0,0.0,6.6539,7.2804,7.8442,8.0188,7.7582,7.0132,6.3343,0.0,0.0,0.0,0.0,0.0,0.0,0.0,0.0,0.0,0.0,0.0,0.0,0.0,0.0,0.0,0.0,0.0,0.0,0.0,0.0,0.0,0.0,0.0,0.0,0.0,0.0,0.0,0.0,0.0,0.0,0.0,0.0,0.0,0.0,0.0,0.0,0.0,0.0,0.0,0.0,0.0,0.0,0.0,0.0,0.0,0.0,0.0,0.0,0.0,0.0,0.0,0.0,0.0,0.0,0.0,0.0,0.0,0.0,0.0,0.0,0.0,0.0,0.0,0.0,0.0,0.0,0.0,0.0,0.0,0.0,0.0,0.0,0.0,0.0,0.0,0.0,0.0,0.0,0.0,0.0,0.0,0.0,0.0,0.0,0.0,0.0,0.0,0.0,0.0,0.0,0.0,0.0,0.0,0.0,0.0,0.0,0.0,0.0,0.0,0.0,0.0,0.0,0.0,0.0,0.0,0.0,0.0,0.0,7.037,7.55,8.1002,8.27,8.0262,7.4221,6.8004,0.0,0.0,0.0,0.0,0.0,0.0,0.0,0.0,0.0,0.0,0.0,0.0,0.0,0.0,0.0,0.0,0.0,0.0,0.0,0.0,0.0,0.0,0.0,0.0,0.0,0.0,0.0,0.0,0.0,0.0,0.0,0.0,0.0,0.0,0.0,0.0,0.0,0.0,0.0,0.0,0.0,0.0,0.0,0.0,0.0,0.0,0.0,0.0,4.9554,0.0,0.0,0.0,0.0,0.0,0.0,0.0,0.0,0.0,0.0,0.0,0.0,0.0,0.0,0.0,0.0,0.0,0.0,0.0,0.0,0.0,0.0,0.0,0.0,0.0,0.0,0.0,0.0,0.0,0.0,0.0,0.0,0.0,0.0,0.0,0.0,0.0,0.0,0.0,0.0,0.0,0.0,0.0,0.0,0.0,0.0,0.0,0.0,0.0,0.0,0.0,0.0,0.0,0.0,0.0,0.0,0.0,0.0,0.0,7.4074,7.8766,8.2973,8.4205,8.2096,7.8112,7.2349,0.0,0.0,0.0,0.0,0.0,0.0,0.0,0.0,0.0,0.0,0.0,0.0,0.0,0.0,0.0,0.0,0.0,0.0,0.0,0.0,0.0,0.0,0.0,0.0,0.0,0.0,0.0,0.0,0.0,0.0,0.0,0.0,0.0,0.0,0.0,0.0,0.0,0.0,0.0,0.0,0.0,0.0,0.0,0.0,0.0,0.0,0.0,0.0,0.0,0.0,0.0,0.0,0.0,0.0,0.0,0.0,0.0,0.0,0.0,0.0,0.0,0.0,0.0,0.0,0.0,0.0,0.0,0.0,0.0,0.0,0.0,0.0,0.0,0.0,0.0,0.0,0.0,0.0,0.0,0.0,0.0,0.0,0.0,0.0,0.0,0.0,0.0,0.0,0.0,0.0,0.0,0.0,0.0,0.0,0.0,0.0,0.0,0.0,0.0,0.0,0.0,0.0,0.0,0.0,0.0,0.0,0.0,7.1797,7.7689,8.1829,8.4705,8.529,8.3546,8.0951,7.5529,6.7059,0.0,0.0,0.0,0.0,0.0,0.0,0.0,0.0,0.0,0.0,0.0,0.0,0.0,0.0,0.0,0.0,0.0,0.0,0.0,0.0,0.0,0.0,0.0,0.0,0.0,0.0,0.0,0.0,0.0,0.0,0.0,0.0,0.0,0.0,0.0,0.0,0.0,0.0,4.759,5.0582,0.0,0.0,0.0,0.0,0.0,0.0,0.0,0.0,5.1903,0.0,0.0,0.0,0.0,0.0,0.0,0.0,0.0,0.0,0.0,0.0,0.0,0.0,0.0,0.0,0.0,0.0,0.0,0.0,0.0,0.0,0.0,0.0,0.0,0.0,0.0,0.0,0.0,0.0,0.0,0.0,0.0,0.0,0.0,0.0,0.0,0.0,0.0,0.0,0.0,0.0,0.0,0.0,0.0,0.0,0.0,0.0,0.0,0.0,0.0,0.0,0.0,0.0,0.0,0.0,0.0,6.6509,7.5727,8.1418,8.3335,8.6169,8.6517,8.4166,8.0444,7.5176,6.8221,0.0,0.0,0.0,0.0,0.0,0.0,0.0,0.0,0.0,0.0,0.0,0.0,0.0,0.0,0.0,0.0,0.0,0.0,0.0,0.0,0.0,0.0,0.0,0.0,0.0,0.0,0.0,0.0,0.0,0.0,0.0,0.0,0.0,0.0,0.0,0.0,0.0,0.0,0.0,5.3382,5.4961,0.0,0.0,0.0,0.0,0.0,0.0,0.0,0.0,5.2113,0.0,0.0,0.0,0.0,0.0,0.0,0.0,0.0,0.0,0.0,0.0,0.0,0.0,0.0,0.0,0.0,0.0,0.0,0.0,0.0,0.0,0.0,0.0,0.0,0.0,0.0,0.0,0.0,0.0,0.0,0.0,0.0,0.0,0.0,0.0,0.0,0.0,0.0,0.0,0.0,0.0,0.0,0.0,0.0,0.0,0.0,0.0,0.0,0.0,0.0,0.0,0.0,0.0,0.0,0.0,7.138,8.0152,8.5224,8.6254,8.822,8.7394,8.3607,7.9512,7.3814,0.0,0.0,0.0,0.0,0.0,0.0,0.0,0.0,0.0,0.0,0.0,0.0,0.0,0.0,0.0,0.0,0.0,0.0,0.0,0.0,0.0,0.0,0.0,0.0,0.0,0.0,0.0,0.0,0.0,0.0,0.0,0.0,0.0,0.0,0.0,0.0,0.0,0.0,0.0,0.0,5.6686,5.8559,5.8143,0.0,0.0,0.0,0.0,0.0,0.0,5.6198,5.4583,0.0,0.0,0.0,0.0,0.0,0.0,0.0,0.0,0.0,0.0,0.0,0.0,0.0,0.0,0.0,0.0,0.0,0.0,0.0,0.0,0.0,0.0,0.0,0.0,0.0,0.0,0.0,0.0,0.0,0.0,0.0,0.0,0.0,0.0,0.0,0.0,0.0,0.0,0.0,0.0,0.0,0.0,0.0,0.0,0.0,0.0,0.0,0.0,0.0,0.0,0.0,0.0,0.0,0.0,0.0,7.533,8.3866,8.8483,8.9007,9.0031,8.8344,8.3634,7.9169,7.2984,0.0,0.0,0.0,0.0,0.0,0.0,0.0,0.0,0.0,0.0,0.0,0.0,0.0,0.0,0.0,0.0,0.0,0.0,0.0,0.0,0.0,0.0,0.0,0.0,0.0,0.0,0.0,0.0,0.0,0.0,0.0,0.0,0.0,0.0,0.0,0.0,0.0,0.0,0.0,0.0,0.0,6.1936,6.1447,6.0162,0.0,0.0,0.0,0.0,5.9648,5.9575,0.0,0.0,0.0,0.0,0.0,0.0,0.0,0.0,0.0,0.0,0.0,0.0,0.0,0.0,0.0,0.0,0.0,0.0,0.0,0.0,0.0,0.0,0.0,0.0,0.0,0.0,0.0,0.0,0.0,0.0,0.0,0.0,0.0,0.0,0.0,0.0,0.0,0.0,0.0,0.0,0.0,0.0,0.0,0.0,0.0,0.0,0.0,0.0,0.0,0.0,0.0,0.0,0.0,0.0,0.0,0.0,7.569,8.5293,9.0245,9.0311,9.0958,8.9566,8.6018,8.0494,7.4143,0.0,0.0,0.0,0.0,0.0,0.0,0.0,0.0,0.0,0.0,0.0,0.0,0.0,0.0,0.0,0.0,0.0,0.0,0.0,0.0,0.0,0.0,0.0,0.0,0.0,0.0,0.0,0.0,0.0,0.0,0.0,0.0,0.0,0.0,0.0,0.0,0.0,0.0,0.0,0.0,0.0,6.4016,6.4628,6.398,6.3649,0.0,0.0,6.3833,6.5301,6.4934,0.0,0.0,0.0,0.0,0.0,0.0,0.0,0.0,0.0,0.0,0.0,0.0,0.0,0.0,0.0,0.0,0.0,0.0,0.0,0.0,0.0,0.0,0.0,0.0,0.0,0.0,0.0,0.0,0.0,0.0,0.0,0.0,0.0,0.0,0.0,0.0,0.0,0.0,0.0,0.0,0.0,0.0,0.0,0.0,0.0,0.0,0.0,0.0,0.0,0.0,0.0,0.0,0.0,0.0,0.0,7.027,7.8023,8.7016,9.1893,9.2306,9.3033,9.1144,8.6346,8.1442,7.5178,0.0,0.0,0.0,0.0,0.0,0.0,0.0,0.0,0.0,0.0,0.0,0.0,0.0,0.0,0.0,0.0,0.0,0.0,0.0,0.0,0.0,0.0,0.0,0.0,0.0,0.0,0.0,0.0,0.0,0.0,0.0,0.0,0.0,0.0,0.0,0.0,0.0,0.0,0.0,0.0,0.0,0.0,6.8481,6.8408,0.0,0.0,0.0,6.8531,6.9743,0.0,0.0,0.0,0.0,0.0,0.0,0.0,0.0,0.0,0.0,0.0,0.0,0.0,0.0,0.0,0.0,0.0,0.0,0.0,0.0,0.0,0.0,0.0,0.0,0.0,0.0,0.0,0.0,0.0,0.0,0.0,0.0,0.0,0.0,0.0,0.0,0.0,0.0,0.0,0.0,0.0,0.0,0.0,0.0,0.0,0.0,0.0,0.0,0.0,0.0,0.0,0.0,0.0,0.0,0.0,0.0,0.0,8.0054,8.8902,9.3749,9.4364,9.4989,9.2903,8.7825,8.3393,0.0,0.0,0.0,0.0,0.0,0.0,0.0,0.0,0.0,0.0,0.0,0.0,0.0,0.0,0.0,0.0,0.0,0.0,0.0,0.0,0.0,0.0,0.0,0.0,0.0,0.0,0.0,4.2021,0.0,0.0,0.0,0.0,0.0,0.0,0.0,0.0,0.0,0.0,0.0,0.0,0.0,0.0,7.0,7.2188,7.3215,7.3656,0.0,0.0,7.3949,7.4551,7.5469,7.4478,0.0,0.0,0.0,0.0,0.0,0.0,0.0,0.0,0.0,0.0,0.0,0.0,0.0,0.0,0.0,0.0,0.0,0.0,0.0,0.0,0.0,0.0,0.0,0.0,0.0,0.0,0.0,0.0,0.0,0.0,0.0,0.0,0.0,0.0,0.0,0.0,0.0,0.0,0.0,0.0,0.0,0.0,0.0,0.0,0.0,0.0,0.0,0.0,0.0,0.0,0.0,0.0,0.0,0.0,0.0,8.1016,9.0941,9.6057,9.6134,9.6172,9.4903,9.2095,8.7162,8.0907,0.0,0.0,0.0,0.0,0.0,0.0,0.0,0.0,0.0,0.0,0.0,0.0,0.0,0.0,0.0,0.0,0.0,0.0,0.0,0.0,0.0,0.0,0.0,0.0,0.0,0.0,0.0,0.0,0.0,0.0,0.0,0.0,0.0,0.0,0.0,0.0,0.0,0.0,0.0,0.0,0.0,7.3905,7.5542,7.8405,8.0094,0.0,0.0,8.0372,8.0424,7.9874,7.7818,7.2973,0.0,0.0,0.0,0.0,0.0,0.0,0.0,0.0,0.0,0.0,0.0,0.0,0.0,0.0,0.0,0.0,0.0,0.0,0.0,0.0,0.0,0.0,0.0,0.0,0.0,0.0,0.0,0.0,0.0,0.0,0.0,0.0,0.0,0.0,0.0,0.0,0.0,0.0,0.0,0.0,0.0,0.0,0.0,0.0,0.0,0.0,0.0,0.0,0.0,0.0,0.0,0.0,0.0,7.3976,8.2601,9.2133,9.7288,9.7827,9.8365,9.7182,9.4104,9.1133,8.5739,0.0,0.0,0.0,0.0,0.0,0.0,0.0,0.0,0.0,0.0,0.0,0.0,0.0,0.0,0.0,0.0,0.0,0.0,0.0,0.0,0.0,0.0,0.0,0.0,0.0,0.0,0.0,0.0,4.7985,4.8095,4.7856,0.0,0.0,0.0,0.0,0.0,0.0,0.0,0.0,0.0,0.0,7.8222,8.0314,8.3361,0.0,0.0,8.5343,8.5656,8.4168,8.3287,8.0938,7.5579,6.9229,0.0,0.0,0.0,0.0,0.0,0.0,0.0,0.0,0.0,0.0,0.0,0.0,0.0,0.0,0.0,0.0,0.0,0.0,0.0,0.0,0.0,0.0,0.0,0.0,0.0,0.0,0.0,0.0,0.0,0.0,0.0,0.0,0.0,0.0,0.0,0.0,0.0,0.0,0.0,0.0,0.0,0.0,0.0,0.0,0.0,0.0,0.0,0.0,0.0,0.0,0.0,0.0,7.4668,8.3909,9.3403,9.8605,9.9183,10.0019,9.8942,9.5865,9.4134,8.9363,0.0,0.0,0.0,0.0,0.0,0.0,0.0,0.0,0.0,0.0,0.0,0.0,0.0,0.0,0.0,0.0,0.0,0.0,0.0,0.0,0.0,0.0,0.0,0.0,0.0,0.0,0.0,0.0,5.0812,5.0251,4.9187,0.0,0.0,0.0,0.0,0.0,0.0,0.0,0.0,0.0,0.0,8.1452,8.4115,8.7198,8.9087,8.8536,8.9381,8.9307,8.6885,8.527,8.2537,7.7635,0.0,0.0,0.0,0.0,0.0,0.0,0.0,0.0,0.0,0.0,0.0,0.0,0.0,0.0,0.0,0.0,0.0,0.0,0.0,0.0,0.0,0.0,0.0,0.0,0.0,0.0,0.0,5.1918,0.0,0.0,5.0851,0.0,0.0,0.0,0.0,0.0,0.0,0.0,0.0,0.0,0.0,0.0,0.0,0.0,0.0,0.0,0.0,0.0,0.0,0.0,0.0,0.0,0.0,7.5515,8.4816,9.4912,10.0067,10.0106,10.0866,10.0087,9.7557,9.5865,9.1373,8.364,0.0,0.0,0.0,0.0,0.0,0.0,0.0,0.0,0.0,0.0,0.0,0.0,0.0,0.0,0.0,0.0,0.0,0.0,0.0,0.0,0.0,0.0,0.0,0.0,0.0,0.0,5.4069,5.3555,5.2417,0.0,0.0,0.0,0.0,0.0,0.0,0.0,0.0,0.0,0.0,7.8038,8.3324,8.6464,8.9674,9.1693,9.1693,9.173,9.0922,8.8463,8.549,8.2317,0.0,0.0,0.0,0.0,0.0,0.0,0.0,0.0,0.0,0.0,0.0,0.0,0.0,0.0,0.0,0.0,0.0,0.0,0.0,0.0,0.0,0.0,0.0,0.0,0.0,0.0,0.0,6.0819,5.9429,0.0,0.0,0.0,0.0,0.0,0.0,0.0,0.0,0.0,0.0,0.0,7.89,7.8631,0.0,0.0,0.0,0.0,0.0,0.0,0.0,0.0,0.0,0.0,0.0,0.0,7.72,8.6517,9.6596,10.175,10.1789,10.3135,10.2635,10.0096,9.8942,9.3219,8.2285,0.0,0.0,0.0,0.0,0.0,0.0,0.0,0.0,0.0,0.0,0.0,0.0,0.0,0.0,0.0,0.0,0.0,0.0,0.0,0.0,0.0,0.0,0.0,0.0,0.0,5.517,0.0,0.0,0.0,0.0,0.0,0.0,0.0,0.0,0.0,0.0,0.0,7.0146,7.5799,8.1195,8.5563,8.8225,9.1822,9.4079,0.0,0.0,0.0,0.0,0.0,0.0,0.0,0.0,0.0,0.0,0.0,0.0,0.0,0.0,7.7289,7.3546,7.2628,7.2445,7.2445,0.0,0.0,0.0,0.0,0.0,0.0,0.0,0.0,0.0,0.0,0.0,0.0,0.0,0.0,6.9744,0.0,6.5782,0.0,0.0,0.0,0.0,0.0,0.0,0.0,0.0,8.4593,8.8064,8.891,8.9487,8.9902,0.0,8.8709,8.2862,0.0,0.0,0.0,0.0,0.0,0.0,0.0,0.0,7.8938,8.8209,9.7711,10.2751,10.3097,10.4405,10.402,10.1827,9.9827,9.4335,8.4901,7.8323,7.1475,0.0,0.0,0.0,0.0,0.0,0.0,0.0,0.0,0.0,0.0,0.0,0.0,0.0,0.0,0.0,0.0,0.0,0.0,0.0,0.0,0.0,0.0,0.0,5.8253,0.0,0.0,0.0,0.0,0.0,0.0,0.0,0.0,0.0,6.6389,7.0866,7.5946,8.0498,8.4792,8.8463,9.1161,0.0,0.0,0.0,0.0,0.0,0.0,0.0,8.4959,8.3398,8.2243,8.206,8.3765,8.56,8.7362,8.8904,0.0,0.0,8.3858,8.2537,8.237,8.2353,8.2353,8.217,8.1672,8.2884,8.4278,0.0,0.0,0.0,0.0,0.0,0.0,0.0,0.0,8.0662,7.9361,0.0,7.4252,0.0,0.0,0.0,0.0,0.0,7.3707,0.0,0.0,9.4057,9.8134,9.8981,10.0481,10.0943,10.0221,9.9144,9.6095,9.071,7.8015,0.0,0.0,0.0,0.0,0.0,0.0,8.0746,8.9893,9.8404,10.3097,10.3943,10.4751,10.4366,10.2674,9.8711,9.498,9.1479,8.5747,7.9515,7.2899,6.846,0.0,0.0,0.0,0.0,0.0,0.0,0.0,0.0,0.0,0.0,0.0,0.0,0.0,0.0,0.0,0.0,0.0,0.0,0.0,0.0,6.2561,0.0,0.0,0.0,0.0,0.0,0.0,0.0,0.0,0.0,0.0,7.356,7.7231,8.1542,8.547,0.0,0.0,0.0,0.0,9.8264,9.8998,9.8484,9.7182,9.4777,9.1767,8.9693,8.973,0.0,0.0,9.4153,9.5327,9.5822,9.5859,9.7163,9.7163,9.4079,9.2464,9.1803,9.1895,9.173,9.195,9.2189,9.2831,9.4299,9.3518,0.0,0.0,0.0,0.0,8.7786,9.0441,9.271,9.1287,9.0026,8.8756,8.4786,0.0,0.0,0.0,0.0,0.0,0.0,8.7478,9.3595,9.9365,10.2481,10.3328,10.4405,10.4482,10.3607,10.2212,10.0135,9.7326,9.0556,8.1823,7.1468,0.0,0.0,0.0,0.0,8.4209,9.1748,10.0096,10.4482,10.4761,10.5597,10.552,10.4405,10.1443,9.9135,9.7567,9.2402,8.7286,8.2285,7.6346,0.0,0.0,0.0,0.0,0.0,0.0,0.0,0.0,0.0,0.0,0.0,0.0,0.0,0.0,0.0,0.0,0.0,0.0,0.0,6.6901,6.7922,6.728,0.0,0.0,0.0,0.0,0.0,0.0,0.0,0.0,0.0,8.5196,8.6097,8.7509,0.0,0.0,9.4006,9.6061,9.8227,9.9695,9.9952,10.0246,0.0,9.8007,9.6465,9.5658,9.6226,9.8227,10.065,10.335,10.3476,10.3439,10.3953,10.4027,10.3623,10.2669,9.9475,9.7236,9.7016,9.7016,9.7199,9.7787,9.8741,9.9842,10.5097,9.6086,9.5134,9.5095,9.598,9.8981,10.1904,10.4443,10.3135,10.2068,10.0943,9.6442,9.2249,8.844,8.5055,0.0,0.0,0.0,9.4595,9.9481,10.4212,10.6674,10.7175,10.8329,10.829,10.7059,10.5751,10.4251,10.2558,9.9327,9.321,8.417,0.0,0.0,7.8046,8.2854,8.8325,9.448,10.1481,10.5261,10.5597,10.6136,10.6174,10.5597,10.3789,10.2443,10.1606,9.7365,9.3172,8.9248,8.2978,7.6592,0.0,0.0,0.0,0.0,0.0,0.0,0.0,0.0,0.0,0.0,0.0,5.2069,5.3582,0.0,0.0,0.0,6.4618,6.9188,7.2484,7.3636,0.0,0.0,0.0,0.0,0.0,0.0,0.0,8.4426,8.8284,9.1546,9.4079,9.4831,9.4923,9.4299,9.5934,9.7603,9.8888,0.0,10.2228,10.2191,10.2889,10.2962,10.1714,10.0796,10.065,10.1824,10.3806,10.5862,10.7682,10.7661,10.7551,10.7844,10.7661,10.733,10.7367,10.4871,10.2705,10.2155,10.2265,10.2632,10.3129,10.3843,10.4687,11.3753,11.1906,10.7251,10.5944,10.7213,10.9637,11.2571,11.5561,11.4714,11.3907,11.2753,10.7905,10.3799,10.0183,9.4711,0.0,9.5989,9.8404,10.1289,10.4674,10.8647,11.0521,11.056,11.2137,11.2022,11.0367,10.9444,10.8175,10.6549,10.4866,10.2443,9.9058,8.8325,8.3862,8.5778,8.8893,9.2894,9.7788,10.2674,10.5597,10.6395,10.6395,10.6395,10.6395,10.5636,10.4828,10.4059,10.0952,9.7711,9.4441,8.8786,8.2939,7.7092,0.0,0.0,0.0,0.0,0.0,0.0,0.0,0.0,0.0,0.0,0.0,0.0,0.0,0.0,0.0,7.1184,0.0,7.8233,7.9739,0.0,0.0,0.0,7.6768,8.1631,8.4774,8.8339,9.2938,0.0,0.0,10.0546,10.275,10.2803,9.9167,10.069,10.2338,10.3072,10.4483,10.5474,10.5495,10.6229,10.6486,10.5694,10.5018,10.5018,10.6376,10.7388,10.8138,10.8872,10.9019,10.8982,10.9019,10.8982,10.8982,10.8982,10.8762,10.8542,10.7037,10.7168,10.7572,10.7572,10.8064,10.8542,12.0177,11.91,11.7919,11.5368,11.2368,11.4214,11.6561,11.8985,11.8215,11.7407,11.633,11.256,10.8329,10.3799,10.1789,10.1904,10.3751,10.502,10.7059,10.979,11.2022,11.3099,11.3137,11.4176,11.3791,11.2099,11.0598,10.9329,10.8252,10.6636,10.5059,10.3482,10.0135,9.648,9.2835,9.4672,9.724,10.0356,10.4135,10.6213,10.6395,10.6395,10.6395,10.6395,10.6203,10.602,10.579,10.3789,10.202,10.0442,9.4826,8.921,8.3939,7.7046,0.0,0.0,0.0,0.0,0.0,0.0,0.0,0.0,0.0,6.2733,6.5963,0.0,7.0402,0.0,7.7197,8.1636,8.3907,8.6945,0.0,0.0,8.5951,8.7018,9.0879,9.2886,9.5518,9.9514,10.1507,10.3075,10.4532,10.5632,10.6176,10.5787,10.6496,10.7147,10.7367,10.8175,10.8835,10.8857,10.9386,10.9973,10.9643,10.9606,10.9496,11.001,11.0193,11.0414,11.0597,11.0634,11.0634,11.0634,11.0634,11.0634,11.0597,11.0634,11.0744,11.0781,10.9679,10.8688,10.9297,10.9628,10.99,12.3139,12.2716,12.2716,12.1293,11.91,11.9638,12.11,12.3062,12.2254,12.1408,12.0408,11.7023,11.3753,11.0752,10.9483,10.9483,11.0367,11.0444,11.1291,11.2637,11.3599,11.3984,11.4022,11.4484,11.383,11.2137,11.0444,10.9367,10.8829,10.7203,10.6521,10.6751,10.6328,10.4482,10.1327,10.0981,10.175,10.3548,10.6164,10.751,10.7482,10.7175,10.678,10.6395,10.602,10.5482,10.4751,10.3443,10.2366,10.1404,9.6519,9.1902,8.7932,8.1277,7.4322,0.0,0.0,0.0,0.0,0.0,0.0,0.0,0.0,0.0,0.0,0.0,7.8216,7.9824,8.3589,8.7158,9.016,9.3461,9.549,9.5477,9.5654,9.6856,9.9655,10.1153,10.3065,10.5867,10.7178,10.8081,10.8764,10.9188,10.9641,11.0123,11.0326,11.0096,10.9329,10.9723,11.0254,11.0184,11.0736,11.1221,11.1221,11.1221,11.1221,11.1221,11.1221,11.1221,11.1221,11.1221,11.1221,11.1221,11.1221,11.1221,11.1221,11.1221,11.1478,11.1992,11.1368,11.0817,11.1464,11.161,11.1772,12.4486,12.4293,12.4409,12.4947,12.5678,12.4909,12.5409,12.6652,12.587,12.4947,12.3755,12.0754,11.8831,11.7715,11.6138,11.5418,11.5253,11.4407,11.406,11.4176,11.4291,11.4368,11.4484,11.4599,11.3714,11.1945,11.0214,10.9252,10.9021,10.7598,10.7675,10.9175,10.9444,10.956,10.9444,10.7328,10.6405,10.6751,10.8136,10.8906,10.8867,10.8136,10.729,10.6433,10.5443,10.4135,10.2481,10.152,10.0673,9.9837,9.6066,9.2749,9.0278,8.4863,7.8784,0.0,7.1091,0.0,0.0,0.0,0.0,0.0,0.0,0.0,0.0,8.4447,8.6055,8.8479,9.0201,9.2706,9.6411,9.9358,10.1781,10.3409,10.4275,10.5421,10.719,10.8551,10.9856,11.1359,11.2258,11.2682,11.2463,11.27,11.2849,11.2925,11.2812,11.221,11.0682,11.0663,11.0865,11.0556,11.0919,11.1221,11.1221,11.1221,11.1221,11.1221,11.1221,11.1221,11.1221,11.1221,11.1221,11.1221,11.1331,11.1368,11.1368,11.1478,11.1808,11.2653,11.2726,11.28,11.3263,11.3373,11.3593,12.6371,12.5216,12.5909,12.6678,12.7409,12.7255,12.6986,12.6678,12.6524,12.5216,12.3062,12.1716,11.9869,11.7781,11.6715,11.5907,11.5253,11.4368,11.4368,11.5061,11.5726,11.6407,11.71,11.783,11.6907,11.4561,11.2829,11.1291,10.9944,10.9637,10.9983,11.1021,11.2368,11.3022,11.3022,0.0,0.0,0.0,10.8752,10.8906,10.8867,10.8136,10.729,10.6395,10.4905,0.0,10.1597,10.0096,9.9173,9.8942,9.6297,0.0,0.0,0.0,0.0,0.0,0.0,0.0,0.0,0.0,0.0,0.0,9.1133,9.1825,8.9787,9.1547,9.3595,9.5441,9.7134,9.8971,10.0993,10.3913,10.6184,10.7388,10.8122,10.9284,11.1054,11.1466,11.2093,11.3578,11.3732,11.3791,11.4171,11.438,11.4592,11.4825,11.4665,11.4482,11.4251,11.2945,11.2103,11.1811,11.1509,11.1243,11.1221,11.1243,11.1309,11.1221,11.1221,11.1243,11.1265,11.1243,11.1221,11.1243,11.1735,11.2139,11.2176,11.2689,11.3277,11.4194,11.4305,11.4194,11.3703,11.3593,11.3593,12.8322,12.7628,12.8063,12.8476,0.0,12.8824,12.8592,12.8195,12.7556,12.6101,12.4024,12.2331,12.0408,11.8331,11.6215,11.4599,11.3368,11.206,11.2175,11.3483,11.4714,11.5945,11.7176,11.8484,11.7984,11.583,11.3714,11.2252,11.1445,11.0598,11.0829,11.2088,11.3368,11.3984,11.3984,11.3984,11.3137,11.1445,11.1406,11.1406,11.1368,11.0214,10.8934,10.7636,10.5597,0.0,0.0,0.0,0.0,0.0,0.0,0.0,0.0,0.0,0.0,8.4401,8.417,8.3785,8.3123,8.7248,9.1518,9.5326,9.9865,10.1096,9.7711,9.8673,10.0096,10.175,10.3097,10.4692,10.6707,10.8673,11.0176,11.1154,11.2299,11.3412,11.4292,11.5101,11.5836,11.6465,11.6187,11.5994,11.6511,11.6023,11.6043,11.6485,11.6081,11.5807,11.5822,11.4383,11.3001,11.2398,11.2087,11.1837,11.1874,11.1837,11.1837,11.1837,11.1837,11.1837,11.1837,11.1731,11.1662,11.1592,11.2109,11.2514,11.2455,11.302,11.385,11.4598,11.4818,11.4855,11.4708,11.4782,11.4745,13.0262,13.0107,13.0262,13.03,13.03,13.03,13.0243,12.9983,0.0,0.0,0.0,12.3189,12.1254,11.9331,11.6292,11.3984,11.2291,11.0598,11.0714,11.2445,11.4137,11.5715,11.7215,11.8946,11.8792,11.6907,11.4676,11.3483,11.3137,11.1752,11.1791,11.3137,11.4022,11.4445,11.4445,11.4445,11.4445,11.4407,11.4137,11.3984,11.3945,11.2368,11.0752,10.9175,10.6521,10.3645,10.0683,10.026,9.976,9.9067,9.8365,9.8019,9.8096,9.6172,9.4095,9.2163,9.2749,9.2979,9.247,9.5942,9.925,10.1904,10.6097,10.7482,10.4982,10.4943,10.5636,10.7164,10.8098,10.9444,11.1511,11.2434,11.3291,11.4176,11.5484,11.6292,11.6715,11.7946,11.8654,11.8985,11.8373,11.8161,11.8446,11.7701,11.7344,11.793,11.7416,11.6667,11.6378,11.5011,11.3667,11.2963,11.2773,11.2753,11.2734,11.2753,11.2771,11.2753,11.2753,11.2771,11.2695,11.2556,11.2297,11.1992,11.2517,11.2881,11.2779,11.346,11.4194,11.4892,11.5039,11.5185,11.581,11.5993,11.592,13.1871,13.1334,13.2027,13.2299,13.2299,13.2299,13.1879,13.102,12.9041,12.718,12.5524,12.5072,12.3524,12.115,11.9215,11.7446,11.5715,11.406,11.4214,11.5869,11.7561,11.8869,11.9831,12.1562,12.11,11.8792,11.76,11.6369,11.5022,11.4676,11.4714,11.4984,11.5764,11.6149,11.6138,11.6149,11.6149,11.6099,11.4753,11.3984,11.3945,11.2357,11.1021,10.9955,10.6877,10.4212,10.2327,10.0904,10.0067,9.9913,9.9798,10.0019,10.0712,10.0433,10.0048,9.9779,10.0519,10.1289,10.1866,10.3866,10.6405,10.956,11.1203,11.0906,10.8482,10.8867,10.9713,11.0714,11.1522,11.2088,11.2599,11.3445,11.433,11.5022,11.533,11.6022,11.7446,11.7869,11.8369,11.9061,11.9023,11.89,11.8977,11.9022,11.916,11.9392,11.8612,11.7538,11.6235,11.5207,11.444,11.3844,11.3692,11.3692,11.3695,11.3692,11.3695,11.3729,11.3695,11.3678,11.3678,11.3436,11.3038,11.2507,11.3411,11.3874,11.3566,11.4672,11.5429,11.5759,11.5736,11.5846,11.5993,11.5993,11.5993,13.2854,13.2582,13.2932,13.3088,13.3088,13.3088,13.2558,13.1652,13.0547,12.8967,12.706,12.5924,12.4255,12.2177,12.0062,11.8138,11.6407,11.4753,11.4907,11.6572,11.8292,11.9754,12.1023,12.2293,12.2293,12.11,11.9792,11.8561,11.7407,11.6869,11.6407,11.5995,11.6341,11.6484,11.6484,11.6484,11.6484,11.6484,11.5764,11.5368,11.533,11.4176,11.3137,11.2252,10.9367,10.7059,10.5405,10.4174,10.3289,10.2837,10.3251,10.3674,10.4049,10.4087,10.4049,10.4087,10.4905,10.552,10.5944,10.7982,11.0252,11.2637,11.3637,11.3637,11.2494,11.2763,11.3302,11.4137,11.4945,11.5676,11.6138,11.6522,11.6907,11.7292,11.733,11.7677,11.8331,11.8523,11.8831,11.9562,11.9369,11.9423,12.0261,12.0141,12.0234,12.0564,11.9632,11.811,11.6459,11.5918,11.5438,11.4717,11.4549,11.4533,11.4549,11.4549,11.4549,11.4549,11.4549,11.4549,11.4518,11.4265,11.3835,11.3406,11.4194,11.4602,11.4087,11.5163,11.5956,11.6016,11.5993,11.5993,11.5993,11.5993,11.5993,13.3485,13.3485,13.3485,13.3485,13.3482,13.3485,13.3056,13.2352,13.1885,13.0635,12.8769,12.6949,12.5189,12.3421,12.1231,11.9437,11.7875,11.638,11.6522,11.8023,11.9523,12.0946,12.2139,12.287,12.3062,12.2754,12.1331,12.0177,11.9369,11.8484,11.7561,11.6611,11.6484,11.6484,11.6484,11.6484,11.6484,11.6484,11.6484,11.6484,11.6457,11.5726,11.4984,11.4214,11.1983,11.0137,10.8906,10.801,10.7251,10.6636,10.7175,10.7626,10.7818,10.7829,10.7905,10.8136,10.8752,10.9136,10.9252,11.1291,11.3176,11.4445,11.5561,11.6176,11.6176,11.6341,11.6484,11.683,11.7484,11.8292,11.8754,11.8985,11.91,11.91,11.91,11.91,11.9331,11.9369,11.9677,12.0331,12.0023,12.0216,12.1112,12.1023,12.0704,12.0627,11.9869,11.8484,11.6907,11.6484,11.614,11.5688,11.5408,11.5421,11.5408,11.5408,11.5421,11.5394,11.5408,11.5435,11.538,11.5169,11.4747,11.4373,11.4986,11.5224,11.4738,11.553,11.624,11.6131,11.5993,11.5993,11.5993,11.6213,11.6177,13.375,13.3787,13.375,13.3748,13.375,13.375,13.3622,13.3397,13.2431,13.1402,13.026,12.891,12.7291,12.5623,12.437,12.327,12.23,12.1351,12.137,12.2254,12.3216,12.3716,12.3832,12.3947,12.3601,12.2908,12.1908,12.1035,12.01,11.9331,11.8138,11.6688,11.6484,11.6572,11.6522,11.6534,11.6522,11.6534,11.6484,11.6484,11.6457,11.5715,11.5253,11.5176,11.3407,11.2406,11.2165,11.1483,11.0972,11.0934,11.0906,11.1318,11.1934,11.2099,11.2445,11.3099,11.3291,11.3407,11.3483,11.5022,11.6034,11.638,11.7753,11.86,11.8677,11.9331,11.9138,11.8254,11.8523,11.91,11.91,11.9177,11.9215,11.9331,11.9177,11.9369,11.9985,12.0177,12.0523,12.137,12.1139,12.142,12.1497,12.1458,12.0881,11.9715,11.9369,11.8484,11.6869,11.6484,11.6484,11.6332,11.6332,11.6309,11.6285,11.6343,11.625,11.6285,11.632,11.6262,11.6128,11.5994,11.5727,11.5159,11.5905,11.6125,11.5595,11.5934,11.671,11.6357,11.6153,11.6016,11.6066,11.647,11.6617,13.3789,13.3789,13.3789,13.3789,13.3789,13.3789,13.3787,13.3659,13.3194,13.2448,13.1531,13.0411,12.8801,12.689,12.6258,12.5792,12.5411,12.4846,12.4793,12.514,12.5486,12.564,12.5601,12.5101,12.4447,12.3601,12.2754,12.1639,12.0369,11.9485,11.8715,11.81,11.8061,11.8023,11.8061,11.8023,11.8061,11.8023,11.8023,11.8023,11.7869,11.6688,11.6253,11.6561,11.5138,11.4484,11.4753,11.3714,11.2983,11.2983,11.2983,11.3137,11.3445,11.3445,11.3599,11.3984,11.3984,11.4445,11.5418,11.6138,11.6946,11.7946,11.8677,11.91,11.9138,11.9831,11.9946,11.9523,12.0062,12.0562,12.0523,12.01,11.9985,12.0292,11.9715,11.9446,12.0216,11.9908,11.9908,12.0677,12.0831,12.1062,12.1458,12.1612,12.0869,11.9523,11.91,11.8446,11.6869,11.6484,11.6484,11.6484,11.6484,11.6484,11.6484,11.6484,11.6484,11.6484,11.6484,11.6484,11.6462,11.6347,11.6069,11.5636,11.654,11.6778,11.5896,11.6739,11.7552,11.6947,11.6536,11.6379,11.6281,11.6379,11.631,13.3789,13.3789,13.3789,13.3789,13.3789,13.3789,13.3788,13.3746,13.3695,13.3173,13.23,13.1563,13.0282,12.8597,12.7689,12.7276,12.7216,12.6983,12.683,12.6807,12.681,12.6775,12.6623,12.5818,12.5063,12.437,12.337,12.1985,12.0408,11.9754,11.9331,11.9138,11.91,11.91,11.91,11.91,11.91,11.91,11.91,11.91,11.8946,11.7869,11.7523,11.7984,11.6984,11.6599,11.7149,11.6061,11.5407,11.5407,11.5407,11.5407,11.5407,11.5407,11.5407,11.5407,11.5407,11.5907,11.7149,11.7649,11.8446,11.9638,12.0139,12.0369,12.0292,12.0677,12.0869,12.0677,12.1227,12.1535,12.1497,12.1023,12.0985,12.1408,12.0408,12.0062,12.0562,12.01,12.01,12.0562,12.0831,12.0869,12.1458,12.1535,12.1023,11.9792,11.9446,11.8985,11.7638,11.7253,11.7253,11.7176,11.7061,11.6753,11.6561,11.6484,11.6484,11.6484,11.6484,11.6484,11.6484,11.6393,11.6335,11.6134,11.7022,11.7159,11.6421,11.7111,11.7868,11.7402,11.6929,11.6634,11.6572,11.6312,11.5952,13.3789,13.3789,13.3789,13.3789,13.3789,13.3789,13.3789,13.3789,13.3789,13.3281,13.2578,13.2422,13.1829,13.0734,12.8785,12.7717,12.758,12.7436,12.7234,12.7104,12.7015,12.6905,12.6741,12.5854,12.537,12.5101,12.3793,12.2216,12.0562,12.0369,11.9831,11.9254,11.9408,11.9254,11.9369,11.9408,11.9177,11.9408,11.9331,11.9215,11.9177,11.9061,11.9023,11.9138,11.8946,11.8792,11.8908,11.8869,11.8754,11.8831,11.8638,11.8715,11.8792,11.8754,11.8638,11.8715,11.8754,11.8792,11.9061,12.0254,12.1227,12.1612,12.2639,12.3408,12.2447,12.2447,12.2177,12.16,12.1535,12.1612,12.1612,12.137,12.137,12.1574,12.1497,12.1331,12.1458,12.1304,12.1458,12.1458,12.142,12.1458,12.1574,12.1612,12.1139,12.0446,12.0216,11.9831,11.9023,11.8831,11.8792,11.8638,11.8177,11.7484,11.6715,11.6495,11.6484,11.6484,11.6484,11.6484,11.6484,11.6484,11.6462,11.6559,11.7053,11.7129,11.6722,11.6798,11.7262,11.7147,11.6814,11.6601,11.7069,11.644,11.5964,13.3789,13.3789,13.3789,13.3789,13.3789,13.3789,13.3789,13.3789,13.3789,13.3632,13.3281,13.2773,13.2264,13.1863,13.0488,12.9406,12.8687,12.8448,12.8,12.7458,12.7167,12.7049,12.6927,12.6475,12.5909,12.5332,12.4793,12.3909,12.287,12.2716,12.2601,12.237,12.2293,12.2293,12.2216,12.1793,12.1523,12.1485,12.1023,12.0716,12.0639,12.0677,12.0946,12.1408,11.9946,11.9331,11.9831,11.9369,11.91,11.91,11.91,11.91,11.91,11.91,11.91,11.91,11.91,11.9331,11.9908,12.0958,12.187,12.2447,12.3447,12.3793,12.3101,12.287,12.2524,12.1831,12.1612,12.1612,12.1497,12.11,12.0985,12.142,12.1139,12.1062,12.1458,12.1612,12.1612,12.1612,12.1612,12.1612,12.1612,12.1612,12.1227,12.0485,12.0292,11.9985,11.9369,11.91,11.9215,11.91,11.8831,11.8331,11.7446,11.6792,11.6534,11.6495,11.6484,11.6484,11.6484,11.6484,11.6473,11.6527,11.6965,11.7142,11.6833,11.6926,11.7254,11.7524,11.7141,11.6894,11.7648,11.664,11.5979,13.3789,13.3789,13.3789,13.3789,13.3789,13.3789,13.3789,13.3789,13.3789,13.3789,13.3672,13.3164,13.289,13.277,13.2174,13.1169,12.9921,12.9341,12.8592,12.7788,12.7449,12.7303,12.7207,12.7015,12.6556,12.5971,12.5581,12.4995,12.4178,12.4101,12.4101,12.4062,12.4101,12.4101,12.3985,12.3562,12.3178,12.2831,12.2293,12.187,12.1651,12.1612,12.2024,12.2524,12.1216,12.0716,12.1485,12.0985,12.0716,12.0716,12.0716,12.0716,12.0716,12.0716,12.0716,12.0716,12.0754,12.0946,12.1523,12.2331,12.3101,12.3678,12.4447,12.4524,12.3485,12.3293,12.2754,12.192,12.1612,12.1612,12.1497,12.1062,12.0997,12.142,12.1073,12.0946,12.1485,12.1574,12.1612,12.1612,12.1612,12.1612,12.1612,12.1612,12.1343,12.0754,12.0716,12.0446,12.0062,11.9908,11.9908,11.9869,11.9715,11.9331,11.86,11.7869,11.6869,11.6638,11.6484,11.6484,11.6484,11.6484,11.6561,11.6627,11.6789,11.6968,11.7131,11.7181,11.7493,11.7922,11.7402,11.683,11.6933,11.6575,11.5934,13.3789,13.3789,13.3789,13.3789,13.3789,13.3789,13.3789,13.3789,13.3789,13.3789,13.3789,13.3711,13.3632,13.3672,13.3515,13.2734,13.1086,13.003,12.9054,12.8129,12.7961,12.7752,12.7589,12.7482,12.7254,12.689,12.6107,12.5154,12.437,12.4409,12.437,12.4216,12.437,12.4447,12.4178,12.4178,12.3755,12.3255,12.2985,12.2524,12.1766,12.1793,12.2254,12.2985,12.2858,12.3216,12.3985,12.3909,12.3678,12.3755,12.3793,12.4024,12.3678,12.3678,12.387,12.3678,12.387,12.3947,12.3985,12.4639,12.4986,12.5216,12.6063,12.5755,12.4447,12.4101,12.3485,12.2216,12.1766,12.1689,12.1793,12.1689,12.16,12.1574,12.1458,12.1497,12.1574,12.1612,12.1612,12.1612,12.1612,12.1612,12.1612,12.1612,12.1497,12.1458,12.142,12.137,12.1227,12.1139,12.1458,12.1304,12.0793,12.0177,11.96,11.8946,11.7792,11.683,11.6599,11.6484,11.6484,11.6484,11.6715,11.683,11.733,11.7523,11.76,11.7653,11.7731,11.7921,11.7254,11.7199,11.7273,11.7099,11.5873,13.3789,13.3789,13.3789,13.3789,13.3789,13.3789,13.3789,13.3789,13.3789,13.3789,13.3789,13.3789,13.3789,13.3789,13.3789,13.2851,13.125,13.0772,12.985,12.8669,12.8733,12.8504,12.8036,12.8203,12.7945,12.7196,12.6795,12.6393,12.5931,12.5844,12.5909,12.587,12.5832,12.587,12.5794,12.5332,12.4832,12.4601,12.4024,12.3562,12.3332,12.3293,12.3716,12.4486,12.4601,12.5024,12.5755,12.4755,12.4139,12.4139,12.4101,12.4101,12.4101,12.4101,12.4101,12.4101,12.4101,12.4101,12.4216,12.4909,12.5447,12.5563,12.6217,12.6101,12.5216,12.4947,12.4447,12.337,12.287,12.2678,12.3101,12.2793,12.2293,12.1677,12.1612,12.1689,12.1727,12.1651,12.1612,12.1612,12.1612,12.1612,12.1612,12.1612,12.1612,12.1612,12.1612,12.1612,12.1612,12.1612,12.1574,12.1535,12.1177,12.0908,12.0292,11.9715,11.8831,11.7715,11.7176,11.6599,11.6534,11.6715,11.6907,11.7292,11.7753,11.8023,11.81,11.8181,11.8265,11.8607,11.8689,11.8625,11.8542,11.7709,11.6455,13.3789,13.3789,13.3789,13.3789,13.3789,13.3789,13.3789,13.3789,13.3789,13.3789,13.3789,13.3789,13.3789,13.3789,13.3789,13.3008,13.1758,13.1679,13.0897,12.9638,12.9399,12.9026,12.8254,12.8421,12.8236,12.7494,12.7281,12.7093,12.6833,12.6775,12.6739,12.669,12.6717,12.6678,12.669,12.6178,12.5755,12.537,12.487,12.4447,12.4139,12.4101,12.4524,12.5255,12.5409,12.5832,12.6537,12.5601,12.5063,12.5063,12.5063,12.5063,12.5063,12.5101,12.5063,12.5063,12.5063,12.5101,12.5101,12.564,12.587,12.5986,12.6409,12.6294,12.5601,12.5409,12.5024,12.4178,12.337,12.3255,12.3793,12.337,12.2793,12.2601,12.2562,12.2524,12.2485,12.2254,12.21,12.2062,12.1843,12.1651,12.1612,12.1612,12.1612,12.1612,12.1612,12.1612,12.1612,12.1612,12.1612,12.1612,12.1497,12.1189,12.0869,12.0369,11.9831,11.8831,11.7907,11.7138,11.6649,11.7061,11.733,11.8023,11.8561,11.86,11.8638,11.8754,11.8888,11.9411,11.9736,11.9239,11.8754,11.8153,11.7124,13.3789,13.3789,13.3789,13.3789,13.3789,13.3789,13.3789,13.3789,13.3789,13.3789,13.3789,13.3789,13.3789,13.3789,13.3789,13.3242,13.2578,13.2383,13.1875,13.0976,13.0373,12.9678,12.9142,12.8843,12.8572,12.8177,12.7938,12.7639,12.7423,12.7164,12.686,12.6856,12.6794,12.6717,12.669,12.6678,12.6255,12.5678,12.5486,12.5101,12.4447,12.437,12.4793,12.564,12.5755,12.614,12.6909,12.6909,12.6755,12.669,12.6486,12.6447,12.6601,12.6678,12.6524,12.6447,12.664,12.6524,12.6601,12.6486,12.6563,12.6563,12.6601,12.6383,12.5717,12.5601,12.537,12.4601,12.3755,12.3562,12.4101,12.3716,12.3601,12.4101,12.3947,12.387,12.3985,12.337,12.2947,12.2716,12.2177,12.1651,12.1651,12.1612,12.1612,12.1612,12.1612,12.1612,12.1612,12.1612,12.1612,12.1612,12.1612,12.1497,12.115,12.0985,12.0446,11.9677,11.8792,11.8138,11.7446,11.7792,11.8215,11.8831,11.9331,11.9331,11.9446,11.9677,11.9715,11.9953,11.9838,11.9358,11.8992,11.8631,11.7972,13.3789,13.3789,13.3789,13.3789,13.3789,13.3789,13.3789,13.3789,13.3789,13.3789,13.3789,13.3789,13.3789,13.3789,13.3789,13.332,13.2734,13.2539,13.2031,13.1367,13.1678,13.1637,13.1281,13.0626,13.0128,12.9852,12.9576,12.9467,12.8958,12.8255,12.7815,12.7563,12.6984,12.6741,12.6717,12.669,12.6614,12.6371,12.6332,12.6255,12.6024,12.5947,12.6447,12.714,12.7166,12.764,12.8409,12.8563,12.7871,12.6794,12.6717,12.6717,12.6794,12.6832,12.6871,12.6832,12.6806,12.6755,12.6755,12.6806,12.6767,12.6717,12.6794,12.6614,12.6421,12.6371,12.6217,12.587,12.5255,12.5024,12.5601,12.5178,12.5178,12.5678,12.4986,12.4255,12.4178,12.3909,12.3601,12.3024,12.2754,12.2331,12.1831,12.1689,12.1651,12.1612,12.1612,12.1612,12.1612,12.1612,12.1612,12.1612,12.1612,12.1612,12.1497,12.142,12.1023,12.0369,11.9792,11.9485,11.9061,11.91,11.9485,11.9985,12.0369,12.0485,12.0754,12.1035,12.0908,12.0562,12.0639,12.0485,12.01,11.9711,11.8806,13.3789,13.3789,13.3789,13.3789,13.3789,13.3789,13.3789,13.3789,13.3789,13.3789,13.3789,13.3789,13.3789,13.3789,13.3789,13.3554,13.3086,13.3047,13.2773,13.25,13.2812,13.2773,13.2343,13.1556,13.1025,13.085,13.0727,13.0359,12.984,12.9029,12.8491,12.8063,12.7323,12.6853,12.6857,12.6748,12.6739,12.6703,12.6717,12.6717,12.6717,12.6717,12.7101,12.7705,12.7935,12.832,12.9063,12.9179,12.8679,12.7948,12.7755,12.7755,12.7755,12.7755,12.7755,12.7755,12.7755,12.7755,12.7755,12.7717,12.7563,12.7294,12.7178,12.6986,12.6755,12.6717,12.6717,12.6563,12.587,12.5909,12.6421,12.6217,12.6217,12.6409,12.5755,12.5178,12.5178,12.4909,12.4486,12.4024,12.3601,12.3101,12.2254,12.2139,12.1908,12.1689,12.1612,12.1612,12.1612,12.1612,12.1612,12.1612,12.1612,12.1612,12.1612,12.1497,12.1458,12.0869,12.0639,12.0369,12.0177,12.01,12.0369,12.0716,12.1266,12.1612,12.1612,12.1612,12.142,12.1304,12.1574,12.1458,12.0946,12.0485,11.9631,13.3789,13.3789,13.3789,13.3789,13.3789,13.3789,13.3789,13.3789,13.3789,13.3789,13.3789,13.3789,13.3789,13.3789,13.3789,13.3789,13.375,13.3672,13.3711,13.3593,13.3632,13.3359,13.2734,13.2147,13.1708,13.1526,13.1221,13.1035,13.0703,12.9812,12.9209,12.8954,12.8097,12.7472,12.756,12.7341,12.7076,12.7164,12.7255,12.7255,12.7255,12.7294,12.7717,12.8409,12.8743,12.9025,12.9487,12.9602,12.9525,12.9487,12.9333,12.9025,12.9063,12.914,12.9102,12.9025,12.8948,12.8948,12.9102,12.8909,12.8794,12.8179,12.7935,12.7628,12.7063,12.6832,12.6717,12.6717,12.5986,12.6063,12.6486,12.6652,12.6652,12.669,12.6601,12.6678,12.6563,12.6024,12.5524,12.537,12.4639,12.3947,12.3293,12.287,12.2601,12.21,12.187,12.1612,12.1612,12.1612,12.1612,12.1612,12.1612,12.1612,12.1612,12.1574,12.1574,12.1381,12.1304,12.11,12.0716,12.0677,12.0946,12.1266,12.1497,12.1612,12.1612,12.1612,12.1612,12.1612,12.1612,12.1612,12.1458,12.1023,12.0308,13.3789,13.3789,13.3789,13.3789,13.3789,13.3789,13.3789,13.3789,13.3789,13.3789,13.3789,13.3789,13.3789,13.3789,13.3789,13.3789,13.3789,13.3789,13.3789,13.3789,13.3789,13.3711,13.3476,13.3164,13.3164,13.3047,13.3063,13.2846,13.2346,13.1524,13.1101,13.0709,12.9716,12.9319,12.9035,12.8814,12.8845,12.8702,12.8602,12.8525,12.8486,12.8525,12.8909,12.9756,13.0371,13.0833,13.1064,13.1141,13.1141,13.0871,13.0025,12.941,12.9371,12.9333,12.9371,12.9371,12.9294,12.9256,12.9217,12.9333,12.914,12.8948,12.8371,12.782,12.7678,12.6986,12.6755,12.669,12.6537,12.646,12.664,12.6717,12.6717,12.6717,12.6717,12.6717,12.6678,12.6524,12.6101,12.5601,12.5255,12.4793,12.3985,12.3332,12.2985,12.2601,12.2177,12.1689,12.1612,12.1612,12.1612,12.1612,12.1612,12.1612,12.1612,12.1612,12.1612,12.1612,12.1612,12.1574,12.1216,12.11,12.1304,12.142,12.1535,12.1612,12.1612,12.1612,12.1612,12.1612,12.1612,12.1612,12.1497,12.1254,12.0908,13.3789,13.3789,13.3789,13.3789,13.3789,13.3789,13.3789,13.3789,13.3789,13.3789,13.3789,13.3789,13.3789,13.3789,13.3789,13.3789,13.3789,13.3789,13.3789,13.3789,13.3789,13.3789,13.3789,13.3789,13.3789,13.3789,13.3705,13.3562,13.3202,13.2566,13.1901,13.1704,13.0865,13.0087,12.9892,12.9799,12.9447,12.9188,12.9179,12.9179,12.9179,12.9217,12.964,13.0487,13.1256,13.1679,13.1641,13.1641,13.1679,13.1487,13.0833,13.0333,13.0371,13.0333,13.0371,13.0371,13.0371,13.0371,13.0371,13.0333,13.0256,12.9794,12.8986,12.8359,12.7871,12.7178,12.6755,12.6717,12.6678,12.6717,12.6717,12.6717,12.6717,12.6717,12.6717,12.6717,12.6717,12.6678,12.6563,12.6101,12.6024,12.5524,12.487,12.4178,12.3447,12.3101,12.2678,12.2216,12.1612,12.1612,12.1612,12.1612,12.1612,12.1612,12.1612,12.1612,12.1612,12.1612,12.1612,12.1612,12.1458,12.1458,12.1535,12.1612,12.1612,12.1612,12.1612,12.1612,12.1612,12.1612,12.1612,12.1612,12.1535,12.142,12.0985,13.3398,13.3398,13.3398,13.3398,13.3437,13.3515,13.3554,13.3554,13.375,13.3789,13.3789,13.3789,13.3789,13.3789,13.3789,13.3789,13.3789,13.3789,13.3789,13.3789,13.3789,13.3789,13.3789,13.3789,13.3789,13.3789,13.3748,13.3659,13.3448,13.296,13.2624,13.2286,13.162,13.111,13.0586,13.0289,13.0222,12.9919,12.9833,12.9794,12.9794,12.9794,13.0179,13.0756,13.1333,13.1679,13.1679,13.1679,13.1679,13.1679,13.1679,13.1679,13.1679,13.1679,13.1679,13.1602,13.1487,13.141,13.1372,13.1448,13.1256,13.0641,12.9871,12.914,12.8448,12.764,12.7101,12.6909,12.6871,12.6794,12.6871,12.6755,12.6794,12.6871,12.6832,12.6717,12.6717,12.6717,12.6652,12.6652,12.646,12.6101,12.5717,12.5178,12.437,12.3639,12.3216,12.2754,12.2139,12.1651,12.1651,12.1612,12.1612,12.1612,12.1612,12.1612,12.1612,12.1612,12.1612,12.1612,12.1612,12.1612,12.1612,12.1612,12.1612,12.1612,12.1612,12.1612,12.1612,12.1612,12.1612,12.1612,12.1612,12.1612,12.1139,13.164,13.1601,13.164,13.164,13.1758,13.2422,13.2773,13.2851,13.3515,13.3789,13.3789,13.3789,13.3789,13.3789,13.3789,13.3789,13.3789,13.3789,13.3789,13.3789,13.3789,13.3789,13.3789,13.3789,13.3789,13.3789,13.3789,13.375,13.375,13.3631,13.3359,13.3359,13.309,13.2656,13.2197,13.2097,13.1605,13.1058,13.1024,13.1012,13.1025,13.1064,13.1102,13.1372,13.1602,13.1679,13.1679,13.1679,13.1679,13.1679,13.1679,13.1679,13.1679,13.1679,13.1679,13.1679,13.1679,13.1679,13.1679,13.1679,13.1641,13.1333,13.0641,13.0256,12.964,12.8602,12.764,12.7371,12.7101,12.6986,12.764,12.7255,12.714,12.7332,12.7178,12.6755,12.6717,12.6717,12.6717,12.6717,12.669,12.6652,12.6255,12.587,12.5216,12.4447,12.3909,12.3408,12.287,12.2216,12.1754,12.1689,12.1612,12.1612,12.1612,12.1612,12.1612,12.1612,12.1612,12.1612,12.1612,12.1612,12.1612,12.1612,12.1612,12.1612,12.1612,12.1612,12.1612,12.1612,12.1612,12.1612,12.1612,12.1612,12.1612,13.1211,13.1211,13.1211,13.1211,13.1367,13.2148,13.25,13.2617,13.3398,13.3789,13.3789,13.3789,13.3789,13.3789,13.3789,13.3789,13.3789,13.3789,13.3789,13.3789,13.3789,13.3789,13.3789,13.3789,13.3789,13.3789,13.3789,13.3789,13.3789,13.3789,13.3789,13.375,13.3682,13.3372,13.297,13.2705,13.2402,13.1976,13.1828,13.1793,13.1692,13.1679,13.1679,13.1679,13.1679,13.1679,13.1679,13.1679,13.1679,13.1679,13.1679,13.1679,13.1679,13.1679,13.1679,13.1679,13.1679,13.1679,13.1679,13.1679,13.1679,13.1602,13.0948,13.0525,13.0064,12.8986,12.7871,12.7371,12.7602,12.7448,12.7832,12.7832,12.7986,12.7794,12.7486,12.7101,12.6832,12.6717,12.6717,12.6717,12.669,12.669,12.6652,12.6267,12.587,12.5293,12.4639,12.4101,12.3601,12.2908,12.2254,12.2177,12.21,12.1881,12.1843,12.1804,12.1651,12.1612,12.1612,12.1612,12.1612,12.1612,12.1612,12.1612,12.1612,12.1612,12.1612,12.1612,12.1612,12.1612,12.1612,12.1612,12.1612,12.1612,12.1612,13.0664,13.0664,13.0664,13.0664,13.082,13.1601,13.1953,13.2187,13.3086,13.3476,13.3554,13.3711,13.3789,13.3789,13.3789,13.3789,13.3789,13.3789,13.3789,13.3789,13.3789,13.3789,13.3789,13.3789,13.3789,13.3789,13.3789,13.3789,13.3789,13.3789,13.3789,13.3789,13.3731,13.3502,13.3166,13.2929,13.2504,13.2193,13.198,13.1877,13.173,13.1679,13.1679,13.1679,13.1679,13.1679,13.1679,13.1679,13.1679,13.1679,13.1679,13.1679,13.1679,13.1679,13.1679,13.1679,13.1679,13.1679,13.1679,13.1679,13.1679,13.1641,13.1141,13.0833,13.0371,12.9371,12.7871,12.7101,12.714,12.7794,12.8179,12.8409,12.8448,12.8332,12.7871,12.7448,12.6909,12.6717,12.6717,12.6717,12.6717,12.669,12.669,12.6652,12.6255,12.5909,12.5293,12.487,12.4332,12.3639,12.3101,12.2985,12.2754,12.2331,12.2177,12.21,12.187,12.1651,12.1612,12.1612,12.1612,12.1612,12.1612,12.1612,12.1612,12.1612,12.1612,12.1612,12.1612,12.1612,12.1612,12.1612,12.1612,12.1612,12.1612,12.8906,12.8906,12.8945,12.8906,12.9101,12.9922,13.0234,13.0508,13.2031,13.2656,13.2812,13.3476,13.3789,13.3789,13.3789,13.3789,13.3789,13.3789,13.3789,13.3789,13.3789,13.3789,13.3789,13.3789,13.3789,13.3789,13.3789,13.3789,13.3789,13.3789,13.3789,13.3789,13.37,13.354,13.3245,13.3107,13.278,13.2285,13.219,13.1991,13.1755,13.1692,13.1679,13.1679,13.1679,13.1679,13.1679,13.1679,13.1679,13.1679,13.1679,13.1679,13.1679,13.1679,13.1679,13.1679,13.1679,13.1679,13.1679,13.1679,13.1679,13.1679,13.1487,13.1525,13.0794,12.9794,12.8294,12.6832,12.6909,12.7525,12.8217,12.7832,12.7948,12.7986,12.7794,12.7217,12.6729,12.6717,12.6717,12.6717,12.6717,12.6717,12.669,12.6678,12.6601,12.6294,12.5986,12.5563,12.5101,12.4447,12.3755,12.3562,12.3447,12.3062,12.2678,12.2601,12.2293,12.1881,12.1689,12.1612,12.1612,12.1612,12.1612,12.1612,12.1612,12.1612,12.1612,12.1612,12.1612,12.1612,12.1612,12.1612,12.1612,12.1612,12.1612,12.8593,12.8593,12.8593,12.8593,12.8711,12.9531,12.9883,13.0234,13.1718,13.25,13.2656,13.3398,13.3789,13.3789,13.3789,13.3789,13.3789,13.3789,13.3789,13.3789,13.3789,13.3789,13.3789,13.3789,13.3789,13.3789,13.3789,13.3789,13.3789,13.3789,13.3789,13.3789,13.3745,13.3647,13.3402,13.3325,13.3047,13.2628,13.2305,13.2014,13.1841,13.173,13.1679,13.1679,13.1679,13.1679,13.1679,13.1679,13.1679,13.1679,13.1679,13.1679,13.1679,13.1679,13.1679,13.1679,13.1679,13.1679,13.1679,13.1679,13.1679,13.1679,13.1602,13.1256,13.0448,12.9679,12.8563,12.6871,12.714,12.7755,12.8448,12.8256,12.8217,12.814,12.7755,12.7294,12.6871,12.6729,12.6717,12.6717,12.6717,12.6717,12.6717,12.6717,12.6678,12.6563,12.6409,12.6217,12.5832,12.5332,12.4639,12.3985,12.3947,12.3832,12.3447,12.3178,12.287,12.2408,12.1831,12.1754,12.1612,12.1612,12.1689,12.1651,12.1612,12.1612,12.1612,12.1612,12.1612,12.1612,12.1612,12.1612,12.1612,12.1612,12.1612,12.8593,12.8593,12.8593,12.8593,12.8672,12.9336,12.9531,12.9765,13.1406,13.2148,13.2461,13.3242,13.3789,13.3789,13.3789,13.3789,13.3789,13.3789,13.3789,13.3789,13.3789,13.3789,13.3789,13.3789,13.3789,13.3789,13.3789,13.3789,13.3789,13.3789,13.3789,13.3789,13.375,13.3703,13.3643,13.3504,13.3284,13.2896,13.2353,13.2072,13.1945,13.1779,13.1705,13.1679,13.1679,13.1679,13.1679,13.1679,13.1679,13.1679,13.1679,13.1679,13.1679,13.1679,13.1679,13.1679,13.1679,13.1679,13.1679,13.1679,13.1679,13.1679,13.1602,13.1179,13.0025,12.9487,12.9025,12.764,12.7525,12.7935,12.8205,12.8525,12.8332,12.8063,12.7832,12.7409,12.7101,12.6948,12.6755,12.6717,12.6717,12.6717,12.6717,12.6717,12.6717,12.6717,12.6717,12.6717,12.6409,12.5986,12.564,12.4986,12.5024,12.487,12.437,12.3947,12.3562,12.3062,12.2485,12.21,12.2139,12.2024,12.1985,12.1881,12.1689,12.1612,12.1612,12.1612,12.1612,12.1612,12.1612,12.1612,12.1612,12.1612,12.1612,12.8593,12.8593,12.8593,12.8593,12.8593,12.8672,12.8711,12.8945,13.0586,13.1445,13.1914,13.2968,13.3789,13.3789,13.3789,13.3789,13.3789,13.3789,13.3789,13.3789,13.3789,13.3789,13.3789,13.3789,13.3789,13.3789,13.3789,13.3789,13.3789,13.3789,13.3789,13.3789,13.3789,13.3789,13.3746,13.3641,13.3457,13.3053,13.2507,13.2226,13.2088,13.1862,13.1692,13.1679,13.1679,13.1679,13.1679,13.1679,13.1679,13.1679,13.1679,13.1679,13.1679,13.1679,13.1679,13.1679,13.1679,13.1679,13.1679,13.1679,13.1679,13.1679,13.1602,13.1295,13.0294,13.0333,12.9833,12.8871,12.8371,12.8282,12.8294,12.8102,12.8217,12.814,12.8025,12.7755,12.7409,12.7101,12.6948,12.6755,12.6717,12.6717,12.6717,12.6717,12.6717,12.6717,12.6717,12.6717,12.6717,12.6409,12.6486,12.6255,12.6332,12.6063,12.5409,12.4947,12.4447,12.4024,12.3524,12.3139,12.2908,12.2716,12.2331,12.2024,12.1831,12.1689,12.1689,12.187,12.1908,12.1689,12.1612,12.1612,12.1612,12.1612,12.1612,12.8593,12.8593,12.8593,12.8593,12.8593,12.8593,12.8593,12.8906,13.0429,13.1875,13.2812,13.3476,13.3789,13.3789,13.3789,13.3789,13.3789,13.3789,13.3789,13.3789,13.3789,13.3789,13.3789,13.3789,13.3789,13.3789,13.3789,13.3789,13.3789,13.3789,13.3789,13.3789,13.3789,13.3789,13.3789,13.3697,13.3493,13.3176,13.2758,13.2409,13.22,13.1898,13.1679,13.1679,13.1679,13.1679,13.1679,13.1679,13.1679,13.1679,13.1679,13.1679,13.1679,13.1679,13.1679,13.1679,13.1679,13.1679,13.1679,13.1679,13.1679,13.1679,13.1641,13.1372,13.0679,13.0525,13.0064,12.9371,12.8948,12.8909,12.8179,12.8294,12.8525,12.8409,12.8282,12.8102,12.7948,12.7717,12.7332,12.7294,12.6948,12.6717,12.6717,12.6717,12.6717,12.6717,12.6717,12.6717,12.6717,12.6717,12.6717,12.6717,12.6717,12.6717,12.6101,12.5678,12.5293,12.4947,12.4524,12.4139,12.3755,12.3024,12.2678,12.2293,12.2139,12.2139,12.2254,12.237,12.2293,12.21,12.1843,12.1612,12.1612,12.1766,12.1881,12.8593,12.8593,12.8593,12.8593,12.8593,12.8593,12.8593,12.8906,13.0468,13.2187,13.3789,13.3789,13.3789,13.3789,13.3789,13.3789,13.3789,13.3789,13.3789,13.3789,13.3789,13.3789,13.3789,13.3789,13.3789,13.3789,13.3789,13.3789,13.3789,13.3789,13.3789,13.3789,13.3789,13.3789,13.3789,13.3711,13.3554,13.3305,13.2897,13.2555,13.2354,13.193,13.1692,13.1679,13.1679,13.1679,13.1679,13.1679,13.1679,13.1679,13.1679,13.1679,13.1679,13.1679,13.1679,13.1679,13.1679,13.1679,13.1679,13.1679,13.1679,13.1679,13.1679,13.1372,13.1025,13.0833,13.0641,13.0217,12.9833,12.9333,12.864,12.8948,12.9179,12.914,12.8909,12.8756,12.8833,12.864,12.8179,12.7832,12.7486,12.714,12.6986,12.6986,12.6767,12.6729,12.6717,12.6717,12.6717,12.6717,12.6717,12.6717,12.6717,12.6717,12.664,12.6255,12.5947,12.5909,12.5486,12.5024,12.4524,12.3832,12.3332,12.3216,12.3024,12.2831,12.2947,12.3216,12.2947,12.2601,12.2447,12.2447,12.2639,12.287,12.2716,12.8593,12.8593,12.8593,12.8593,12.8593,12.8593,12.8593,12.8828,13.0468,13.2187,13.3672,13.3789,13.3789,13.3789,13.3789,13.3789,13.3789,13.3789,13.3789,13.3789,13.3789,13.3789,13.3789,13.3789,13.3789,13.3789,13.3789,13.3789,13.3789,13.3789,13.3789,13.3789,13.3789,13.3789,13.3789,13.3789,13.3711,13.3538,13.298,13.2717,13.2502,13.2088,13.1865,13.1779,13.1767,13.1767,13.173,13.1692,13.1692,13.1679,13.1679,13.1679,13.1679,13.1679,13.1679,13.1679,13.1679,13.1679,13.1679,13.1679,13.1679,13.1679,13.1679,13.1564,13.1602,13.1564,13.1487,13.0987,13.0794,13.0448,13.0102,12.9833,12.9948,12.9833,12.9602,12.9563,12.964,12.9525,12.9025,12.8486,12.814,12.782,12.7563,12.7294,12.6909,12.6767,12.6729,12.6717,12.6794,12.6909,12.6986,12.6717,12.6717,12.6717,12.6717,12.6717,12.6563,12.6614,12.6371,12.5832,12.5447,12.4947,12.4524,12.4216,12.3832,12.3524,12.3793,12.4139,12.4062,12.4101,12.3755,12.3716,12.3909,12.3832,12.3524,12.8593,12.8593,12.8593,12.8593,12.8593,12.8593,12.8593,12.8906,13.0468,13.2148,13.3515,13.3789,13.3789,13.3789,13.3789,13.3789,13.3789,13.3789,13.3789,13.3789,13.3789,13.3789,13.3789,13.3789,13.3789,13.3789,13.3789,13.3789,13.3789,13.3789,13.3789,13.3789,13.3789,13.3789,13.3789,13.3789,13.375,13.3607,13.3245,13.2909,13.2807,13.2402,13.2116,13.2049,13.1968,13.1874,13.1816,13.1767,13.1692,13.1679,13.1679,13.1679,13.1679,13.1679,13.1679,13.1679,13.1679,13.1679,13.1679,13.1679,13.1679,13.1679,13.1679,13.1679,13.1679,13.1679,13.1679,13.1679,13.141,13.0987,13.0487,13.0871,13.0948,13.0564,13.041,13.0487,13.0487,13.0256,12.9871,12.9217,12.8794,12.832,12.8012,12.7794,12.7448,12.7563,12.764,12.7217,12.7101,12.7332,12.7448,12.6909,12.6717,12.6717,12.6717,12.6717,12.6717,12.664,12.664,12.6486,12.614,12.5794,12.5447,12.4986,12.4562,12.4255,12.4716,12.514,12.564,12.5717,12.5101,12.4562,12.4447,12.4255,12.3947,12.832,12.8593,12.8593,12.8593,12.8593,12.8593,12.875,12.9218,13.0312,13.1718,13.3047,13.3359,13.3554,13.3711,13.3789,13.3789,13.3789,13.3789,13.3789,13.3789,13.3789,13.3789,13.3789,13.3789,13.3789,13.3789,13.3789,13.3789,13.3789,13.3789,13.3789,13.3789,13.3789,13.3789,13.3789,13.3789,13.3746,13.3626,13.3319,13.3098,13.2981,13.2722,13.2446,13.2335,13.2214,13.2033,13.193,13.1841,13.1692,13.1692,13.1692,13.1692,13.1692,13.1679,13.1679,13.1679,13.1679,13.1679,13.1679,13.1679,13.1679,13.1679,13.1679,13.1679,13.1679,13.1679,13.1679,13.1679,13.1679,13.141,13.1102,13.1602,13.1448,13.1064,13.1064,13.1141,13.1102,13.0833,13.0756,13.0102,12.9563,12.9063,12.8525,12.8256,12.8025,12.8332,12.8628,12.814,12.764,12.7832,12.7948,12.7448,12.6948,12.6883,12.6794,12.6717,12.6717,12.6717,12.6755,12.6832,12.6614,12.6229,12.5986,12.5832,12.5563,12.5486,12.5794,12.6178,12.6332,12.6255,12.587,12.5409,12.5024,12.487,12.4755,12.7812,12.8515,12.8593,12.8593,12.8593,12.8593,12.9062,12.9843,12.9922,13.0937,13.2539,13.2617,13.3047,13.3711,13.3789,13.3789,13.3789,13.3789,13.3789,13.3789,13.3789,13.3789,13.3789,13.3789,13.3789,13.3789,13.3789,13.3789,13.3789,13.3789,13.3789,13.3789,13.3789,13.3789,13.3789,13.3789,13.375,13.3605,13.3436,13.3308,13.3195,13.2948,13.2773,13.2652,13.2456,13.2296,13.2151,13.1964,13.1853,13.1767,13.1742,13.1717,13.1743,13.1718,13.1679,13.1679,13.1679,13.1679,13.1679,13.1679,13.1679,13.1679,13.1679,13.1679,13.1679,13.1679,13.1679,13.1679,13.1679,13.1679,13.1679,13.1679,13.1641,13.1564,13.1564,13.1602,13.1602,13.1525,13.1525,13.1102,13.0564,13.0025,12.941,12.9025,12.8794,12.9179,12.9487,12.964,12.914,12.8563,12.8563,12.814,12.7602,12.7101,12.7025,12.7294,12.714,12.7255,12.7063,12.7025,12.6832,12.6652,12.6409,12.6332,12.6563,12.6601,12.6447,12.6447,12.6601,12.6447,12.6267,12.6178,12.5832,12.6024,12.6063,12.7461,12.7734,12.8359,12.8593,12.8593,12.8593,12.9101,12.9843,12.9922,13.0898,13.25,13.25,13.2851,13.3789,13.3789,13.3789,13.3789,13.3789,13.3789,13.3789,13.3789,13.3789,13.3789,13.3789,13.3789,13.3789,13.3789,13.3789,13.3789,13.3789,13.3789,13.3789,13.3789,13.3789,13.3789,13.3789,13.375,13.3701,13.3553,13.348,13.3437,13.3278,13.3137,13.3014,13.2798,13.2636,13.2511,13.2303,13.2165,13.2071,13.1968,13.1898,13.1855,13.1742,13.1679,13.1679,13.1679,13.1679,13.1679,13.1679,13.1679,13.1679,13.1679,13.1679,13.1679,13.1679,13.1679,13.1679,13.1679,13.1679,13.1679,13.1679,13.1679,13.1679,13.1679,13.1679,13.1679,13.1679,13.1679,13.1564,13.1025,13.0718,13.0102,12.9679,12.9525,12.9987,13.0333,13.0564,13.0448,12.9794,12.9294,12.8871,12.8448,12.7948,12.8217,12.8486,12.8102,12.7794,12.7525,12.7255,12.6948,12.6794,12.6717,12.6717,12.6717,12.6717,12.6678,12.6717,12.6717,12.6717,12.6563,12.664,12.6717,12.6717,12.6717,12.6718,12.7343,12.7851,12.8281,12.8593,12.8593,12.8906,12.9336,12.9375,13.0234,13.1367,13.1445,13.2148,13.3164,13.3242,13.3437,13.3789,13.3789,13.3789,13.3789,13.3789,13.3789,13.3789,13.3789,13.3789,13.3789,13.3789,13.3789,13.3789,13.3789,13.3789,13.3789,13.3789,13.3789,13.3789,13.3789,13.3789,13.3747,13.3701,13.3672,13.3632,13.3593,13.3499,13.3379,13.3171,13.2997,13.2889,13.2667,13.2481,13.2354,13.2226,13.2072,13.1941,13.1802,13.1692,13.1679,13.1679,13.1679,13.1679,13.1679,13.1679,13.1679,13.1679,13.1679,13.1679,13.1679,13.1679,13.1679,13.1679,13.1679,13.1679,13.1679,13.1679,13.1679,13.1679,13.1679,13.1679,13.1679,13.1679,13.1641,13.141,13.1141,13.0756,13.0333,13.0256,13.0756,13.1025,13.1141,13.1025,13.0525,13.0102,12.9756,12.9333,12.8909,12.9256,12.941,12.8948,12.8448,12.7948,12.7602,12.7217,12.6948,12.6871,12.6794,12.6717,12.6794,12.6986,12.6755,12.6717,12.6755,12.6755,12.6717,12.6717,12.6717,12.6717,12.5703,12.707,12.7265,12.7851,12.8554,12.8593,12.8633,12.8593,12.8672,12.914,12.9883,12.9961,13.1054,13.2461,13.2734,13.3164,13.3593,13.3789,13.3789,13.3789,13.3789,13.3789,13.3789,13.3789,13.3789,13.3789,13.3789,13.3789,13.3789,13.3789,13.3789,13.3789,13.3789,13.3789,13.3789,13.3789,13.3789,13.3789,13.3789,13.375,13.3789,13.3789,13.3787,13.3646,13.3434,13.3234,13.3145,13.2981,13.2742,13.2651,13.2473,13.2267,13.2066,13.193,13.1853,13.1792,13.1841,13.1792,13.1779,13.1755,13.1705,13.1692,13.1679,13.1679,13.1679,13.1679,13.1679,13.1679,13.1679,13.1679,13.1679,13.1679,13.1679,13.1679,13.1679,13.1679,13.1679,13.1679,13.1679,13.1641,13.1602,13.1372,13.1372,13.0948,13.0871,13.1448,13.1564,13.1602,13.1448,13.1064,13.0833,13.0525,13.0294,12.9987,12.9948,12.9987,12.9679,12.9179,12.8679,12.8256,12.8063,12.7563,12.6986,12.7294,12.7602,12.7332,12.7294,12.7178,12.7101,12.6986,12.6948,12.6755,12.6717,12.6717,12.6717,12.5039,12.5547,12.6758,12.7812,12.8554,12.8593,12.8593,12.8593,12.8593,12.9062,12.9765,13.0,13.0781,13.2109,13.2265,13.2734,13.3437,13.3554,13.375,13.375,13.375,13.3789,13.3789,13.3789,13.3789,13.3789,13.3789,13.3789,13.3789,13.3789,13.3789,13.3789,13.3789,13.3789,13.3789,13.3789,13.3789,13.3789,13.3789,13.3789,13.3789,13.3789,13.3787,13.37,13.3553,13.3485,13.343,13.3332,13.3186,13.3065,13.2876,13.2615,13.2322,13.2267,13.2225,13.2203,13.211,13.2033,13.1945,13.1862,13.1804,13.1717,13.1679,13.1679,13.1679,13.1679,13.1679,13.1679,13.1679,13.1679,13.1679,13.1679,13.1679,13.1679,13.1679,13.1679,13.1679,13.1679,13.1679,13.1679,13.1679,13.1679,13.1679,13.1679,13.1679,13.1679,13.1641,13.1679,13.1641,13.1448,13.1372,13.1179,13.1333,13.1102,13.091,13.0718,13.0448,13.0217,12.9794,12.9371,12.8948,12.8448,12.8025,12.8448,12.8679,12.8294,12.7986,12.7909,12.7794,12.7486,12.7178,12.6986,12.6832,12.6794,12.6755,12.4453,12.5,12.6601,12.7578,12.8047,12.8437,12.8593,12.8593,12.8593,12.8867,12.9258,12.9414,13.0117,13.1289,13.1367,13.1914,13.2695,13.3047,13.3086,13.3242,13.3632,13.3789,13.3789,13.3789,13.3789,13.3789,13.3789,13.3789,13.3789,13.3789,13.3789,13.3789,13.3789,13.3789,13.3789,13.3789,13.3789,13.3789,13.3789,13.3789,13.3789,13.3789,13.3789,13.3746,13.3711,13.3672,13.3686,13.3624,13.3554,13.339,13.3171,13.2865,13.2621,13.2524,13.2507,13.2504,13.2416,13.2315,13.2183,13.2039,13.1922,13.1828,13.1705,13.1705,13.1679,13.1679,13.1679,13.1679,13.1679,13.1679,13.1679,13.1679,13.1679,13.1679,13.1679,13.1679,13.1679,13.1679,13.1679,13.1679,13.1679,13.1679,13.1679,13.1679,13.1679,13.1679,13.1679,13.1679,13.1679,13.1679,13.1679,13.1679,13.1679,13.1679,13.141,13.1333,13.1295,13.1064,13.0756,13.0025,12.9333,12.9217,12.914,12.9333,12.9333,12.9063,12.8794,12.8756,12.8243,12.7794,12.7486,12.7178,12.7063,12.7101,12.7294,12.4023,12.4961,12.6484,12.7226,12.7422,12.8242,12.8593,12.8593,12.8593,12.8593,12.8672,12.8672,12.914,12.9648,12.9961,13.0547,13.1211,13.2031,13.2304,13.2773,13.3242,13.3554,13.3711,13.3789,13.3789,13.3789,13.3789,13.3789,13.3789,13.3789,13.3789,13.3789,13.3789,13.3789,13.3789,13.3789,13.3789,13.3789,13.3789,13.3789,13.3789,13.3789,13.3789,13.3789,13.3789,13.3789,13.3789,13.3789,13.375,13.3599,13.3385,13.3156,13.2948,13.2832,13.2838,13.2845,13.2784,13.2605,13.2425,13.2286,13.2083,13.191,13.1828,13.1804,13.179,13.179,13.179,13.1778,13.1778,13.1717,13.1717,13.1705,13.1705,13.1692,13.1692,13.1679,13.1679,13.1679,13.1679,13.1679,13.1679,13.1679,13.1679,13.1679,13.1679,13.1679,13.1679,13.1679,13.1679,13.1679,13.1679,13.1679,13.1679,13.1679,13.1679,13.1641,13.1602,13.1525,13.1102,13.0371,12.991,13.0064,13.0064,12.9833,12.9794,12.9871,12.9717,12.9602,12.9025,12.8448,12.8179,12.7986,12.7871,12.7909,12.8179,12.3984,12.4883,12.5859,12.664,12.7343,12.8242,12.8593,12.8593,12.8593,12.8593,12.8593,12.8672,12.9062,12.9883,12.9883,13.0234,13.0742,13.1328,13.1953,13.2539,13.2773,13.3203,13.3632,13.3789,13.3789,13.3789,13.3789,13.3789,13.3789,13.3789,13.3789,13.3789,13.3789,13.3789,13.3789,13.3789,13.3789,13.3789,13.3789,13.3789,13.3789,13.3789,13.3789,13.3789,13.3789,13.3789,13.3789,13.3789,13.375,13.3697,13.3581,13.3427,13.3297,13.3223,13.3223,13.3206,13.3176,13.2985,13.277,13.2628,13.2436,13.2234,13.2183,13.2211,13.2221,13.2221,13.2211,13.2158,13.2072,13.1824,13.1802,13.1779,13.1755,13.1717,13.1705,13.1692,13.1679,13.1679,13.1679,13.1679,13.1679,13.1679,13.1679,13.1679,13.1679,13.1679,13.1679,13.1679,13.1679,13.1679,13.1679,13.1679,13.1679,13.1679,13.1679,13.1679,13.1641,13.1602,13.1525,13.1025,13.0871,13.1256,13.1179,13.0718,13.0871,13.1064,13.0871,13.0448,13.0141,12.9602,12.9179,12.8909,12.8717,12.8756,12.9025]}]]